[[{"header":{"parameterUnit":"m.s-1","parameterCategory":1,"la1":30.6,"la2":28.766,"lo1":-90.7593,"lo2":-88.6598,"dy":0.0162,"dx":0.0183,"nx":116,"ny":114,"refTime":"2024-04-29T18:00:00:Z","depth":0,"parameterNumber":2,"parameterNumberName":"U-component_of_WINDS"},"data":[0.0,0.0,0.0,0.0,0.0,0.0,0.0,0.0,0.0,0.0,0.0,0.0,0.0,0.0,0.0,0.0,0.0,0.0,0.0,0.0,0.0,0.0,0.0,0.0,0.0,0.0,0.0,0.0,0.0,0.0,0.0,0.0,0.0,0.0,0.0,0.0,0.0,0.0,0.0,0.0,0.0,0.0,0.0,0.0,0.0,0.0,0.0,0.0,0.0,0.0,0.0,0.0,0.0,0.0,0.0,0.0,0.0,0.0,0.0,0.0,0.0,0.0,0.0,0.0,0.0,0.0,0.0,0.0,0.0,0.0,0.0,0.0,0.0,0.0,0.0,0.0,0.0,0.0,0.0,0.0,0.0,0.0,0.0,0.0,0.0,0.0,0.0,0.0,0.0,0.0,0.0,0.0,0.0,0.0,0.0,0.0,0.0,0.0,0.0,0.0,0.0,0.0,0.0,0.0,0.0,0.0,0.0,0.0,0.0,0.0,0.0,0.0,0.0,0.0,0.0,0.0,0.0,0.0,0.0,0.0,0.0,0.0,0.0,0.0,0.0,0.0,0.0,0.0,0.0,0.0,0.0,0.0,0.0,0.0,0.0,0.0,0.0,0.0,0.0,0.0,0.0,0.0,0.0,0.0,0.0,0.0,0.0,0.0,0.0,0.0,0.0,0.0,0.0,0.0,0.0,0.0,0.0,0.0,0.0,0.0,0.0,0.0,0.0,0.0,0.0,0.0,0.0,0.0,0.0,0.0,0.0,0.0,0.0,0.0,0.0,0.0,0.0,0.0,0.0,0.0,0.0,0.0,0.0,0.0,0.0,0.0,0.0,0.0,0.0,0.0,0.0,0.0,0.0,0.0,0.0,0.0,0.0,0.0,0.0,0.0,0.0,0.0,0.0,0.0,0.0,0.0,0.0,0.0,0.0,0.0,0.0,0.0,0.0,0.0,0.0,0.0,0.0,0.0,0.0,0.0,0.0,0.0,0.0,0.0,0.0,0.0,0.0,0.0,0.0,0.0,0.0,0.0,0.0,0.0,0.0,0.0,0.0,0.0,0.0,0.0,0.0,0.0,0.0,0.0,0.0,0.0,0.0,0.0,0.0,0.0,0.0,0.0,0.0,0.0,0.0,0.0,0.0,0.0,0.0,0.0,0.0,0.0,0.0,0.0,0.0,0.0,0.0,0.0,0.0,0.0,0.0,0.0,0.0,0.0,0.0,0.0,0.0,0.0,0.0,0.0,0.0,0.0,0.0,0.0,0.0,0.0,0.0,0.0,0.0,0.0,0.0,0.0,0.0,0.0,0.0,0.0,0.0,0.0,0.0,0.0,0.0,0.0,0.0,0.0,0.0,0.0,0.0,0.0,0.0,0.0,0.0,0.0,0.0,0.0,0.0,0.0,0.0,0.0,0.0,0.0,0.0,0.0,0.0,0.0,0.0,0.0,0.0,0.0,0.0,0.0,0.0,0.0,0.0,0.0,0.0,0.0,0.0,0.0,0.0,0.0,0.0,0.0,0.0,0.0,0.0,0.0,0.0,0.0,0.0,0.0,0.0,0.0,0.0,0.0,0.0,0.0,0.0,0.0,0.0,0.0,0.0,0.0,0.0,0.0,0.0,0.0,0.0,0.0,0.0,0.0,0.0,0.0,0.0,0.0,0.0,0.0,0.0,0.0,0.0,0.0,0.0,0.0,0.0,0.0,0.0,0.0,0.0,0.0,0.0,0.0,0.0,0.0,0.0,0.0,0.0,0.0,0.0,0.0,0.0,0.0,0.0,0.0,0.0,0.0,0.0,0.0,0.0,0.0,0.0,0.0,0.0,0.0,0.0,0.0,0.0,0.0,0.0,0.0,0.0,0.0,0.0,0.0,0.0,0.0,0.0,0.0,0.0,0.0,0.0,0.0,0.0,0.0,0.0,0.0,0.0,0.0,0.0,0.0,0.0,0.0,0.0,0.0,0.0,0.0,0.0,0.0,0.0,0.0,0.0,0.0,0.0,0.0,0.0,0.0,0.0,0.0,0.0,0.0,0.0,0.0,0.0,0.0,0.0,0.0,0.0,0.0,0.0,0.0,0.0,0.0,0.0,0.0,0.0,0.0,0.0,0.0,0.0,0.0,0.0,0.0,0.0,0.0,0.0,0.0,0.0,0.0,0.0,0.0,0.0,0.0,0.0,0.0,0.0,0.0,0.0,0.0,0.0,0.0,0.0,0.0,0.0,0.0,0.0,0.0,0.0,0.0,0.0,0.0,0.0,0.0,0.0,0.0,0.0,0.0,0.0,0.0,0.0,0.0,0.0,0.0,0.0,0.0,0.0,0.0,0.0,0.0,0.0,0.0,0.0,0.0,0.0,0.0,0.0,0.0,0.0,0.0,0.0,0.0,0.0,0.0,0.0,0.0,0.0,0.0,0.0,0.0,0.0,0.0,0.0,0.0,0.0,0.0,0.0,0.0,0.0,0.0,0.0,0.0,0.0,0.0,0.0,0.0,0.0,0.0,0.0,0.0,0.0,0.0,0.0,0.0,0.0,0.0,0.0,0.0,0.0,0.0,0.0,0.0,0.0,0.0,0.0,0.0,0.0,0.0,0.0,0.0,0.0,0.0,0.0,0.0,0.0,0.0,0.0,0.0,0.0,0.0,0.0,0.0,0.0,0.0,0.0,0.0,0.0,0.0,0.0,0.0,0.0,0.0,0.0,0.0,0.0,0.0,0.0,0.0,0.0,0.0,0.0,0.0,0.0,0.0,0.0,0.0,0.0,0.0,0.0,0.0,0.0,0.0,0.0,0.0,0.0,0.0,0.0,0.0,0.0,0.0,0.0,0.0,0.0,0.0,0.0,0.0,0.0,0.0,0.0,0.0,0.0,0.0,0.0,0.0,0.0,0.0,0.0,0.0,0.0,0.0,0.0,0.0,0.0,0.0,0.0,0.0,0.0,0.0,0.0,0.0,0.0,0.0,0.0,0.0,0.0,0.0,0.0,0.0,0.0,0.0,0.0,0.0,0.0,0.0,0.0,0.0,0.0,0.0,0.0,0.0,0.0,0.0,0.0,0.0,0.0,0.0,0.0,0.0,0.0,0.0,0.0,0.0,0.0,0.0,0.0,0.0,0.0,0.0,0.0,0.0,0.0,0.0,0.0,0.0,0.0,0.0,0.0,0.0,0.0,0.0,0.0,0.0,0.0,0.0,0.0,0.0,0.0,0.0,0.0,0.0,0.0,0.0,0.0,0.0,0.0,0.0,0.0,0.0,0.0,0.0,0.0,0.0,0.0,0.0,0.0,0.0,0.0,0.0,0.0,0.0,0.0,0.0,0.0,0.0,0.0,0.0,0.0,0.0,0.0,0.0,0.0,0.0,0.0,0.0,0.0,0.0,0.0,0.0,0.0,0.0,0.0,0.0,0.0,0.0,0.0,0.0,0.0,0.0,0.0,0.0,0.0,0.0,0.0,0.0,0.0,0.0,0.0,0.0,0.0,0.0,0.0,0.0,0.0,0.0,0.0,0.0,0.0,0.0,0.0,0.0,0.0,0.0,0.0,0.0,0.0,0.0,0.0,0.0,0.0,0.0,0.0,0.0,0.0,0.0,0.0,0.0,0.0,0.0,0.0,0.0,0.0,0.0,0.0,0.0,0.0,0.0,0.0,0.0,0.0,0.0,0.0,0.0,0.0,0.0,0.0,0.0,0.0,0.0,0.0,0.0,0.0,0.0,0.0,0.0,0.0,0.0,0.0,0.0,0.0,0.0,0.0,0.0,0.0,0.0,0.0,0.0,0.0,0.0,0.0,0.0,0.0,0.0,0.0,0.0,0.0,0.0,0.0,0.0,0.0,0.0,0.0,0.0,0.0,0.0,0.0,0.0,0.0,0.0,0.0,0.0,0.0,0.0,0.0,0.0,0.0,0.0,0.0,0.0,0.0,0.0,0.0,0.0,0.0,0.0,0.0,0.0,0.0,0.0,0.0,0.0,0.0,0.0,0.0,0.0,0.0,0.0,0.0,0.0,0.0,0.0,0.0,0.0,0.0,0.0,0.0,0.0,0.0,0.0,0.0,0.0,0.0,0.0,0.0,0.0,0.0,0.0,0.0,0.0,0.0,0.0,0.0,0.0,0.0,0.0,0.0,0.0,0.0,0.0,0.0,0.0,0.0,0.0,0.0,0.0,0.0,0.0,0.0,0.0,0.0,0.0,0.0,0.0,0.0,0.0,0.0,0.0,0.0,0.0,0.0,0.0,0.0,0.0,0.0,0.0,0.0,0.0,0.0,0.0,0.0,0.0,0.0,0.0,0.0,0.0,0.0,0.0,0.0,0.0,0.0,0.0,0.0,0.0,0.0,0.0,0.0,0.0,0.0,0.0,0.0,0.0,0.0,0.0,0.0,0.0,0.0,0.0,0.0,0.0,0.0,0.0,0.0,0.0,0.0,0.0,0.0,0.0,0.0,0.0,0.0,0.0,0.0,0.0,0.0,0.0,0.0,0.0,0.0,0.0,0.0,0.0,0.0,0.0,0.0,0.0,0.0,0.0,0.0,0.0,0.0,0.0,0.0,0.0,0.0,0.0,0.0,0.0,0.0,0.0,0.0,0.0,0.0,0.0,0.0,0.0,0.0,0.0,0.0,0.0,0.0,0.0,0.0,0.0,0.0,0.0,0.0,0.0,0.0,0.0,0.0,0.0,0.0,0.0,0.0,0.0,0.0,0.0,0.0,0.0,0.0,0.0,0.0,0.0,0.0,0.0,0.0,0.0,0.0,0.0,0.0,0.0,0.0,0.0,0.0,0.0,0.0,0.0,0.0,0.0,0.0,0.0,0.0,0.0,0.0,0.0,0.0,0.0,0.0,0.0,0.0,0.0,0.0,0.0,0.0,0.0,0.0,0.0,0.0,0.0,0.0,0.0,0.0,0.0,0.0,0.0,0.0,0.0,0.0,0.0,0.0,0.0,0.0,0.0,0.0,0.0,0.0,0.0,0.0,0.0,0.0,0.0,0.0,0.0,0.0,0.0,0.0,0.0,0.0,0.0,0.0,0.0,0.0,0.0,0.0,0.0,0.0,0.0,0.0,0.0,0.0,0.0,0.0,0.0,0.0,0.0,0.0,0.0,0.0,0.0,0.0,0.0,0.0,0.0,0.0,0.0,0.0,0.0,0.0,0.0,0.0,0.0,0.0,0.0,0.0,0.0,0.0,0.0,0.0,0.0,0.0,0.0,0.0,0.0,0.0,0.0,0.0,0.0,0.0,0.0,0.0,0.0,0.0,0.0,0.0,0.0,0.0,0.0,0.0,0.0,0.0,0.0,0.0,0.0,0.0,0.0,0.0,0.0,0.0,0.0,0.0,0.0,0.0,0.0,0.0,0.0,0.0,0.0,0.0,0.0,0.0,0.0,0.0,0.0,0.0,0.0,0.0,0.0,0.0,0.0,0.0,0.0,0.0,0.0,0.0,0.0,0.0,0.0,0.0,0.0,0.0,0.0,0.0,0.0,0.0,0.0,0.0,0.0,0.0,0.0,0.0,0.0,0.0,0.0,0.0,0.0,0.0,0.0,0.0,0.0,0.0,0.0,0.0,0.0,0.0,0.0,0.0,0.0,0.0,0.0,0.0,0.0,0.0,0.0,0.0,0.0,0.0,0.0,0.0,0.0,0.0,0.0,0.0,0.0,0.0,0.0,0.0,0.0,0.0,0.0,0.0,0.0,0.0,0.0,0.0,0.0,0.0,0.0,0.0,0.0,0.0,0.0,0.0,0.0,0.0,0.0,0.0,0.0,0.0,0.0,0.0,0.0,0.0,0.0,0.0,0.0,0.0,0.0,0.0,0.0,0.0,0.0,0.0,0.0,0.0,0.0,0.0,0.0,0.0,0.0,0.0,0.0,0.0,0.0,0.0,0.0,0.0,0.0,0.0,0.0,0.0,0.0,0.0,0.0,0.0,0.0,0.0,0.0,0.0,0.0,0.0,0.0,0.0,0.0,0.0,0.0,0.0,0.0,0.0,0.0,0.0,0.0,0.0,0.0,0.0,0.0,0.0,0.0,0.0,0.0,0.0,0.0,0.0,0.0,0.0,0.0,0.0,0.0,0.0,0.0,0.0,0.0,0.0,0.0,0.0,0.0,-4.8798,0.0,0.0,0.0,0.0,0.0,0.0,0.0,0.0,0.0,0.0,0.0,0.0,0.0,0.0,0.0,0.0,0.0,0.0,0.0,0.0,0.0,0.0,0.0,0.0,-3.2532,-3.2815,-3.2516,-3.2555,-3.2598,-3.2629,0.0,0.0,0.0,0.0,0.0,-3.364,-3.3624,-3.3624,-3.364,-3.3878,-3.3878,-3.3624,-3.4374,-3.4988,-3.5442,0.0,0.0,0.0,0.0,0.0,0.0,0.0,0.0,0.0,0.0,0.0,0.0,0.0,0.0,0.0,0.0,0.0,0.0,0.0,0.0,0.0,0.0,0.0,0.0,0.0,0.0,0.0,0.0,0.0,0.0,0.0,0.0,0.0,0.0,0.0,0.0,0.0,0.0,0.0,0.0,0.0,0.0,0.0,0.0,0.0,0.0,0.0,0.0,0.0,0.0,0.0,0.0,0.0,0.0,0.0,0.0,0.0,0.0,0.0,0.0,0.0,0.0,0.0,0.0,0.0,0.0,0.0,0.0,0.0,0.0,0.0,-4.8447,0.0,0.0,0.0,0.0,0.0,0.0,0.0,0.0,0.0,0.0,0.0,0.0,0.0,0.0,0.0,0.0,0.0,0.0,0.0,0.0,0.0,-3.2035,-3.1524,-3.1938,-3.2051,-3.1524,-3.1511,-3.1726,-3.2203,-3.2652,0.0,0.0,0.0,-3.3407,-3.2734,-3.305,-3.3066,-3.2749,-3.3066,-3.3287,-3.3391,-3.3417,-3.3786,-3.4455,-3.522,0.0,0.0,0.0,0.0,0.0,0.0,0.0,0.0,0.0,0.0,0.0,0.0,0.0,0.0,0.0,0.0,0.0,0.0,0.0,0.0,0.0,0.0,0.0,0.0,0.0,0.0,0.0,0.0,0.0,0.0,0.0,0.0,0.0,0.0,0.0,0.0,0.0,0.0,0.0,0.0,0.0,0.0,0.0,0.0,0.0,0.0,0.0,0.0,0.0,0.0,0.0,0.0,0.0,0.0,0.0,0.0,0.0,0.0,0.0,0.0,0.0,0.0,0.0,-4.6095,-4.617,-4.6271,-4.6298,-4.63,-4.6339,-4.7061,-4.7744,-4.831,-4.7647,0.0,0.0,0.0,0.0,0.0,0.0,0.0,0.0,0.0,0.0,0.0,0.0,0.0,0.0,0.0,0.0,0.0,0.0,0.0,-3.1553,-3.1351,-3.1496,-3.1582,-3.1511,-3.1511,-3.1524,-3.1611,-3.1682,-3.1739,-3.1739,-3.1824,-3.2035,-3.2437,-3.2007,-3.2007,-3.2437,-3.2007,-3.2035,-3.2574,-3.2668,-3.2788,-3.2922,-3.3608,-3.3987,-3.4112,0.0,0.0,0.0,0.0,0.0,0.0,0.0,0.0,0.0,0.0,0.0,0.0,0.0,0.0,0.0,0.0,0.0,0.0,0.0,0.0,0.0,0.0,0.0,0.0,0.0,0.0,0.0,0.0,0.0,0.0,0.0,0.0,0.0,0.0,0.0,0.0,0.0,0.0,0.0,0.0,0.0,-4.4763,-4.48,0.0,0.0,0.0,0.0,0.0,0.0,0.0,0.0,0.0,0.0,0.0,0.0,0.0,-4.5728,-4.5728,-4.5838,-4.591,-4.5925,-4.6049,-4.6105,-4.6135,-4.6245,-4.63,-4.63,-4.6417,0.0,-4.6612,-4.6515,0.0,0.0,0.0,0.0,0.0,0.0,0.0,0.0,0.0,0.0,0.0,0.0,0.0,0.0,0.0,0.0,0.0,0.0,0.0,0.0,0.0,-3.1249,-3.1278,-3.1278,-3.1278,-3.1278,-3.1278,-3.1552,-3.1581,-3.1278,-3.1552,-3.1737,-3.1781,-3.1438,-3.1438,-3.1781,-3.1509,-3.1567,-3.191,-3.1951,-3.1979,-3.1979,-3.2284,-3.2891,-3.3684,-3.3761,0.0,0.0,0.0,0.0,0.0,0.0,0.0,0.0,0.0,0.0,0.0,0.0,0.0,0.0,0.0,0.0,0.0,0.0,0.0,0.0,0.0,0.0,0.0,0.0,0.0,0.0,0.0,0.0,0.0,0.0,0.0,0.0,0.0,0.0,0.0,0.0,0.0,0.0,0.0,-4.4087,-4.4402,-4.4559,-4.4831,-4.5098,0.0,0.0,0.0,0.0,0.0,0.0,0.0,0.0,0.0,-4.541,-4.5493,-4.5563,-4.5588,-4.5658,-4.5742,-4.5841,-4.5894,-4.5983,-4.6102,-4.615,-4.6238,-4.63,-4.63,-4.63,-4.63,-4.63,-4.63,-4.63,0.0,0.0,0.0,0.0,-4.63,-4.63,0.0,0.0,0.0,0.0,0.0,0.0,0.0,0.0,0.0,0.0,0.0,0.0,-3.1014,-3.1087,-3.1117,-3.1117,-3.1117,-3.1117,-3.1117,-3.1451,-3.1508,-3.1102,-3.1495,-3.1566,-3.1263,-3.1161,-3.1132,-3.1234,-3.1234,-3.1292,-3.1395,-3.1395,-3.1424,-3.1438,-3.1438,-3.2076,-3.3145,-3.3145,-3.3209,-3.3339,0.0,0.0,0.0,0.0,0.0,0.0,0.0,0.0,0.0,0.0,0.0,0.0,0.0,0.0,0.0,0.0,0.0,0.0,0.0,0.0,0.0,0.0,0.0,0.0,0.0,0.0,0.0,0.0,0.0,0.0,0.0,0.0,0.0,0.0,0.0,0.0,0.0,-4.3798,-4.4091,-4.4374,-4.4637,-4.4934,0.0,0.0,0.0,0.0,0.0,0.0,-4.54,-4.54,-4.54,-4.5361,-4.54,-4.5419,-4.5467,-4.5476,-4.5556,-4.5715,-4.5752,-4.5866,-4.6016,-4.6041,-4.6102,-4.6206,-4.6221,-4.6245,-4.6247,-4.6296,-4.63,-4.63,-4.63,-4.63,-4.63,-4.63,-4.63,-4.63,0.0,0.0,0.0,0.0,0.0,0.0,0.0,0.0,0.0,0.0,0.0,-3.1014,-3.0821,-3.0984,-3.1117,-3.1117,-3.1117,-3.1117,-3.1117,-3.1132,-3.1132,-3.1117,-3.1132,-3.1132,-3.1102,-3.1102,-3.1117,-3.1102,-3.1102,-3.1102,-3.1102,-3.1102,-3.119,-3.1307,-3.1307,-3.1524,-3.1898,-3.1898,-3.1968,-3.2094,-3.2094,0.0,0.0,0.0,0.0,0.0,0.0,0.0,0.0,0.0,0.0,0.0,0.0,0.0,0.0,0.0,0.0,0.0,0.0,0.0,0.0,0.0,0.0,0.0,0.0,0.0,0.0,0.0,0.0,0.0,0.0,0.0,0.0,0.0,0.0,0.0,0.0,0.0,0.0,-4.4374,-4.4637,0.0,0.0,0.0,0.0,-4.5379,-4.5408,-4.5408,-4.5408,-4.5408,-4.5369,-4.5317,-4.5359,-4.5389,-4.5389,-4.54,-4.5438,-4.5522,-4.5634,-4.574,-4.5815,-4.5881,-4.5915,-4.5925,-4.6053,-4.6105,-4.6112,-4.6245,-4.63,-4.63,-4.63,-4.63,-4.63,-4.63,-4.63,-4.63,0.0,0.0,0.0,0.0,0.0,-3.0791,-3.0791,-3.0791,-3.0762,-3.0672,-3.0732,-3.0762,-3.0672,-3.0612,-3.0598,-3.0598,-3.0598,-3.0598,-3.0598,-3.0702,-3.0791,-3.0791,-3.0791,-3.0791,-3.0791,-3.0866,-3.0925,-3.0925,-3.0925,-3.0984,-3.1117,-3.1117,-3.1132,-3.1161,-3.1161,-3.122,-3.1351,-3.1539,-3.1727,-3.187,-3.187,-3.1912,0.0,0.0,0.0,0.0,0.0,0.0,0.0,0.0,0.0,0.0,0.0,0.0,0.0,0.0,0.0,0.0,0.0,0.0,0.0,0.0,0.0,0.0,0.0,0.0,0.0,0.0,0.0,0.0,0.0,0.0,0.0,0.0,0.0,0.0,0.0,0.0,0.0,-4.4106,-4.4388,0.0,-4.4946,-4.5173,-4.5307,-4.5328,-4.5328,-4.5328,-4.5328,-4.5328,-4.5328,-4.5307,-4.5317,-4.5597,-4.6164,-4.6165,-4.6482,-4.7107,-4.7165,-4.7227,-4.7275,-4.7291,-4.7061,-4.6614,-4.6655,-4.6385,-4.591,-4.5969,-4.6102,-4.63,-4.6294,-4.6294,-4.63,-4.63,-4.63,-4.63,0.0,0.0,0.0,-3.0612,-3.0598,-3.0568,-3.0507,-3.0507,-3.0477,-3.0431,-3.0431,-3.0431,-3.0431,-3.0296,-3.0235,-3.0235,-3.0235,-3.0235,-3.0235,-3.0387,-3.0507,-3.0507,-3.0568,-3.0598,-3.0598,-3.0702,-3.0732,-3.0732,-3.0732,-3.0791,-3.0925,-3.0925,-3.0955,-3.0984,-3.0984,-3.1043,-3.1117,-3.1278,-3.1482,-3.1641,-3.167,-3.1741,-3.1855,0.0,0.0,0.0,0.0,0.0,0.0,0.0,0.0,0.0,0.0,0.0,0.0,0.0,0.0,0.0,0.0,0.0,0.0,0.0,0.0,0.0,0.0,0.0,0.0,0.0,0.0,0.0,0.0,0.0,0.0,0.0,0.0,0.0,0.0,0.0,-4.36,-4.3958,-4.4166,-4.4416,-4.4763,-4.5011,-4.5184,-4.5297,-4.5545,-4.5698,-4.5698,-4.5984,-4.6137,-4.6137,-4.6137,-4.6426,-4.6993,-4.6993,-4.732,-4.7966,-4.7966,-4.8009,-4.8075,-4.8075,-4.779,-4.7345,-4.7359,-4.6904,-4.6163,-4.6203,-4.6187,-4.6138,-4.6189,-4.6231,-4.6271,-4.6271,-4.6273,-4.6296,0.0,-3.0702,-3.0598,-3.0598,-3.0598,-3.0538,-3.0312,-3.0282,-3.0266,-3.0111,-3.008,-3.008,-3.008,-3.008,-3.008,-3.008,-3.008,-3.008,-3.008,-3.0219,-3.0282,-3.0282,-3.0477,-3.0568,-3.0568,-3.0568,-3.0568,-3.0568,-3.0568,-3.0582,-3.0598,-3.0598,-3.0672,-3.0791,-3.0791,-3.0895,-3.1087,-3.1087,-3.1161,-3.1292,-3.1438,-3.1511,-3.1511,0.0,0.0,0.0,0.0,0.0,0.0,0.0,0.0,0.0,0.0,0.0,0.0,0.0,0.0,0.0,0.0,0.0,0.0,0.0,0.0,0.0,0.0,0.0,0.0,0.0,0.0,0.0,0.0,0.0,0.0,0.0,0.0,0.0,-4.3394,-4.3394,-4.355,-4.3942,-4.3989,-4.4192,-4.4714,-4.4807,-4.4972,-4.5295,-4.608,-4.6538,-4.6538,-4.733,-4.7788,-4.7788,-4.7788,-4.7807,-4.7845,-4.7845,-4.7898,-4.7971,-4.7971,-4.8012,-4.8064,-4.8064,-4.8064,-4.8036,-4.8094,-4.7673,-4.6937,-4.6996,-4.6551,-4.5834,-4.5954,-4.6084,-4.6184,-4.6184,-4.6233,-4.6306,-3.0642,-3.0642,-3.0598,-3.0598,-3.0598,-3.0538,-3.0312,-3.0282,-3.0266,-3.0111,-3.008,-3.008,-3.008,-2.9974,-2.9884,-2.9884,-2.9884,-2.9884,-2.9884,-3.0052,-3.0158,-3.0158,-3.0203,-3.0233,-3.0233,-3.0233,-3.0233,-3.0233,-3.0233,-3.028,-3.0387,-3.0387,-3.0477,-3.0642,-3.0642,-3.0702,-3.0732,-3.0821,-3.0881,-3.0969,-3.1234,-3.1351,-3.138,0.0,0.0,0.0,0.0,0.0,0.0,0.0,0.0,0.0,0.0,0.0,0.0,0.0,0.0,0.0,0.0,0.0,0.0,0.0,0.0,0.0,0.0,0.0,0.0,0.0,0.0,0.0,0.0,0.0,0.0,0.0,0.0,-4.3178,-4.3376,-4.3394,-4.3464,-4.3615,-4.3862,-4.4048,-4.421,-4.5151,-4.5778,-4.587,-4.6839,-4.7444,-4.7444,-4.7674,-4.7788,-4.7788,-4.7788,-4.8105,-4.8735,-4.8735,-4.9033,-4.9637,-4.9637,-4.9648,-4.9679,-4.9679,-4.9354,-4.881,-4.8826,-4.833,-4.7545,-4.7577,-4.7165,-4.6483,-4.6035,-4.5934,-4.6053,-4.6053,-4.6131,-4.6233,-3.0598,-3.0598,-3.0598,-3.0598,-3.0538,-3.0417,-3.0235,-3.0129,-3.0038,-2.9927,-2.9896,-2.9896,-2.9896,-2.9789,-2.9713,-2.9713,-2.9713,-2.9713,-2.9713,-2.9867,-3.0005,-3.008,-3.008,-3.008,-3.008,-3.008,-3.008,-3.008,-3.0337,-3.0528,-3.0606,-3.0833,-3.1087,-3.1257,-3.1257,-3.1159,-3.0974,-3.1065,-3.095,-3.0732,-3.0999,-3.1161,-3.1307,-3.138,-3.1438,-3.1511,-3.1626,-3.2119,-3.2765,-3.329,0.0,0.0,0.0,0.0,0.0,0.0,0.0,0.0,0.0,0.0,0.0,0.0,0.0,0.0,0.0,0.0,0.0,0.0,0.0,0.0,0.0,0.0,0.0,0.0,-4.2318,-4.2843,-4.3215,-4.3269,-4.3305,-4.3428,-4.3928,-4.4315,-4.4491,-4.5548,-4.6262,-4.6385,-4.7492,-4.8141,-4.8141,-4.859,-4.885,-4.885,-4.885,-4.9098,-4.9595,-4.9595,-4.9843,-5.0302,-5.0302,-5.0302,-5.0302,-5.0302,-5.0034,-4.9595,-4.9595,-4.9117,-4.8334,-4.8334,-4.7895,0.0,0.0,0.0,0.0,0.0,-4.608,-4.6198,-3.0598,-3.0598,-3.0598,-3.0568,-3.0417,-3.0266,-3.0111,-2.9915,-2.9761,-2.9634,-2.9602,-2.9602,-2.9602,-2.9602,-2.9602,-2.9602,-2.9602,-2.9602,-2.9602,-2.9699,-2.9867,-3.005,-3.005,-3.005,-3.005,-3.005,-3.005,-3.005,-3.0646,-3.0945,-3.0991,-3.1586,-3.1982,-3.2177,-3.2177,-3.1957,-3.1565,-3.1524,-3.1161,-3.0714,-3.0761,-3.0969,-3.1263,-3.1263,-3.1351,-3.1467,-3.1467,-3.1884,-3.2422,-3.269,0.0,0.0,0.0,0.0,0.0,0.0,0.0,0.0,0.0,0.0,0.0,0.0,0.0,0.0,0.0,0.0,0.0,0.0,0.0,0.0,0.0,0.0,0.0,0.0,-4.2136,-4.2414,-4.3045,-4.3176,-4.3287,-4.3487,-4.4218,-4.4856,-4.5212,-4.6019,-4.6613,-4.6858,-4.8004,-4.8675,-4.8675,0.0,0.0,0.0,0.0,-5.0302,-5.0302,-5.0302,-5.0302,-5.0302,-5.0302,-5.0302,-5.0302,-5.0302,-5.0302,-5.0302,-5.0302,-4.9882,-4.9243,-4.9243,-4.8735,-4.7879,-4.7098,-4.6392,-4.5838,-4.5925,-4.6035,-4.6141,-3.0687,-3.0598,-3.0538,-3.0387,-3.0312,-3.019,-2.9915,-2.9822,-2.9761,-2.9634,-2.9602,-2.9602,-2.9602,-2.9602,-2.9602,-2.9602,-2.9602,-2.9602,-2.9602,-2.9634,-2.9665,-2.971,-2.971,-2.971,-2.971,-2.971,-2.971,-2.971,-3.0284,-3.069,-3.0864,-3.1456,-3.1805,-3.195,-3.195,-3.2008,-3.2025,-3.1553,-3.1344,-3.1293,-3.0816,-3.0732,-3.091,-3.1073,-3.122,-3.1351,-3.1351,-3.1498,-3.178,-3.2362,-3.2841,-3.3366,-3.4407,0.0,0.0,0.0,0.0,0.0,0.0,0.0,0.0,0.0,0.0,0.0,0.0,0.0,0.0,0.0,0.0,0.0,0.0,0.0,0.0,-4.1042,-4.1696,-4.2471,-4.3235,-4.3684,-4.3974,-4.4181,-4.491,-4.544,-4.5516,-4.6595,-4.7318,-4.7367,-4.8484,-4.9149,-4.9149,-4.964,-4.9903,-4.9903,-5.0156,-5.0302,-5.0302,-5.0302,-5.0302,-5.0302,0.0,0.0,-5.0302,-5.0302,-5.0302,-5.0302,-5.0302,-5.0206,-5.0073,-5.0073,-4.9595,-4.87,-4.7348,-4.6719,-4.6521,-4.5947,-4.5777,-4.5802,-3.1234,-3.0807,-3.0538,-3.0357,-3.0235,-3.0113,-2.9839,-2.973,-2.9682,-2.9602,-2.9602,-2.9602,-2.9602,-2.9602,-2.9602,-2.9602,-2.9602,-2.9602,-2.9602,-2.9602,-2.9602,-2.9602,-2.9602,-2.9602,-2.9602,-2.9602,-2.9602,-2.9602,-3.0544,-3.104,-3.1166,-3.2083,-3.2588,-3.2757,-3.2757,-3.2687,-3.251,-3.1911,-3.1547,-3.1327,-3.0707,-3.0538,-3.0732,-3.0895,-3.1043,-3.122,-3.1292,-3.1351,-3.1453,-3.1855,-3.2272,-3.2751,-3.3396,-3.4119,-3.4815,0.0,0.0,0.0,0.0,0.0,0.0,0.0,0.0,0.0,0.0,0.0,0.0,0.0,0.0,-4.0096,-4.0096,0.0,-4.0531,-4.0754,-4.1516,-4.2268,-4.2917,-4.4096,-4.4908,-4.4941,-4.5653,-4.6163,-4.6204,-4.7129,-4.7758,-4.7758,-4.8522,-4.9001,-4.9001,-4.9348,-4.9541,-4.9541,-4.9716,-4.9803,-4.9803,-4.9968,-5.0051,-5.0051,-5.0224,-5.0302,-5.0302,-5.0302,-5.0302,-5.0302,-5.0302,-5.0302,-5.0302,-5.0302,-5.0054,-4.9568,-4.8416,-4.7492,-4.6759,-4.6392,-4.6024,-4.5703,-3.2081,-3.1279,-3.0657,-3.0326,-3.0158,-3.0005,-2.9792,-2.9651,-2.9602,-2.9602,-2.9602,-2.9602,-2.9602,-2.9602,-2.9602,-2.9602,-2.9602,-2.9602,-2.9602,-2.9602,-2.9602,-2.9602,-2.9602,-2.9602,-2.9602,-2.9602,-2.9602,-2.9602,-3.0881,-3.1485,-3.1527,-3.275,-3.3396,-3.3536,-3.3536,-3.3285,-3.2815,-3.2207,-3.169,-3.1217,-3.0555,-3.0417,-3.0568,-3.0702,-3.0895,-3.1043,-3.1176,-3.1234,-3.1292,-3.1409,-3.1825,-3.2288,-3.2452,-3.3245,-3.4174,-3.4539,-3.5038,0.0,0.0,0.0,0.0,0.0,0.0,0.0,0.0,0.0,-3.9875,-3.9875,-3.9935,-4.002,-4.0062,-4.0062,-4.0247,-4.0793,-4.1454,-4.2178,-4.2969,-4.4599,-4.5821,-4.6112,-4.659,-4.6993,-4.7201,-4.7678,-4.8063,-4.8209,-4.8418,-4.8587,-4.8605,-4.8984,-4.9193,-4.919,-4.9271,-4.9299,-4.9299,-4.957,-4.9702,-4.9702,-5.0051,-5.0212,-5.0212,-5.0278,-5.0302,-5.0302,-5.0302,-5.0302,-5.0302,-5.0302,-5.0302,-5.0245,-4.9595,-4.8482,-4.7213,-4.6868,-4.6371,-4.5827,-3.3316,-3.2201,-3.1146,-3.0249,-3.0111,-2.9988,-2.9665,-2.9602,-2.9602,-2.9602,-2.9602,-2.9602,-2.9602,-2.9602,-2.9602,-2.9602,-2.9602,-2.9602,-2.9602,-2.9602,-2.9602,-2.9602,-2.9602,-2.9602,-2.9602,-2.9602,-2.9602,-2.9602,-3.0881,-3.1485,-3.1527,-3.275,-3.3326,-3.3326,-3.3326,-3.3127,-3.2676,-3.2009,-3.1482,-3.1077,-3.0524,-3.0312,-3.0357,-3.0538,-3.0702,-3.0821,-3.0851,-3.0984,-3.1132,-3.1292,-3.1366,-3.1559,-3.2273,-3.2617,-3.2961,-3.4159,0.0,-3.4775,-3.5404,-3.6445,-3.7517,-3.821,-3.8898,-3.9432,0.0,0.0,-3.9729,-3.9729,-3.9729,-3.9781,-3.9901,-3.9926,-4.018,-4.1018,-4.1568,-4.2566,-4.4447,-4.529,-4.6408,-4.829,-4.7971,-4.7883,-4.859,-4.8224,-4.8213,-4.8904,-4.8411,-4.8131,-4.8247,-4.8587,-4.8799,-4.8849,-4.9145,-4.9299,-4.9299,-4.9348,-4.9363,-4.9363,-4.9702,-4.9857,-4.9857,-5.0156,-5.0302,-5.0302,-5.0302,-5.0302,-5.0302,-5.0302,-5.0302,-5.0283,-5.0206,-4.9618,-4.8665,-4.7087,-4.6477,-4.6306,-3.4156,-3.2938,-3.1898,-3.1365,-3.0613,-3.0005,-2.9775,-2.9651,-2.9602,-2.9602,-2.9602,-2.9602,-2.9602,-2.9602,-2.9602,-2.9602,-2.9602,-2.9602,-2.9602,-2.9602,-2.9602,-2.9602,-2.9602,-2.9602,-2.9602,-2.9602,-2.9602,-2.9602,-3.0761,-3.1329,-3.1343,-3.2522,-3.292,-3.2649,-3.2649,-3.2406,-3.197,-3.1288,-3.0962,-3.0888,-3.0385,-3.0235,-3.0312,-3.0507,-3.0642,-3.0702,-3.0762,-3.0851,0.0,0.0,-3.1234,-3.1366,-3.1707,-3.2109,-3.2617,-3.317,-3.3604,0.0,-3.563,-3.6684,-3.7634,-3.8634,-3.9131,-3.9379,-3.9379,-3.9484,-3.959,-3.959,-3.9668,-3.9729,-3.9875,-3.9901,-4.0188,0.0,-4.1707,-4.2586,-4.3881,-4.5533,-4.6968,-4.7856,-4.8219,-4.8529,-4.8873,-4.8644,-4.8433,-4.8288,-4.8065,-4.7966,-4.8006,-4.819,-4.8307,-4.8327,-4.8477,-4.8568,-4.8658,-4.8779,-4.888,-4.8999,-4.9237,-4.9394,-4.9457,-4.979,-5.0082,-5.0302,-5.0302,-5.0302,-5.0302,-5.0302,-5.0302,-5.0302,-5.0302,-5.0092,-4.9595,-4.7876,-4.694,-4.6385,-3.5229,-3.3898,-3.2869,-3.2507,-3.1308,-3.0312,-3.007,-2.9822,-2.9634,-2.9602,-2.9602,-2.9602,-2.9602,-2.9602,-2.9602,-2.9602,-2.9602,-2.9602,-2.9602,-2.9602,-2.9602,-2.9602,-2.9602,-2.9602,-2.9602,-2.9727,-2.9789,-2.9789,-3.0852,-3.1404,-3.1418,-3.2447,-3.2723,-3.2402,-3.2402,-3.2108,-3.1567,-3.1084,-3.0911,-3.096,-3.0665,-3.0523,-3.0569,-3.0762,-3.0747,-3.0598,-3.0702,-3.0732,0.0,0.0,-3.1073,-3.1176,-3.1234,-3.1678,-3.2258,-3.2617,-3.3364,-3.4438,-3.6193,-3.7033,-3.7722,-3.8969,-3.9299,-3.9299,-3.9299,-3.9395,-3.9432,-3.9432,-3.9511,-3.9625,-3.9772,-3.9798,-4.0152,-4.1278,-4.1895,-4.2736,-4.4051,-4.5891,-4.7297,-4.7828,-4.8532,-4.8982,-4.8982,-4.8735,-4.842,-4.8058,-4.7925,-4.7861,-4.7881,-4.7966,-4.799,-4.7992,-4.7992,-4.805,-4.813,-4.8289,-4.844,-4.8568,-4.876,-4.8913,-4.9017,-4.9348,-4.9735,-5.0107,-5.0107,-5.0163,-5.0243,-5.0267,-5.0278,-5.0278,-5.029,-5.0302,-5.013,-4.8697,-4.7608,-4.6748,-3.6725,-3.5332,-3.4054,-3.3463,-3.2158,-3.1043,-3.0719,-3.0178,-2.9761,-2.9634,-2.9602,-2.9602,-2.9602,-2.9602,-2.9602,-2.9602,-2.9602,-2.9602,-2.9602,-2.9602,-2.9602,-2.9602,-2.9602,-2.9602,-2.9602,-3.0052,-3.0282,-3.0282,-3.133,-3.1895,-3.188,-3.2586,-3.291,-3.2878,-3.2878,-3.2511,-3.1894,-3.188,-3.1648,-3.1407,-3.158,-3.145,-3.1189,-3.1393,-3.1117,-3.0598,-3.0598,0.0,0.0,0.0,-3.0791,-3.0851,-3.1043,-3.1205,0.0,-3.2897,-3.4286,-3.5705,-3.701,-3.7383,-3.7722,-3.8969,-3.9299,-3.9299,-3.9299,-3.9299,-3.9299,-3.9299,-3.9299,-3.9352,-3.9501,-3.9528,-4.0074,-4.1782,-4.2088,-4.3119,-4.6013,-4.6466,-4.7261,-4.9196,-4.9295,-4.9192,0.0,-4.8321,-4.804,-4.88,-4.8152,-4.7759,-4.7881,-4.7902,-4.7925,-4.7992,-4.7992,-4.7992,-4.8012,-4.8012,-4.8032,-4.8032,-4.8365,-4.8513,-4.8531,-4.8861,-4.9237,-4.9612,-4.9612,-4.98,-5.0108,-5.0182,-5.02,-5.02,-5.0278,-5.0302,-5.0206,-4.9366,-4.8506,-4.7635,-3.6076,-3.5,-3.4227,-3.3937,-3.2835,-3.2046,-3.221,-3.0837,-2.9777,-2.973,-2.9929,0.0,0.0,0.0,0.0,0.0,-2.9602,-2.9602,-2.9602,-2.9602,-2.9602,-2.9602,-2.9898,-3.0052,-3.0052,-3.0523,-3.0762,-3.0762,-3.1456,-3.1765,-3.1765,-3.2311,-3.2387,-3.2109,-3.2109,-3.1812,-3.1279,-3.1279,-3.125,-3.1175,-3.1551,-3.1622,-3.1564,-3.1964,-3.1709,-3.1204,0.0,0.0,0.0,0.0,0.0,0.0,-3.0895,0.0,0.0,-3.2955,-3.4222,-3.5508,-3.6485,-3.7355,-3.821,-3.9094,-3.9299,-3.9299,-3.9299,-3.9299,-3.9299,-3.9299,-3.9299,-3.9475,-4.0107,-3.9834,-4.0214,-4.2361,-4.2305,-4.2852,-4.5416,-4.6537,-4.7569,-4.8865,-4.8811,0.0,0.0,0.0,0.0,-4.8113,-4.7862,-4.7717,-4.7759,-4.7759,-4.778,-4.7804,-4.7804,-4.7845,-4.7925,-4.7845,-4.7868,-4.7992,-4.8072,-4.823,-4.844,-4.8549,-4.8812,-4.919,-4.919,-4.9427,-4.9773,-4.98,-4.994,-5.0145,-5.0158,-5.017,-5.0132,-4.9865,-4.8898,-4.7629,0.0,-3.5253,-3.4669,-3.4596,-3.3535,0.0,0.0,0.0,0.0,0.0,0.0,0.0,0.0,0.0,0.0,0.0,0.0,-2.9929,-3.0083,-2.9929,-2.9929,-3.0083,-3.0372,-3.0553,-3.0553,-3.0999,-3.1263,-3.1263,-3.1724,-3.1951,-3.1951,-3.2259,-3.2231,-3.1951,-3.1951,-3.1781,-3.1508,-3.1508,-3.1701,-3.204,-3.2224,-3.2338,-3.2466,-3.2624,-3.2339,0.0,0.0,0.0,0.0,0.0,0.0,0.0,0.0,0.0,-3.3092,-3.3648,-3.4744,-3.5965,-3.6735,-3.7559,-3.8395,-3.9023,-3.9245,-3.9299,-3.9299,-3.9299,-3.9299,-3.9299,-3.9299,-3.9475,-4.0037,-3.9737,-4.009,-4.2206,-4.2356,-4.3048,-4.5387,-4.6721,-4.7716,-4.8287,-4.8228,-4.8146,0.0,0.0,0.0,-4.7693,-4.7717,-4.7717,-4.7717,-4.7717,-4.7717,-4.7717,-4.7717,-4.7738,-4.784,-4.7738,-4.7762,-4.7888,-4.7842,-4.7947,-4.8153,-4.8153,-4.8365,-4.8744,-4.8744,-4.8965,-4.9324,-4.9336,-4.955,-4.9887,-4.9914,-4.9999,-5.0095,-5.0095,-4.9257,-4.8017,0.0,0.0,-3.5352,0.0,0.0,0.0,0.0,0.0,0.0,0.0,0.0,0.0,0.0,0.0,0.0,0.0,0.0,0.0,-3.097,-3.0583,-3.0523,-3.097,-3.1029,-3.1029,-3.1029,-3.1495,-3.1739,-3.1739,-3.2176,-3.2398,-3.2398,-3.2398,-3.2398,-3.2398,-3.2398,-3.2398,-3.2398,-3.2425,-3.2977,-3.3826,-3.3455,-3.3496,-3.3748,-3.3398,-3.2922,0.0,0.0,0.0,0.0,0.0,0.0,0.0,-3.2169,-3.3562,-3.4787,-3.4956,-3.5891,-3.7087,-3.7725,-3.803,-3.827,-3.886,-3.9148,-3.9299,-3.9299,-3.9299,-3.9299,-3.9299,-3.9299,-3.9315,0.0,0.0,-3.9833,-4.1433,-4.2299,-4.3589,-4.5842,-4.6999,-4.7564,0.0,0.0,0.0,0.0,0.0,0.0,-4.7533,0.0,-4.7657,-4.7717,-4.7717,-4.7717,-4.7717,-4.7717,-4.7717,-4.7717,-4.7717,-4.7717,-4.7717,-4.7717,-4.7717,-4.7717,-4.7717,-4.7909,-4.8267,-4.8267,-4.8458,-4.8781,-4.8847,-4.9097,-4.9465,-4.9539,-4.9759,-5.005,-5.005,-4.9569,-4.8763,0.0,0.0,0.0,0.0,0.0,0.0,0.0,0.0,0.0,0.0,0.0,0.0,0.0,0.0,0.0,0.0,0.0,0.0,-3.0999,-3.0881,-3.0881,-3.0999,-3.1321,-3.1523,-3.1523,-3.1979,-3.2231,-3.2231,-3.2342,-3.2398,-3.2398,-3.2398,-3.2398,-3.2398,-3.2398,-3.2398,-3.2425,-3.2676,-3.2909,-3.3185,-3.3477,-3.365,-3.3752,-3.3845,-3.3517,-3.3065,0.0,0.0,0.0,0.0,0.0,0.0,0.0,-3.4911,-3.5355,-3.6045,0.0,-3.7488,-3.7812,-3.8258,-3.8678,-3.8942,-3.9023,-3.9121,-3.9272,-3.9299,-3.9299,-3.9299,-3.9299,-3.9481,0.0,0.0,0.0,-4.1249,-4.2112,0.0,-4.4323,-4.6118,0.0,-4.6686,0.0,-4.6547,-4.6309,-4.5725,0.0,0.0,-4.6886,-4.728,-4.7678,-4.7717,-4.7717,-4.7717,-4.7717,-4.7717,-4.7717,-4.7717,-4.7717,-4.7717,-4.7717,-4.7717,-4.7717,-4.7717,-4.7762,-4.7866,-4.7866,-4.8072,-4.8439,-4.8439,-4.8658,-4.8986,-4.9003,-4.9249,-4.9577,-4.9577,-4.9272,-4.8701,0.0,0.0,0.0,0.0,0.0,0.0,0.0,0.0,0.0,0.0,0.0,0.0,0.0,0.0,0.0,0.0,0.0,0.0,0.0,-3.1823,-3.1737,-3.1824,-3.2094,-3.2163,-3.2007,-3.2259,-3.2398,-3.2398,-3.2398,-3.2398,-3.2398,-3.2551,-3.2621,-3.2605,-3.2742,-3.2796,-3.2823,-3.2989,-3.3258,0.0,0.0,-3.3886,-3.4158,-3.4468,-3.4359,-3.418,0.0,0.0,0.0,0.0,0.0,-3.4774,-3.5257,-3.5795,-3.6361,-3.6857,0.0,-3.7972,-3.8103,-3.8403,-3.8738,-3.8887,-3.8942,-3.905,-3.9245,-3.9299,-3.9299,-3.9299,-3.9299,0.0,-3.9846,-3.958,0.0,0.0,0.0,0.0,-4.363,-4.5466,-4.6443,0.0,-4.5775,0.0,-4.5303,-4.4973,-4.5001,0.0,-4.643,-4.7039,-4.7323,-4.7554,-4.7717,-4.7717,-4.7717,-4.7717,-4.7717,-4.7717,-4.7717,-4.7717,-4.7717,-4.7717,-4.7717,-4.7717,-4.7717,-4.7717,0.0,-4.7824,-4.805,-4.805,-4.8249,-4.8568,-4.8568,-4.88,-4.9139,-4.9139,-4.8999,-4.8648,0.0,0.0,0.0,0.0,0.0,0.0,0.0,0.0,0.0,0.0,-3.2776,-3.2888,0.0,0.0,0.0,0.0,0.0,0.0,0.0,0.0,-3.2753,-3.2951,-3.2951,-3.2827,-3.2535,-3.2535,-3.2535,-3.2535,-3.2547,-3.2602,-3.2602,-3.2931,-3.3069,-3.3016,-3.3266,-3.3346,-3.3309,-3.3319,-3.371,-3.42,-3.3872,-3.4152,-3.4803,0.0,0.0,0.0,0.0,0.0,0.0,0.0,-3.6994,-3.6371,-3.5925,-3.6601,-3.7535,-3.7535,-3.7931,-3.8391,-3.8391,-3.8476,-3.8616,-3.875,-3.8887,-3.9023,-3.9245,-3.9299,-3.9299,-3.9299,0.0,-3.9299,-3.9299,-3.9299,-3.9514,-4.016,0.0,-4.2572,-4.3218,-4.4809,-4.5616,-4.482,-4.497,-4.4855,-4.4152,-4.4184,-4.4463,-4.4937,-4.6,-4.6683,-4.6776,-4.7236,-4.7511,-4.7593,-4.7657,-4.7717,-4.7717,-4.7717,-4.7717,-4.7717,-4.7717,-4.7717,-4.7717,-4.7717,-4.7717,-4.7717,-4.7717,-4.7717,-4.7717,-4.7717,-4.7927,-4.8209,-4.8209,-4.8421,-4.8729,-4.8729,-4.8764,-4.8627,0.0,0.0,0.0,0.0,0.0,0.0,0.0,0.0,0.0,0.0,-3.3781,-3.3461,0.0,0.0,0.0,0.0,0.0,0.0,0.0,0.0,0.0,-3.3229,-3.3229,-3.3187,-3.316,-3.3134,-3.3134,-3.3134,-3.3413,-3.3553,-3.3578,-3.3969,-3.3969,-3.3646,-3.3697,-3.3559,-3.3293,-3.3529,-3.3696,-3.3818,-3.3972,-3.4461,-3.5117,0.0,0.0,0.0,0.0,0.0,-3.8051,-3.8165,-3.7725,-3.721,-3.7705,-3.8051,-3.8221,-3.8221,-3.8307,-3.8391,-3.8391,-3.842,-3.8504,-3.8722,-3.8832,-3.8914,-3.9245,-3.9299,0.0,0.0,-3.9299,-3.9299,-3.9299,-3.9299,-3.9348,-3.9481,-4.0663,-4.1657,-4.1744,0.0,-4.4666,0.0,0.0,0.0,0.0,0.0,0.0,0.0,0.0,-4.5537,-4.6196,-4.6334,-4.659,-4.7022,-4.7468,-4.7717,-4.7717,-4.7717,-4.7717,-4.7717,-4.7717,-4.7717,-4.7717,-4.7717,-4.7717,-4.7717,-4.7717,0.0,-4.7717,-4.7717,-4.7741,-4.7804,-4.7804,-4.8032,-4.8383,-4.8383,-4.855,-4.8667,0.0,0.0,0.0,0.0,0.0,0.0,0.0,-3.4691,-3.4594,-3.4594,-3.4325,-3.405,-3.3848,-3.3745,-3.3736,0.0,0.0,0.0,0.0,0.0,0.0,0.0,0.0,0.0,0.0,-3.3309,0.0,0.0,0.0,-3.3748,-3.4119,0.0,0.0,0.0,0.0,-3.4448,-3.4292,-3.4234,-3.4226,-3.4226,0.0,0.0,0.0,0.0,0.0,0.0,0.0,0.0,-3.8391,-3.8391,-3.8165,-3.7938,-3.8294,-3.8391,-3.8391,-3.8391,-3.8391,-3.8391,-3.8391,-3.8448,-3.856,-3.875,-3.886,-3.8969,-3.9245,0.0,0.0,0.0,-3.9299,-3.9299,-3.9299,-3.9299,0.0,-3.9299,-4.021,-4.0994,-4.1331,0.0,0.0,0.0,0.0,0.0,0.0,0.0,0.0,0.0,0.0,-4.4801,-4.5537,-4.59,-4.6238,-4.6478,-4.6999,-4.7151,-4.6863,-4.7129,-4.7129,-4.6863,-4.7151,-4.728,-4.728,-4.7575,-4.7717,-4.7717,-4.7717,0.0,-4.7717,-4.7717,-4.7717,-4.7717,-4.7717,-4.7824,-4.799,-4.799,-4.8092,-4.8141,0.0,0.0,0.0,0.0,0.0,0.0,-3.4947,-3.4851,-3.478,-3.4756,-3.4618,-3.4497,-3.4399,-3.4275,-3.4201,0.0,0.0,0.0,0.0,0.0,0.0,0.0,0.0,0.0,0.0,0.0,0.0,0.0,0.0,0.0,0.0,0.0,0.0,0.0,0.0,0.0,0.0,-3.492,-3.4763,0.0,0.0,0.0,0.0,0.0,0.0,0.0,0.0,0.0,-3.8391,0.0,-3.8391,-3.8391,-3.8391,-3.8391,-3.8391,-3.8391,-3.8391,-3.8391,-3.8391,-3.8504,-3.8616,-3.8738,-3.886,-3.9013,-3.9175,-3.9245,0.0,-3.9299,-3.9299,-3.9299,-3.9299,-3.9299,-3.9299,0.0,-3.9796,-4.0409,-4.1094,0.0,0.0,0.0,0.0,0.0,0.0,0.0,0.0,0.0,0.0,0.0,-4.4855,-4.5537,-4.5893,-4.5893,-4.643,-4.6543,-4.6098,-4.6525,-4.6519,-4.6116,-4.6543,-4.673,-4.6753,-4.728,-4.7533,-4.7533,-4.7657,0.0,0.0,-4.7717,-4.7717,-4.7717,-4.7717,-4.7717,-4.7717,-4.7717,-4.7717,-4.765,0.0,0.0,0.0,0.0,0.0,0.0,-3.5088,-3.5065,-3.5018,-3.4899,-3.4763,-3.4667,-3.4667,-3.4546,-3.4448,0.0,0.0,0.0,0.0,0.0,0.0,0.0,0.0,0.0,0.0,0.0,0.0,-3.4618,0.0,0.0,0.0,0.0,0.0,0.0,0.0,0.0,0.0,0.0,0.0,0.0,0.0,0.0,0.0,0.0,0.0,0.0,0.0,0.0,-3.8391,0.0,0.0,-3.8391,-3.8391,-3.8391,-3.8391,-3.8391,0.0,0.0,-3.8391,-3.8504,-3.8588,-3.8616,-3.8711,-3.886,-3.8996,0.0,-3.9094,-3.9272,-3.9299,-3.9299,-3.9299,-3.9299,-3.9299,-3.9299,0.0,-3.9663,-4.0393,0.0,0.0,0.0,0.0,0.0,0.0,0.0,0.0,0.0,0.0,0.0,-4.4184,-4.4828,-4.5188,-4.5188,-4.5825,-4.6165,-4.6098,-4.6165,-4.6165,-4.6098,-4.6165,-4.6172,-4.6189,-4.673,-4.6976,-4.6999,-4.749,0.0,0.0,-4.7717,-4.7717,-4.7717,-4.7717,-4.7717,-4.7717,-4.7717,-4.7717,-4.7699,0.0,0.0,0.0,0.0,0.0,0.0,-3.6186,-3.6034,-3.6125,-3.6793,-3.6767,-3.6797,-3.7126,-3.7035,-3.6303,-3.4636,-3.4448,0.0,0.0,0.0,0.0,0.0,0.0,0.0,0.0,0.0,-3.4546,-3.4947,-3.4818,0.0,0.0,0.0,0.0,0.0,0.0,0.0,0.0,0.0,0.0,0.0,0.0,0.0,0.0,0.0,0.0,0.0,0.0,0.0,-3.8655,-3.8655,0.0,0.0,-3.8504,-3.8448,0.0,0.0,-3.8391,-3.8391,-3.8391,-3.856,-3.8711,-3.8711,-3.8903,-3.9121,-3.9175,-3.9175,-3.9202,-3.9272,-3.9299,-3.9299,-3.9299,-3.9299,-3.9299,-3.9299,0.0,0.0,-4.031,0.0,0.0,0.0,0.0,0.0,0.0,0.0,0.0,0.0,0.0,0.0,-4.3805,-4.4236,-4.4502,-4.4502,-4.5081,-4.5224,-4.491,-4.5214,-4.5214,-4.491,-4.5303,-4.5511,-4.5537,-4.614,-4.643,-4.6454,-4.6994,0.0,0.0,-4.7572,-4.7717,-4.7717,-4.7717,-4.7717,-4.7717,-4.7717,-4.7717,-4.7717,0.0,0.0,0.0,0.0,0.0,-3.7512,-3.8232,-3.8077,-3.819,-3.9009,-3.882,-3.8751,-3.9129,-3.8894,-3.7909,-3.5958,-3.5575,0.0,0.0,0.0,0.0,0.0,0.0,0.0,0.0,0.0,-3.5235,-3.5421,-3.5142,-3.5248,0.0,0.0,0.0,0.0,0.0,0.0,0.0,0.0,0.0,0.0,0.0,0.0,0.0,0.0,0.0,0.0,0.0,0.0,0.0,0.0,0.0,0.0,-3.8616,-3.8448,-3.8262,0.0,-3.8391,-3.8408,-3.8464,-3.8628,-3.8805,-3.8805,-3.886,-3.8958,-3.8958,-3.8788,-3.8678,-3.8733,-3.8733,-3.8788,-3.8969,-3.886,-3.886,-3.9245,0.0,-3.9259,-3.9967,-4.0663,0.0,0.0,0.0,0.0,0.0,0.0,0.0,0.0,0.0,0.0,-4.3598,-4.3835,-4.3981,-4.4056,-4.4463,-4.4474,-4.4097,-4.4474,-4.4474,-4.4097,-4.4586,-4.4801,-4.4828,-4.5511,-4.5775,-4.5792,-4.6358,0.0,0.0,-4.7191,-4.7428,-4.7593,-4.7636,-4.7636,-4.7636,-4.7696,-4.7717,-4.7717,0.0,0.0,0.0,0.0,0.0,-4.0693,-4.1345,-4.1446,-4.1402,-4.1278,-4.0564,-4.0088,-4.0088,-3.9368,-3.8893,-3.8854,-3.806,0.0,0.0,0.0,0.0,0.0,0.0,0.0,-3.6685,-3.6685,-3.6519,-3.6204,-3.6163,-3.6078,-3.5907,-3.6371,-3.6454,-3.6249,0.0,0.0,0.0,0.0,0.0,0.0,0.0,0.0,-3.9255,0.0,0.0,0.0,0.0,0.0,0.0,0.0,0.0,0.0,0.0,-3.829,-3.7972,-3.8307,-3.8391,-3.8436,-3.856,-3.8683,-3.8805,-3.8805,-3.8455,-3.81,-3.81,-3.7621,-3.7175,-3.737,-3.7429,-3.7589,-3.8193,-3.7822,-3.7838,-3.9094,-3.8745,0.0,-3.9218,-3.9945,0.0,0.0,0.0,0.0,0.0,0.0,0.0,0.0,0.0,0.0,-4.3598,-4.3598,-4.3704,-4.3898,-4.4027,-4.4097,-4.4097,-4.4097,-4.4097,-4.4097,-4.4097,-4.4097,-4.4126,-4.4801,-4.5028,0.0,0.0,0.0,0.0,-4.6501,-4.684,-4.732,-4.745,-4.7511,-4.7511,-4.7657,-4.7717,-4.7717,0.0,0.0,0.0,0.0,0.0,0.0,-4.2686,-4.2573,-4.2679,-4.3434,-4.3253,-4.3176,-4.3546,-4.279,-4.198,-4.1293,-3.9163,0.0,0.0,0.0,0.0,0.0,0.0,-3.706,-3.6975,-3.6975,-3.691,-3.6821,-3.6821,-3.6771,-3.674,-3.729,-3.7456,-3.7319,-3.7876,0.0,0.0,0.0,0.0,0.0,0.0,-3.8616,-3.9299,0.0,0.0,0.0,0.0,0.0,0.0,0.0,0.0,0.0,0.0,0.0,0.0,-3.749,-3.7371,-3.7385,-3.7431,-3.7533,-3.7634,-3.7634,-3.7634,-3.7621,-3.7621,-3.7458,-3.7324,-3.7399,-3.7399,-3.7458,-3.7648,-3.7531,-3.7546,-3.794,-3.7838,0.0,0.0,0.0,0.0,0.0,0.0,0.0,0.0,0.0,0.0,0.0,0.0,0.0,-4.3598,-4.3598,-4.3628,-4.3687,-4.3747,-4.3747,-4.3747,-4.3747,-4.3747,-4.3776,-4.391,-4.3969,-4.3969,-4.4281,-4.4406,0.0,0.0,0.0,0.0,-4.58,-4.6286,-4.6753,-4.6799,-4.7039,-4.7363,-4.7407,-4.7446,-4.7446,0.0,0.0,0.0,0.0,0.0,0.0,-4.492,-4.4796,-4.491,-4.5667,-4.5412,-4.5315,-4.5658,-4.4895,-4.3921,-4.2815,-4.1021,0.0,0.0,0.0,0.0,0.0,-3.8388,-3.8363,-3.8093,-3.8068,-3.7935,-3.7669,-3.7669,-3.7519,-3.7261,-3.7807,-3.795,-3.7711,-3.8357,-3.8428,0.0,0.0,0.0,0.0,-3.8652,-3.8874,-3.9299,0.0,0.0,0.0,0.0,0.0,0.0,0.0,0.0,0.0,0.0,0.0,0.0,0.0,-3.6523,-3.6461,-3.686,-3.7041,-3.7131,-3.7175,-3.7131,-3.7011,-3.7011,-3.6845,-3.6662,-3.6662,-3.6662,-3.6753,-3.6981,-3.6768,-3.6738,-3.7221,-3.7101,0.0,0.0,0.0,0.0,0.0,0.0,0.0,0.0,0.0,0.0,0.0,0.0,0.0,-4.3598,-4.3598,-4.3598,-4.3598,-4.3598,-4.3598,-4.3598,-4.3598,-4.3598,-4.3598,-4.3734,-4.3793,-4.3793,-4.3939,-4.3998,0.0,0.0,0.0,0.0,-4.5108,-4.5545,-4.6074,-4.6334,-4.6637,-4.6954,-4.7214,-4.7302,-4.7266,0.0,0.0,0.0,0.0,0.0,0.0,0.0,-4.7717,-4.7717,-4.7717,-4.7065,-4.6595,-4.6595,-4.587,-4.4913,-4.3689,-4.3344,0.0,0.0,0.0,0.0,-3.9729,-4.0137,-4.0162,-3.9703,-3.9703,-3.9368,-3.8673,-3.8673,-3.8321,-3.766,-3.8126,-3.8079,-3.7718,-3.8856,-3.9105,0.0,0.0,0.0,0.0,-3.9352,-3.9299,0.0,0.0,0.0,0.0,0.0,0.0,0.0,0.0,0.0,0.0,0.0,0.0,0.0,0.0,0.0,0.0,0.0,-3.6981,-3.7041,-3.7221,-3.6814,-3.6337,-3.6337,-3.591,0.0,-3.5504,-3.5504,-3.5683,-3.6227,-3.5703,-3.5574,-3.6768,-3.6477,0.0,0.0,0.0,0.0,0.0,0.0,0.0,0.0,0.0,0.0,0.0,0.0,0.0,-4.3598,-4.3598,-4.3598,-4.3598,-4.3598,-4.3598,-4.3598,-4.3598,-4.3598,-4.3598,-4.3598,-4.3598,-4.3598,-4.3793,-4.3763,0.0,0.0,0.0,0.0,-4.4446,-4.4746,-4.5303,-4.5925,-4.6213,-4.631,-4.6994,-4.7178,-4.7034,0.0,0.0,0.0,0.0,0.0,0.0,0.0,0.0,0.0,0.0,-4.7554,-4.7428,-4.7428,-4.6703,-4.5959,0.0,0.0,0.0,0.0,0.0,0.0,-3.9858,-3.9961,-3.9935,-3.9703,-3.9703,-3.962,-3.9452,-3.9452,-3.9352,-3.9184,-3.9387,-3.9387,-3.9184,-3.9682,-3.9792,0.0,0.0,0.0,0.0,-3.9475,-3.9379,0.0,0.0,0.0,0.0,-3.9299,-3.8969,0.0,0.0,0.0,0.0,0.0,0.0,0.0,0.0,-3.5602,-3.5569,-3.5797,0.0,-3.5878,-3.5941,-3.5829,-3.5701,0.0,-3.5587,-3.5504,-3.5504,-3.5504,-3.5537,-3.5683,-3.5409,-3.5311,-3.5606,0.0,0.0,0.0,0.0,0.0,0.0,0.0,0.0,0.0,0.0,0.0,0.0,0.0,-4.3598,-4.3598,-4.3598,-4.3598,-4.3598,-4.3598,-4.3598,-4.3598,-4.3598,-4.3598,-4.3598,-4.3598,-4.3598,-4.3598,-4.3658,-4.3628,0.0,0.0,0.0,-4.3818,-4.3818,-4.4162,-4.4708,-4.4855,-4.5171,-4.5614,-4.6224,-4.6065,-4.5564,0.0,0.0,0.0,0.0,0.0,0.0,0.0,0.0,0.0,0.0,-4.7717,-4.7717,-4.7717,-4.7319,-4.6717,0.0,0.0,0.0,0.0,-4.1495,-4.0849,-4.0028,-4.0196,-4.0196,-3.9884,-3.9867,-3.9867,-3.9867,-3.9867,-3.9867,-3.9884,-3.9961,-3.9961,-3.9884,-4.0037,-4.0062,-3.9986,-3.9858,-3.9746,-3.9668,-3.9616,0.0,0.0,0.0,0.0,0.0,-3.9175,-3.8477,0.0,-3.7737,-3.7032,-3.5968,0.0,0.0,0.0,0.0,-3.525,-3.5504,-3.5504,-3.5504,-3.5504,-3.5504,-3.5504,-3.5504,-3.5504,-3.5504,-3.5415,-3.51,-3.5295,-3.5367,-3.4989,-3.4973,-3.5049,0.0,-3.4883,0.0,0.0,0.0,0.0,0.0,0.0,0.0,0.0,0.0,0.0,0.0,0.0,-4.2648,-4.2648,-4.2974,-4.3143,-4.3143,-4.3432,-4.3598,-4.3598,-4.3598,-4.3598,-4.3598,-4.3598,-4.3598,-4.3598,-4.3598,-4.3598,0.0,0.0,0.0,-4.3598,-4.3598,-4.3789,-4.4121,-4.439,-4.468,-4.4966,-4.5199,-4.5,-4.4572,0.0,0.0,0.0,0.0,0.0,0.0,0.0,0.0,0.0,0.0,0.0,0.0,0.0,0.0,0.0,0.0,0.0,0.0,0.0,-4.1971,-4.1376,-4.0155,-4.0483,-4.0507,-4.0096,-4.0096,-4.0096,-4.0096,-4.0096,-4.0096,-4.0096,-4.0096,-4.0096,-4.0096,-4.0096,-4.0096,-4.0096,-3.9986,-3.9926,-3.9901,-3.9798,0.0,0.0,0.0,0.0,0.0,0.0,0.0,0.0,-3.6722,-3.5685,-3.425,-3.425,0.0,0.0,0.0,0.0,0.0,-3.5442,-3.5397,-3.5337,-3.5442,-3.5439,-3.5409,-3.5305,-3.5275,0.0,0.0,0.0,-3.5061,-3.4441,-3.4617,0.0,0.0,0.0,0.0,0.0,0.0,0.0,0.0,0.0,0.0,0.0,0.0,0.0,0.0,0.0,-4.1492,-4.1492,-4.2078,-4.2412,-4.2412,-4.3096,-4.3462,-4.3462,-4.3568,-4.3598,-4.3598,-4.3598,-4.3598,-4.3598,-4.3598,-4.3598,-4.3598,0.0,0.0,-4.3598,-4.3598,-4.3598,-4.3641,-4.4044,-4.4193,-4.4176,-4.3973,-4.3846,-4.3537,0.0,0.0,0.0,0.0,0.0,0.0,0.0,0.0,0.0,0.0,0.0,0.0,0.0,0.0,0.0,0.0,0.0,0.0,0.0,-4.217,-4.1376,-4.0155,-4.0171,-4.0171,-4.0096,-4.0096,-4.0096,-4.0096,-4.0096,-4.0096,-4.0096,-4.0096,-4.0096,-4.0096,-4.0096,-4.0096,-4.0096,-4.0087,-4.0011,-3.9901,-3.9875,0.0,0.0,0.0,0.0,0.0,0.0,0.0,0.0,-3.5,-3.4298,-3.3637,-3.3637,0.0,0.0,0.0,0.0,0.0,-3.513,-3.483,-3.4532,-3.5112,-3.5261,-3.508,-3.4386,-3.4221,-3.4191,0.0,0.0,0.0,0.0,-3.4743,-3.4731,0.0,0.0,-3.4549,0.0,0.0,0.0,0.0,0.0,0.0,0.0,0.0,0.0,0.0,0.0,-4.1492,-4.1492,-4.1624,-4.1656,-4.1656,-4.238,-4.2741,-4.2741,-4.3312,-4.3598,-4.3598,-4.3598,-4.3598,-4.3598,-4.3598,-4.3598,-4.3598,0.0,-4.3598,-4.3598,-4.3598,-4.3598,-4.3562,-4.3003,-4.28,-4.2786,-4.2638,-4.2157,-4.152,0.0,0.0,0.0,0.0,0.0,0.0,0.0,0.0,0.0,0.0,0.0,0.0,0.0,0.0,0.0,0.0,0.0,0.0,-4.2364,-4.1818,-4.1086,-4.013,-4.0096,-4.0096,-4.0096,-4.0096,-4.0096,-4.0096,-4.0096,-4.0096,-4.0096,-4.0096,-4.0096,-4.0096,-4.0096,-4.0096,-4.0096,-4.0096,-4.0045,-4.0011,0.0,0.0,0.0,0.0,0.0,0.0,0.0,0.0,0.0,0.0,-3.3253,-3.2407,-3.2407,0.0,0.0,0.0,0.0,0.0,-3.3974,-3.3794,-3.3617,-3.3829,-3.3967,-3.4016,-3.3994,-3.4009,-3.4009,0.0,0.0,0.0,0.0,0.0,-3.4664,-3.4563,0.0,-3.4414,0.0,0.0,0.0,0.0,0.0,0.0,0.0,0.0,0.0,0.0,0.0,0.0,-4.0205,-4.06,-4.0839,-4.0974,-4.1624,-4.219,-4.2585,-4.2912,-4.3235,-4.3598,-4.3598,-4.3598,-4.3598,-4.3598,-4.3598,-4.3598,0.0,-4.3598,-4.3598,-4.3598,-4.3367,-4.2969,-4.2622,-4.2258,-4.1868,-4.1426,-4.0799,-4.0113,0.0,0.0,0.0,0.0,0.0,0.0,0.0,0.0,0.0,0.0,0.0,0.0,0.0,0.0,0.0,0.0,0.0,0.0,-4.1781,-4.1375,-4.0865,-4.013,-4.0096,-4.0096,-4.0096,-4.0096,-4.0096,-4.0096,-4.0096,-4.0096,-4.0096,-4.0096,-4.0096,-4.0096,-4.0096,-4.0096,-4.0096,-4.0096,-4.0096,-4.0096,0.0,0.0,0.0,0.0,0.0,0.0,0.0,0.0,0.0,0.0,0.0,0.0,0.0,0.0,0.0,-3.2333,-3.2689,-3.3044,-3.3005,-3.2871,-3.2676,-3.2533,-3.2729,-3.309,-3.3542,-3.3659,-3.3689,0.0,0.0,0.0,0.0,-3.428,0.0,-3.4414,-3.4414,-3.4414,-3.4414,0.0,0.0,0.0,0.0,0.0,0.0,0.0,0.0,0.0,0.0,0.0,-3.9017,-3.9615,-3.999,-4.0165,-4.0891,-4.1525,-4.2094,-4.2253,-4.2772,-4.3598,-4.3432,-4.3462,-4.3598,-4.3432,-4.3462,-4.3598,-4.3598,-4.3499,-4.3333,-4.3333,-4.2903,-4.2224,-4.2088,-4.1574,-4.0845,-4.0343,-3.9779,-3.9299,0.0,0.0,0.0,0.0,0.0,0.0,0.0,0.0,0.0,0.0,0.0,0.0,0.0,0.0,0.0,0.0,0.0,0.0,-4.0922,-4.1086,-4.0865,-4.013,-4.0096,-4.0096,-4.0096,-4.0096,-4.0096,-4.0096,-4.0096,-4.0096,-4.0096,-4.0096,-4.0096,-4.0096,-4.0096,-4.0096,-4.0096,-4.0096,-4.0096,-4.0096,-4.0096,0.0,0.0,0.0,0.0,0.0,0.0,0.0,0.0,0.0,0.0,0.0,0.0,0.0,-3.169,-3.2303,-3.2437,-3.2465,-3.2887,-3.2469,-3.1845,-3.166,-3.222,-3.2796,-3.2634,-3.2617,0.0,-3.3405,0.0,0.0,0.0,-3.4385,-3.4414,-3.4414,-3.4414,-3.4414,0.0,0.0,0.0,0.0,0.0,0.0,0.0,0.0,0.0,0.0,0.0,0.0,-3.8819,-3.9053,-3.9177,-3.9199,-4.0095,-4.0615,-4.065,-4.126,-4.2253,-4.3598,-4.2974,-4.3005,-4.3598,-4.2943,-4.3005,-4.3598,-4.3598,-4.3201,-4.2572,-4.2572,-4.2125,-4.1425,-4.0779,-4.0111,-3.9448,-3.9398,-3.9348,-3.9299,0.0,0.0,0.0,0.0,0.0,0.0,0.0,0.0,0.0,0.0,0.0,0.0,0.0,0.0,0.0,0.0,0.0,0.0,-4.0395,-4.0468,-4.0375,-4.0113,-4.0096,-4.0096,-4.0096,-4.0096,-4.0096,-4.0096,-4.0096,-4.0096,-4.0096,-4.0096,-4.0096,-4.0096,-4.0096,-4.0096,-4.0096,-4.0096,-4.0096,-4.0096,-4.0096,-4.0011,0.0,0.0,0.0,0.0,0.0,0.0,0.0,0.0,-3.1511,-3.1511,-3.1511,-3.1511,-3.1526,-3.1604,-3.159,-3.156,-3.1524,-3.1271,-3.1123,-3.1424,-3.1745,-3.2082,0.0,-3.2817,-3.3282,-3.392,-3.4051,0.0,0.0,0.0,-3.4414,-3.4414,-3.4414,-3.4414,0.0,0.0,0.0,0.0,0.0,0.0,0.0,0.0,0.0,0.0,0.0,0.0,-3.8627,-3.8701,-3.8775,-3.8907,-3.9364,-3.9864,-4.0305,-4.0668,-4.136,-4.2285,-4.2045,-4.2045,-4.2301,-4.2522,-4.2497,-4.2334,-4.2739,-4.2489,-4.1839,-4.1839,-4.1409,-4.0696,-3.9995,-3.9547,-3.9299,-3.9299,-3.9299,-3.9299,0.0,0.0,0.0,0.0,0.0,0.0,0.0,0.0,0.0,0.0,0.0,0.0,0.0,0.0,0.0,0.0,0.0,0.0,-4.0096,-4.0096,-4.0096,-4.0096,-4.0096,-4.0096,-4.0096,-4.0096,-4.0096,-4.0096,-4.0096,-4.0096,-4.0096,-4.0096,-4.0096,-4.0096,-4.0096,-4.0096,-4.0096,-4.0096,-4.0096,-4.0096,-4.0096,-4.0062,0.0,0.0,0.0,0.0,0.0,0.0,0.0,0.0,-3.1511,-3.1511,-3.1511,-3.1511,-3.1453,-3.122,-3.1132,-3.1043,-3.0732,-3.0642,-3.0714,-3.1105,-3.1526,0.0,-3.2394,-3.3006,-3.3678,-3.4283,-3.4414,-3.4414,-3.4414,0.0,0.0,0.0,-3.4414,0.0,0.0,0.0,0.0,0.0,0.0,0.0,0.0,0.0,0.0,0.0,0.0,0.0,0.0,-3.7879,-3.7938,-3.812,-3.8301,-3.8644,-3.9158,-3.9297,-3.9627,-4.0137,-4.0137,-4.0513,-4.1178,-4.1262,-4.1149,-4.09,-4.1583,-4.1436,-4.079,-4.0993,-4.0663,-4.0011,-3.9497,-3.9299,-3.9299,-3.9299,-3.9299,-3.9299,0.0,0.0,0.0,0.0,0.0,0.0,0.0,0.0,-4.2711,-4.2257,-4.2595,0.0,0.0,0.0,0.0,0.0,0.0,0.0,-4.0096,-4.0096,-4.0096,-4.0096,-4.0096,-4.0096,-4.0096,-4.0096,-4.0096,-4.0096,-4.0096,-4.0096,-4.0096,-4.0096,-4.0096,-4.0096,-4.0096,-4.0096,-4.0096,-4.0096,-4.0096,-4.0096,-4.0096,-4.0096,-4.0003,0.0,0.0,0.0,0.0,0.0,0.0,0.0,-3.1511,-3.1511,-3.1511,-3.1511,-3.1467,-3.1351,-3.1205,-3.1043,-3.0851,-3.0702,-3.0598,-3.0612,0.0,0.0,-3.2495,-3.3021,-3.3692,-3.4283,-3.4414,-3.4414,-3.4414,0.0,0.0,-3.4414,0.0,0.0,0.0,0.0,0.0,0.0,0.0,0.0,0.0,0.0,0.0,0.0,0.0,0.0,0.0,-3.6493,-3.6614,-3.6614,-3.6796,-3.6901,-3.6901,-3.6901,-3.7005,-3.7193,-3.7193,-3.8351,-4.0451,-3.9099,-3.8837,-3.9517,-4.0206,-4.0086,-3.945,-4.011,-3.9962,-3.9299,-3.9299,-3.9299,-3.9299,-3.9299,-3.9299,-3.9299,0.0,0.0,0.0,0.0,0.0,0.0,0.0,0.0,-4.1366,-4.123,-4.1065,0.0,0.0,0.0,0.0,0.0,0.0,0.0,-4.0096,-4.0096,-4.0096,-4.0096,-4.0096,-4.0096,-4.0096,-4.0096,-4.0096,-4.0096,-4.0096,-4.0096,-4.0096,-4.0096,-4.0096,-4.0096,-4.0096,-4.0096,-4.0096,-4.0096,-4.0096,-4.0096,-4.0096,-4.0096,-4.0028,0.0,0.0,0.0,0.0,0.0,0.0,0.0,0.0,0.0,-3.1511,-3.1511,-3.1453,-3.122,-3.1132,-3.1043,-3.0732,-3.0642,-3.0714,-3.1134,0.0,0.0,0.0,-3.3674,0.0,0.0,-3.4414,-3.4414,-3.4414,0.0,0.0,-3.4414,0.0,0.0,0.0,0.0,0.0,0.0,0.0,0.0,0.0,0.0,0.0,0.0,0.0,0.0,0.0,-3.6351,-3.6387,-3.6387,-3.6564,-3.6705,-3.6705,-3.6831,-3.6936,-3.7005,-3.6664,-3.7128,-3.8324,-3.844,-3.8314,-3.8058,-3.8774,-3.8932,-3.8675,-3.9353,-3.9497,-3.9299,-3.9299,-3.9299,-3.9299,-3.9299,-3.9299,-3.9299,0.0,0.0,0.0,0.0,0.0,0.0,0.0,0.0,-4.1019,-4.0825,-4.0731,-4.0514,0.0,0.0,0.0,0.0,0.0,0.0,-4.0096,-4.0096,-4.0096,-4.0096,-4.0096,-4.0096,-4.0096,-4.0096,-4.0096,-4.0096,-4.0096,-4.0096,-4.0096,-4.0096,-4.0096,-4.0096,-4.0096,-4.0096,-4.0096,-4.0096,-4.0096,-4.0096,-4.0096,-4.0096,-3.9994,0.0,0.0,0.0,0.0,0.0,0.0,0.0,0.0,0.0,-3.1511,-3.1511,-3.1453,-3.1161,-3.1117,-3.1014,-3.0702,-3.0417,-3.0337,-3.0985,-3.0905,-3.1077,-3.2409,0.0,0.0,0.0,-3.4414,-3.4414,-3.4414,-3.4414,0.0,0.0,0.0,0.0,0.0,0.0,0.0,0.0,0.0,0.0,0.0,0.0,0.0,0.0,0.0,0.0,0.0,-3.5561,-3.5561,-3.5561,-3.5665,-3.5735,-3.5735,-3.5873,-3.5962,-3.6031,-3.575,-3.5933,-3.6541,-3.7059,-3.7075,-3.6679,-3.7375,-3.7779,-3.7994,-3.8634,-3.8898,-3.8898,-3.8898,-3.8898,-3.8898,-3.8898,-3.8898,-3.8925,0.0,0.0,-4.4504,-4.371,0.0,0.0,0.0,0.0,-4.123,-4.0802,-4.1116,-4.1047,0.0,0.0,0.0,0.0,0.0,-4.0096,-4.0096,-4.0096,-4.0096,-4.0096,-4.0096,-4.0096,-4.0096,-4.0096,-4.0096,-4.0096,-4.0096,-4.0096,-4.0096,-4.0096,-4.0096,-4.0096,-4.0096,-4.0096,-4.0096,-4.0096,-4.0096,-4.0096,-4.0096,-4.0096,-3.9943,-3.8464,0.0,0.0,0.0,0.0,0.0,0.0,0.0,0.0,-3.1511,-3.1511,-3.1424,-3.1176,-3.1087,-3.0984,-3.0702,-3.016,-2.9808,-3.0387,-2.9992,0.0,-3.1053,-3.2744,-3.4057,-3.4206,0.0,-3.4327,-3.4293,-3.4337,0.0,0.0,0.0,0.0,0.0,0.0,0.0,0.0,0.0,0.0,0.0,0.0,0.0,0.0,0.0,0.0,0.0,-3.4414,-3.4414,-3.4414,-3.4414,-3.4414,-3.4414,-3.4414,-3.4481,-3.4664,-3.4698,-3.4865,-3.5148,-3.5374,-3.5472,-3.5504,-3.6148,-3.6753,-3.734,-3.7966,-3.8222,-3.8222,-3.8222,-3.8222,-3.8222,-3.8222,-3.825,-3.8379,0.0,0.0,-4.2637,-4.1886,0.0,0.0,0.0,0.0,0.0,-4.0254,0.0,0.0,0.0,0.0,0.0,0.0,-4.0096,-4.0096,-4.0096,-4.0096,-4.0096,-4.0096,-4.0096,-4.0096,-4.0096,-4.0096,-4.0096,-4.0096,-4.0096,-4.0096,-4.0096,-4.0096,-4.0096,-4.0096,-4.0096,-4.0096,-4.0096,-4.0096,-4.0096,-4.0096,-4.0096,-4.0096,-3.9943,-3.8464,-3.7385,0.0,0.0,0.0,0.0,0.0,0.0,0.0,-3.1511,-3.1438,-3.1322,-3.1132,-3.0984,-3.0821,-3.0642,-3.0477,0.0,-2.9901,-2.966,-2.9568,-2.9857,-3.0614,-3.1559,-3.2677,-3.3325,-3.3641,-3.3493,-3.383,0.0,0.0,0.0,0.0,0.0,0.0,0.0,0.0,0.0,0.0,0.0,0.0,0.0,0.0,0.0,0.0,-3.4414,-3.4414,-3.4414,-3.4414,-3.4414,-3.4414,-3.4414,-3.4414,-3.4414,0.0,-3.4631,-3.4731,-3.4831,-3.5129,-3.5261,-3.5326,-3.607,-3.643,-3.6523,-3.728,-3.7589,-3.7589,-3.7589,-3.7589,-3.7589,-3.7589,-3.7879,-3.8306,0.0,0.0,0.0,0.0,0.0,0.0,0.0,0.0,0.0,0.0,0.0,-4.0096,-4.0096,-4.0096,0.0,0.0,-4.0096,-4.0096,-4.0096,-4.0096,-4.0096,-4.0096,-4.0096,-4.0096,-4.0096,-4.0096,-3.9969,-3.967,-3.967,-3.967,-3.967,-3.9375,-3.9375,-3.967,-3.967,-3.9825,-4.0096,-4.0096,-4.0096,-4.0096,-4.0096,-4.0096,-3.9943,-3.8464,-3.7517,-3.6653,-3.4403,0.0,0.0,0.0,0.0,0.0,0.0,0.0,-3.1351,-3.1161,-3.0777,-3.0358,-3.019,-2.9639,0.0,-2.826,0.0,-2.8399,-2.8399,-2.8557,-2.904,-3.0113,-3.118,-3.1943,-3.1971,0.0,0.0,0.0,0.0,0.0,0.0,0.0,0.0,0.0,0.0,0.0,0.0,0.0,0.0,0.0,0.0,-3.4414,-3.4414,-3.4414,-3.4414,-3.4414,-3.4414,-3.4414,-3.4414,-3.4414,-3.4414,-3.4414,-3.4515,-3.4597,-3.4698,-3.4949,-3.5115,-3.5213,-3.5527,-3.5688,-3.5767,-3.6508,-3.6875,-3.692,-3.692,-3.692,-3.692,-3.692,-3.7131,-3.7442,0.0,0.0,0.0,0.0,0.0,0.0,0.0,0.0,0.0,0.0,0.0,-4.0096,-4.0096,-4.0096,-4.0096,0.0,0.0,0.0,-4.0096,-4.0096,-4.0096,-4.0096,-4.0096,-4.0096,-4.0096,-3.9995,-3.9696,-3.9206,-3.8974,-3.8865,-3.8821,-3.8474,-3.8574,-3.9055,-3.9055,-3.9391,-3.9927,-3.9927,-3.9995,-4.0096,-4.0096,-3.9978,-3.9632,-3.8291,-3.7351,-3.647,-3.4269,-3.3198,-3.2668,-3.1824,0.0,0.0,0.0,0.0,-3.1424,-3.1161,-3.0553,-2.9903,-2.9685,-2.8583,-2.7351,-2.6782,-2.685,0.0,-2.6994,-2.6845,-2.69,-2.7458,-2.8872,-3.0042,0.0,0.0,0.0,0.0,0.0,0.0,0.0,0.0,0.0,0.0,0.0,0.0,0.0,0.0,0.0,0.0,0.0,-3.4346,-3.4414,-3.4414,-3.4414,-3.4414,-3.4414,-3.4414,-3.4414,-3.4414,-3.4414,-3.4414,-3.4414,-3.4515,-3.4698,-3.4769,-3.4902,-3.5115,-3.4968,-3.4968,-3.5148,-3.5735,-3.607,-3.618,-3.618,-3.618,-3.618,-3.618,-3.6274,-3.643,0.0,0.0,0.0,0.0,0.0,0.0,0.0,0.0,0.0,0.0,-4.0096,-4.0096,-4.0096,-4.0096,-4.0096,-4.0096,-4.0096,-4.0096,-4.0096,0.0,0.0,-4.0096,-4.0096,-4.0096,-4.0096,-3.9592,-3.9286,-3.9206,-3.8141,-3.7562,-3.7383,-3.8023,-3.8334,-3.8435,-3.8435,-3.8767,-3.9312,-3.9312,-3.9601,-4.0096,-4.0096,-3.9455,-3.836,-3.7536,-3.6479,-3.5247,-3.3641,-3.296,-3.2695,-3.1981,-3.1641,0.0,0.0,0.0,-3.1292,-3.1132,-3.0507,-2.9808,-2.9654,0.0,-2.7451,0.0,-2.6714,-2.6305,0.0,0.0,-2.6025,0.0,-2.758,0.0,0.0,0.0,0.0,0.0,0.0,0.0,0.0,0.0,0.0,0.0,0.0,0.0,0.0,0.0,0.0,0.0,-3.4128,-3.423,-3.438,-3.4414,-3.4414,-3.4414,-3.4414,-3.4414,-3.4414,-3.4414,-3.4414,-3.4414,-3.4414,-3.4515,-3.4698,-3.4549,-3.4582,-3.4765,-3.4868,-3.4835,-3.4798,-3.5001,-3.5198,-3.5377,-3.5377,-3.5377,-3.5377,-3.5377,-3.5735,-3.6227,0.0,0.0,0.0,0.0,0.0,0.0,0.0,0.0,0.0,0.0,0.0,-4.0096,-4.0096,-4.0096,-4.0096,-4.0096,-4.0096,-4.0096,-4.0096,-4.0096,-4.0096,-4.0096,-4.0096,-3.9944,-3.9601,-3.9339,-3.8865,-3.8197,-3.7562,-3.7027,-3.66,-3.6875,-3.7221,-3.7618,-3.7751,-3.8124,-3.8712,-3.9055,-3.9365,-3.9618,-3.9618,-3.9037,-3.8072,-3.7009,-3.5997,-3.4956,-3.353,-3.2922,-3.2695,-3.2025,-3.167,-3.1511,-3.1511,0.0,0.0,0.0,-3.0267,-2.9111,-2.813,-2.733,-2.6748,0.0,-2.6245,-2.5828,-2.5758,0.0,-2.5535,-2.5453,0.0,0.0,0.0,0.0,0.0,0.0,0.0,0.0,0.0,0.0,0.0,0.0,0.0,0.0,0.0,0.0,0.0,0.0,-3.3805,-3.4128,-3.423,-3.4346,-3.4414,-3.4414,-3.4414,-3.4414,-3.4414,-3.4414,-3.4414,-3.4414,-3.4414,-3.4448,-3.4515,-3.4448,-3.4515,-3.4698,-3.465,-3.465,-3.4698,-3.475,-3.4883,-3.5034,-3.5034,-3.5034,-3.5034,-3.5034,-3.5231,-3.5477,0.0,0.0,0.0,0.0,0.0,0.0,0.0,0.0,0.0,0.0,0.0,-4.0096,-4.0096,0.0,0.0,0.0,-4.0096,-4.0096,-4.0096,-4.0096,-4.0096,-4.0096,-3.9944,-3.967,-3.9206,-3.8892,-3.8282,-3.7312,-3.7027,-3.66,-3.607,-3.6022,-3.6258,-3.6768,-3.6982,-3.7445,-3.8023,-3.8518,-3.8838,-3.8957,-3.8803,-3.8212,-3.7357,-3.6173,-3.5182,-3.4292,-3.3228,-3.2749,-3.252,-3.2025,-3.1683,-3.1511,-3.1511,-3.1511,0.0,0.0,0.0,-2.8602,0.0,0.0,-2.6236,-2.6131,-2.591,-2.5653,0.0,0.0,-2.5312,0.0,0.0,0.0,0.0,0.0,0.0,0.0,0.0,0.0,0.0,0.0,0.0,0.0,0.0,0.0,0.0,0.0,0.0,0.0,-3.3528,-3.4059,-3.4094,-3.4312,-3.4414,-3.4414,-3.4414,-3.4414,-3.4414,-3.4414,-3.4414,-3.4414,-3.4414,-3.4414,-3.4414,-3.4414,-3.4481,-3.4631,-3.4481,-3.4481,-3.4631,-3.4631,-3.4716,-3.4835,-3.4835,-3.4835,-3.4835,-3.4835,-3.4835,-3.4835,0.0,0.0,0.0,0.0,0.0,0.0,0.0,0.0,0.0,0.0,0.0,-4.0096,-4.0096,-4.0096,-4.0096,-4.0096,-4.0096,-4.0096,-4.0096,-4.0096,-4.0096,-4.0096,-3.9549,0.0,-3.9206,-3.8084,-3.7371,-3.7131,-3.6523,-3.607,-3.572,-3.5894,-3.5926,-3.5784,-3.6133,-3.6616,-3.7191,-3.7401,-3.7825,-3.8286,-3.766,-3.6651,-3.5455,-3.4682,-3.3634,-3.2511,-3.2453,0.0,0.0,0.0,0.0,0.0,0.0,-3.1511,-3.1467,0.0,0.0,0.0,0.0,-2.6499,0.0,-2.6015,-2.591,0.0,0.0,0.0,0.0,0.0,0.0,0.0,0.0,0.0,0.0,0.0,0.0,0.0,0.0,0.0,0.0,0.0,0.0,0.0,0.0,0.0,0.0,0.0,-3.3353,-3.3985,-3.4094,-3.4312,-3.4414,-3.4414,-3.4414,-3.4414,-3.4414,-3.4414,-3.4414,-3.4414,-3.4414,-3.4414,-3.4414,-3.4414,-3.4414,-3.4414,-3.4414,-3.4414,-3.4414,-3.4414,-3.4515,-3.4698,-3.4698,-3.4698,-3.4698,-3.4698,-3.4698,-3.4698,0.0,0.0,0.0,0.0,0.0,0.0,0.0,0.0,0.0,0.0,0.0,0.0,0.0,-4.0096,-4.0096,-4.0096,-4.0096,-4.0096,-4.0096,-3.9747,-3.9523,-3.9523,-3.893,-3.8435,-3.8055,-3.7608,-3.7103,-3.6508,-3.5799,-3.5289,-3.504,-3.4601,-3.4584,-3.4958,-3.5744,-3.6179,-3.6399,-3.6875,-3.6999,-3.6877,-3.6622,-3.5788,-3.4604,-3.3966,-3.3163,0.0,0.0,0.0,0.0,0.0,0.0,0.0,0.0,0.0,0.0,0.0,0.0,0.0,0.0,0.0,0.0,-2.598,-2.5793,-2.5653,-2.5347,-2.5312,-2.5312,0.0,0.0,0.0,0.0,0.0,0.0,0.0,0.0,0.0,0.0,0.0,0.0,0.0,0.0,0.0,0.0,0.0,0.0,0.0,0.0,-3.2121,-3.315,-3.336,-3.3742,-3.438,-3.4414,-3.4414,-3.4414,-3.4414,-3.4414,-3.4414,-3.4414,-3.4414,-3.4414,-3.4414,-3.4414,-3.4414,-3.4414,-3.4414,-3.4414,-3.4414,-3.4448,-3.4515,-3.4515,-3.4515,-3.4515,-3.4515,-3.4515,-3.4515,0.0,0.0,0.0,-3.8723,0.0,-3.8892,-3.8892,-3.9242,-3.9348,-3.8947,0.0,0.0,0.0,0.0,-3.9497,-3.9497,-3.9497,-3.9497,-3.9497,-3.9135,-3.8892,-3.8892,-3.8322,-3.7825,-3.7417,-3.6913,-3.6382,-3.5812,-3.5002,-3.4484,-3.4283,-3.3756,-3.3724,-3.4204,-3.5085,-3.5634,-3.5926,-3.6399,-3.6274,-3.5713,-3.548,-3.4818,-3.3857,0.0,0.0,0.0,0.0,0.0,0.0,0.0,0.0,0.0,0.0,0.0,0.0,0.0,0.0,0.0,-2.7209,0.0,0.0,0.0,-2.5828,-2.5653,-2.5453,0.0,-2.5312,0.0,0.0,0.0,0.0,0.0,0.0,0.0,0.0,0.0,0.0,0.0,0.0,0.0,0.0,0.0,0.0,0.0,0.0,0.0,0.0,0.0,-3.1619,-3.1879,-3.2535,-3.3681,-3.3896,-3.4113,-3.4414,-3.4414,-3.4312,-3.4095,-3.4095,-3.3978,-3.3775,-3.3775,-3.3775,-3.3775,-3.3775,-3.3989,-3.4385,-3.4182,-3.4095,-3.408,-3.3862,-3.3775,-3.3775,-3.3775,-3.3775,-3.3775,-3.7764,-3.7847,-3.7946,-3.7958,-3.8149,-3.825,-3.825,-3.8278,-3.8294,-3.8278,0.0,0.0,0.0,0.0,0.0,-3.8306,-3.8306,-3.8306,-3.8306,-3.8278,-3.8278,-3.8278,-3.7679,-3.7371,-3.7356,-3.592,-3.5141,-3.4956,-3.4182,-3.3668,-3.3469,-3.344,-3.344,-3.3499,-3.4159,-3.4898,-3.5659,-3.5864,-3.5563,-3.4896,0.0,-3.3633,-3.3093,0.0,0.0,0.0,-3.2247,-3.2094,0.0,-3.1841,0.0,0.0,0.0,0.0,0.0,0.0,0.0,0.0,0.0,0.0,0.0,0.0,0.0,0.0,-2.5653,0.0,-2.5312,0.0,0.0,0.0,0.0,0.0,0.0,0.0,0.0,0.0,0.0,0.0,0.0,0.0,0.0,0.0,0.0,0.0,0.0,0.0,-2.8944,-2.9508,-2.9556,-2.9952,-3.0877,-3.2326,-3.2897,-3.3533,-3.4322,-3.4356,-3.4051,-3.3474,-3.3474,-3.3108,-3.2481,-3.2481,-3.2481,-3.2481,-3.2481,-3.3191,-3.4312,-3.3688,-3.3474,-3.3416,-3.2759,-3.2481,-3.2481,-3.2481,-3.2481,-3.2481,-3.6492,-3.6523,-3.6677,-3.7145,-3.7265,-3.7324,-3.7413,-3.779,-3.7978,0.0,0.0,0.0,-3.8306,-3.8306,-3.8306,-3.8306,-3.8306,-3.8306,-3.8306,-3.7883,-3.765,-3.765,-3.7058,-3.6445,-3.5813,-3.5416,-3.4851,-3.4121,-3.3412,-3.2976,-3.2781,-3.2273,-3.2303,-3.2796,-3.2976,-3.3455,-3.4146,-3.4704,0.0,-3.4,-3.3321,-3.2759,0.0,0.0,0.0,0.0,0.0,-3.1898,-3.1841,0.0,-3.1539,-3.1511,0.0,0.0,0.0,0.0,0.0,0.0,-2.7887,0.0,0.0,0.0,0.0,0.0,-2.5688,-2.5571,-2.55,0.0,0.0,0.0,0.0,0.0,0.0,0.0,0.0,0.0,0.0,0.0,0.0,0.0,0.0,0.0,0.0,0.0,0.0,0.0,-2.6917,-2.7571,-2.8646,-2.9674,-3.0617,-3.1492,-3.1836,-3.2317,-3.3017,-3.305,-3.2948,-3.2788,-3.2788,-3.2687,-3.2481,-3.2481,-3.2481,-3.2481,-3.2481,-3.2684,-3.3003,-3.2861,-3.2788,-3.2759,-3.2553,-3.2481,-3.2481,-3.2481,-3.2481,-3.2481,-3.5797,-3.5846,-3.5975,-3.6321,-3.6461,-3.6554,-3.6646,-3.6935,-3.7086,0.0,0.0,0.0,-3.7413,-3.7488,-3.7562,-3.7562,-3.7562,-3.7562,-3.7562,-3.7238,-3.6918,-3.6621,-3.6198,-3.5585,-3.4805,-3.4394,-3.3925,-3.3382,-3.263,-3.2211,-3.2064,-3.169,-3.1705,-3.2093,-3.2392,-3.2721,-3.311,-3.3499,-3.3486,0.0,-3.2766,0.0,0.0,-3.1927,-3.194,0.0,0.0,0.0,-3.1756,-3.1568,-3.1511,0.0,0.0,0.0,0.0,0.0,0.0,0.0,0.0,0.0,0.0,0.0,0.0,0.0,-2.591,-2.5723,-2.5571,0.0,0.0,0.0,0.0,0.0,0.0,0.0,0.0,0.0,0.0,0.0,0.0,0.0,0.0,0.0,0.0,-2.5312,-2.5432,-2.5745,-2.5769,-2.6189,-2.7165,-2.8187,-2.9247,-3.0319,-3.0762,-3.1495,-3.2481,-3.2209,-3.208,-3.2075,-3.1806,-3.1694,-3.1714,-3.1714,-3.1714,-3.1714,-3.1714,-3.1714,-3.1714,-3.1714,-3.1859,-3.2046,-3.1816,-3.1714,-3.1714,-3.1714,-3.1714,-3.1714,0.0,-3.5604,-3.5688,-3.5688,-3.5846,-3.5941,-3.5973,-3.5973,-3.5973,0.0,-3.6005,-3.6068,-3.6164,-3.6352,-3.646,-3.646,-3.646,-3.646,-3.646,-3.646,-3.6184,-3.5584,-3.5309,-3.4866,-3.4164,-3.3288,-3.2749,-3.2673,-3.1882,-3.1511,-3.1511,-3.1511,-3.1511,-3.1525,-3.2108,-3.2378,-3.2378,-3.2378,-3.2378,-3.2378,-3.2378,-3.2122,0.0,0.0,-3.1841,-3.194,-3.1813,-3.1756,-3.1727,-3.1568,-3.1511,0.0,0.0,0.0,0.0,0.0,-3.0418,0.0,0.0,0.0,0.0,0.0,-2.6499,0.0,-2.6201,-2.591,-2.5641,-2.5641,0.0,0.0,0.0,0.0,0.0,0.0,0.0,0.0,0.0,0.0,0.0,0.0,0.0,0.0,-2.5216,-2.5276,-2.5312,-2.5312,-2.5312,-2.5382,-2.5571,-2.621,-2.7319,-2.8879,-2.9585,-3.0626,-3.2025,-3.1462,-3.1164,-3.1147,-3.0662,-3.0441,-3.0477,-3.0477,-3.0477,-3.0477,-3.0477,-3.0477,-3.0477,-3.0568,-3.0916,-3.1366,-3.083,-3.0598,-3.0598,-3.0598,-3.0598,-3.0598,-3.5504,-3.5537,-3.5554,-3.5554,-3.5554,-3.5636,-3.572,-3.5752,-3.5831,-3.5973,-3.6005,-3.6005,-3.6037,-3.6179,-3.6274,-3.6274,-3.6274,-3.6274,-3.6274,-3.6163,-3.6054,-3.5917,-3.5353,-3.4668,-3.3895,-3.317,-3.2449,-3.1763,-3.157,-3.1511,-3.1511,-3.1511,-3.1511,-3.1511,-3.1645,-3.1705,-3.1705,-3.1705,-3.1705,-3.1705,-3.1705,0.0,-3.1568,-3.1568,-3.1568,-3.1597,-3.1568,-3.1568,-3.1539,-3.1511,-3.1511,-3.1511,0.0,0.0,0.0,-3.1467,0.0,0.0,0.0,0.0,0.0,0.0,0.0,0.0,-2.6374,-2.6131,-2.6027,0.0,0.0,0.0,0.0,0.0,0.0,0.0,0.0,0.0,0.0,0.0,0.0,0.0,0.0,0.0,-2.464,-2.5059,-2.5312,-2.5312,-2.5312,-2.5312,-2.5347,-2.5632,-2.63,-2.7325,-2.7657,-2.8279,-2.9279,-2.915,-2.9082,-2.9086,-2.9558,-2.9766,-2.9808,-2.9808,-2.9808,-2.9808,-2.9808,-2.9808,-2.9839,-3.0387,-3.067,-3.0772,-3.0656,-3.0598,-3.0598,-3.0598,-3.0598,-3.0598,-3.5504,-3.5504,-3.5504,-3.5504,-3.5504,-3.5522,-3.5604,-3.5589,-3.5636,-3.5733,-3.5814,-3.5863,-3.5863,-3.599,-3.6085,-3.6085,-3.6085,-3.6085,-3.6085,-3.6037,-3.5853,-3.5519,-3.5076,-3.4348,-3.3261,-3.2841,-3.2257,-3.1511,-3.1511,-3.1511,-3.1511,-3.1511,-3.1511,-3.1511,-3.1511,-3.1511,-3.1511,-3.1511,-3.1511,-3.1511,-3.1511,0.0,-3.1511,-3.1511,-3.1511,-3.1511,-3.1511,-3.1511,-3.1511,-3.1511,-3.1511,0.0,-3.1511,-3.1511,-3.1511,0.0,-3.097,-3.0389,0.0,0.0,0.0,-2.8371,0.0,0.0,0.0,-2.6072,-2.5636,-2.5283,0.0,0.0,0.0,0.0,0.0,0.0,0.0,0.0,0.0,0.0,0.0,0.0,0.0,0.0,-2.4145,-2.4614,-2.5023,-2.5288,-2.5312,-2.5312,-2.5312,-2.5488,-2.6,-2.6867,-2.7082,-2.7604,-2.8492,-2.8182,-2.8182,-2.8492,-2.8551,-2.8744,-2.9062,-2.9062,-2.9062,-2.9062,-2.9062,-2.9062,-2.9125,-2.9808,-2.9901,-2.9625,-3.0342,-3.0598,-3.0598,-3.0598,-3.0598,-3.0598,-3.5504,-3.5504,-3.5504,-3.5504,-3.5504,-3.5504,-3.5504,-3.5504,-3.5504,-3.5504,-3.5589,-3.5671,-3.5671,-3.5831,-3.5941,-3.5941,-3.5941,-3.5941,-3.5941,-3.591,-3.5651,-3.5106,-3.4815,-3.4134,-3.3066,-3.2811,-3.2348,-3.169,-3.169,-3.163,-3.1511,-3.1511,-3.1511,-3.1511,-3.1511,-3.1511,-3.1511,0.0,0.0,-3.1511,0.0,-3.1511,-3.1511,-3.1511,-3.1511,-3.1511,-3.1511,-3.1511,-3.1511,-3.1511,-3.1511,-3.1511,-3.1511,-3.1511,0.0,0.0,0.0,0.0,0.0,0.0,0.0,0.0,0.0,-2.7937,0.0,0.0,0.0,0.0,0.0,0.0,0.0,0.0,0.0,0.0,0.0,0.0,0.0,0.0,0.0,0.0,0.0,0.0,-2.3649,-2.4073,-2.4554,-2.4975,-2.5095,-2.5155,-2.5155,-2.5405,-2.5908,-2.6663,-2.6858,-2.7317,-2.8117,-2.7571,-2.7571,-2.8117,-2.7703,-2.7769,-2.8298,-2.8298,-2.8298,-2.8298,-2.8298,-2.8298,-2.8363,-2.9093,-2.903,-2.862,-2.9901,-3.0312,-3.019,-3.019,-3.019,-3.019,-3.5504,-3.5504,-3.5504,-3.5504,-3.5504,-3.5504,-3.5504,-3.5504,-3.5504,-3.5504,-3.5504,-3.5522,-3.5522,0.0,0.0,0.0,0.0,0.0,-3.572,0.0,-3.5524,-3.5464,-3.4865,-3.446,-3.4294,-3.371,-3.3066,-3.2378,-3.2378,-3.2079,-3.1511,-3.1511,-3.1511,-3.1511,-3.1511,0.0,0.0,0.0,-3.1511,0.0,-3.1511,-3.1511,0.0,-3.1511,-3.1511,-3.1511,-3.1511,-3.1511,-3.1511,0.0,-3.1511,-3.1511,0.0,-3.1511,-3.1511,-3.1511,0.0,0.0,0.0,0.0,0.0,0.0,-2.9919,0.0,0.0,0.0,-2.6643,-2.6392,0.0,0.0,0.0,0.0,0.0,0.0,0.0,0.0,0.0,0.0,0.0,0.0,0.0,0.0,0.0,-2.3577,-2.3914,-2.3974,-2.4362,-2.4568,-2.4568,-2.5047,-2.5523,-2.6002,-2.6037,-2.628,-2.6714,-2.6658,-2.6658,-2.6714,-2.7263,-2.7537,-2.7604,-2.7604,-2.7604,-2.7604,-2.7604,-2.7604,-2.767,-2.8344,-2.8588,-2.8588,-2.939,-2.9314,-2.8748,-2.8748,-2.8748,-2.8748,-3.5326,-3.5504,-3.5504,-3.5504,-3.5504,-3.5504,-3.5504,-3.5504,-3.5504,-3.5504,-3.5504,-3.5504,0.0,0.0,0.0,0.0,0.0,-3.5572,0.0,0.0,-3.5504,-3.5504,-3.5235,-3.4891,-3.4518,-3.4234,-3.3739,-3.308,-3.2638,-3.2115,-3.1484,-3.106,-3.0887,-3.0896,-3.0524,0.0,-3.0925,0.0,-3.0925,0.0,0.0,0.0,0.0,-3.1511,-3.1511,-3.1511,-3.1511,-3.1511,-3.1511,0.0,-3.1511,0.0,0.0,0.0,0.0,0.0,0.0,0.0,0.0,0.0,0.0,0.0,0.0,0.0,-2.8762,0.0,-2.6871,0.0,0.0,0.0,0.0,0.0,0.0,0.0,-2.5965,0.0,0.0,0.0,0.0,0.0,0.0,0.0,0.0,0.0,0.0,0.0,-2.3965,-2.4085,-2.4085,-2.4578,-2.504,-2.5409,-2.575,-2.6084,-2.6499,-2.6499,-2.6499,-2.6499,-2.6782,-2.6905,-2.6905,-2.6905,-2.6905,-2.6905,-2.6905,-2.6905,-2.6973,-2.7637,-2.7703,-2.7417,-2.8097,-2.8441,-2.8492,-2.8492,-2.8492,-2.8492,-3.4491,-3.4787,-3.4868,-3.4868,-3.4868,-3.4868,-3.4868,-3.4868,-3.4868,-3.4868,-3.5034,0.0,-3.4902,-3.5067,0.0,0.0,-3.4868,-3.4868,0.0,0.0,-3.4868,0.0,0.0,0.0,-3.4133,-3.4133,-3.3809,-3.313,-3.2478,-3.1803,-3.1188,-3.0468,-3.0188,-3.0208,0.0,-2.9766,-3.0238,0.0,-3.0238,-3.0238,-3.0238,-3.0524,-3.0999,-3.1351,-3.1511,-3.1511,-3.1511,-3.1511,-3.1511,-3.1511,-3.1511,0.0,-3.1511,0.0,0.0,0.0,0.0,0.0,-3.1219,0.0,0.0,0.0,0.0,0.0,0.0,0.0,0.0,0.0,0.0,0.0,0.0,0.0,0.0,0.0,0.0,-2.6176,0.0,0.0,0.0,0.0,0.0,0.0,0.0,0.0,0.0,0.0,0.0,-2.3589,-2.3589,-2.4037,-2.4522,-2.4985,-2.5411,-2.5854,-2.6396,-2.643,-2.6465,-2.6499,-2.6499,-2.6499,-2.6499,-2.6499,-2.6499,-2.6499,-2.6499,-2.6499,-2.6521,-2.704,-2.6939,-2.6555,-2.704,-2.7517,-2.7953,-2.7953,-2.7953,-2.7953,-3.2664,-3.3024,-3.3262,-3.3262,-3.3262,-3.3262,-3.3262,-3.3262,-3.3262,-3.3262,0.0,0.0,0.0,0.0,0.0,0.0,0.0,-3.3262,-3.3262,0.0,-3.3262,0.0,0.0,-3.3248,0.0,-3.322,-3.2925,-3.2238,-3.1715,-3.111,-3.0427,-2.9796,-2.9532,-2.9535,-2.9504,-2.9504,-2.9535,-2.9535,-2.9535,-2.9535,-2.9535,-2.9535,-2.969,0.0,-3.1511,-3.1511,-3.1511,0.0,0.0,-3.1511,-3.1511,0.0,0.0,0.0,0.0,0.0,0.0,0.0,0.0,0.0,0.0,-3.1322,0.0,0.0,0.0,0.0,-2.8307,0.0,0.0,0.0,0.0,0.0,0.0,0.0,0.0,0.0,0.0,0.0,0.0,0.0,0.0,0.0,0.0,0.0,0.0,0.0,-2.3035,0.0,-2.3035,-2.3541,-2.4126,-2.4791,-2.4828,-2.5267,-2.6201,-2.6213,-2.6305,-2.6499,-2.6499,-2.6499,-2.6499,-2.6499,-2.6499,-2.6499,-2.6499,-2.6499,-2.6499,-2.6521,-2.6521,-2.6499,-2.6521,-2.6555,-2.6555,-2.6555,-2.6555,-2.6555,-3.1132,-3.1257,-3.1686,-3.2798,-3.301,-3.3059,-3.3178,-3.3178,-3.3178,0.0,-3.3422,0.0,0.0,-3.3422,-3.3457,0.0,0.0,-3.3178,-3.3178,-3.3178,0.0,0.0,0.0,-3.3178,0.0,0.0,-3.2918,-3.2334,-3.1612,-3.0767,-2.9778,-2.9112,-2.8814,-2.8807,0.0,-2.8371,0.0,0.0,0.0,0.0,0.0,-2.9425,-2.9535,0.0,-3.045,-3.0837,-3.0837,-3.0837,0.0,-3.0837,-3.0554,-3.0178,-3.0178,-3.0178,-3.0133,-2.9889,-2.9858,0.0,0.0,0.0,-2.9439,-3.0554,0.0,0.0,0.0,0.0,0.0,0.0,0.0,0.0,0.0,0.0,0.0,0.0,0.0,0.0,0.0,0.0,0.0,0.0,0.0,0.0,0.0,0.0,0.0,0.0,-2.2654,0.0,-2.2462,-2.2987,-2.3425,-2.3713,-2.4098,-2.4704,-2.5663,-2.5663,-2.5965,-2.6499,-2.6499,-2.6499,-2.6499,-2.6499,-2.6499,-2.6499,-2.6499,-2.6499,-2.6499,-2.6499,-2.6499,-2.6499,-2.6499,-2.6499,-2.6499,-2.6499,-2.6499,-2.6499,-3.019,-3.019,-3.057,-3.1806,-3.201,-3.2096,-3.2268,-3.2304,0.0,0.0,-3.2662,0.0,-3.2461,0.0,-3.2684,0.0,-3.2426,-3.2426,-3.2426,-3.2426,0.0,-3.2426,-3.2426,0.0,0.0,0.0,0.0,0.0,0.0,-3.0025,-2.9094,-2.8334,-2.8044,-2.8039,0.0,-2.7695,-2.8133,-2.8213,-2.8099,0.0,0.0,-2.8661,0.0,0.0,-2.9487,-3.0464,0.0,-3.0133,-3.0133,-3.0133,-2.9858,-2.9504,-2.9504,-2.9504,-2.9442,-2.9205,-2.9142,-2.9142,-2.9142,-2.8839,0.0,-2.9858,-2.9827,0.0,-3.0896,0.0,-2.9908,0.0,0.0,0.0,0.0,0.0,0.0,0.0,0.0,0.0,0.0,-2.6555,0.0,0.0,0.0,0.0,0.0,0.0,0.0,-2.3312,-2.2806,-2.239,0.0,-2.2522,-2.2838,-2.3127,-2.3454,-2.4087,-2.4992,-2.519,-2.5598,-2.6185,-2.6399,-2.6499,-2.6499,-2.6499,-2.6499,-2.6499,-2.6499,-2.6499,-2.6499,-2.6499,-2.6499,-2.6499,-2.6499,-2.6499,-2.6499,-2.6499,-2.6499,-2.6499,-2.9792,-2.9792,-2.9934,-3.0292,-3.0406,0.0,0.0,0.0,-3.0773,0.0,-3.1566,-3.1736,-3.1048,-3.1603,-3.1736,-3.1048,-3.0986,-3.0986,-3.0986,-3.0986,0.0,0.0,-3.0986,-3.0986,-3.0986,0.0,0.0,0.0,0.0,0.0,-2.836,-2.7629,-2.7302,-2.7302,-2.7302,0.0,-2.7818,-2.8005,-2.7971,-2.7767,-2.7459,-2.7395,-2.7523,-2.749,-2.868,-3.0299,-2.9659,-2.9442,-2.9442,-2.9442,-2.9411,-2.9411,-2.9411,-2.9411,-2.93,-2.8629,-2.8449,-2.8449,-2.8449,-2.8449,-2.8597,-2.93,-2.9442,0.0,0.0,0.0,-2.9493,0.0,0.0,0.0,0.0,0.0,0.0,0.0,0.0,0.0,0.0,0.0,0.0,0.0,0.0,0.0,0.0,0.0,-2.4529,-2.3842,-2.3336,-2.2775,0.0,-2.2221,-2.245,-2.2963,-2.2975,-2.3357,-2.4251,-2.4792,-2.5231,-2.5611,-2.6223,-2.6499,-2.6499,-2.6499,-2.6499,-2.6499,-2.6499,-2.6499,-2.6499,-2.6499,-2.6499,-2.6499,-2.6499,-2.6499,-2.6499,-2.6499,-2.6499,-2.6499,-2.9792,-2.9792,-2.983,0.0,-3.019,-3.0406,0.0,0.0,0.0,0.0,-3.0735,-3.081,-3.0761,-3.0949,-3.1048,-3.0986,-3.0986,0.0,0.0,0.0,0.0,-3.0773,-3.0773,-3.0773,-3.0773,-3.0911,0.0,-3.01,0.0,0.0,-2.8166,-2.7574,-2.7214,0.0,0.0,0.0,-2.7646,-2.7729,-2.7682,-2.7634,-2.7564,-2.7665,-2.7815,0.0,-2.7762,-2.8652,-2.8744,-2.8757,-2.8757,-2.8757,-2.8436,-2.8026,-2.8026,-2.8026,-2.7993,-2.7809,-2.7756,-2.7756,-2.7756,-2.7756,-2.7908,-2.8597,-2.8757,-2.8935,0.0,0.0,0.0,0.0,0.0,0.0,0.0,0.0,0.0,0.0,0.0,0.0,0.0,0.0,0.0,-2.6499,0.0,0.0,0.0,-2.52,-2.4529,-2.3842,-2.3673,-2.3192,-2.2246,0.0,-2.2698,-2.2402,-2.2402,-2.2737,-2.3481,-2.4161,-2.4826,-2.5444,-2.6154,-2.6499,-2.6499,-2.6499,-2.6499,-2.6499,-2.6499,-2.6499,-2.6499,-2.6499,-2.6499,-2.6499,-2.6499,-2.6499,-2.6499,-2.6499,-2.6499,-2.6499,-2.9792,-2.9792,0.0,-2.9792,0.0,0.0,-3.0254,-3.0254,0.0,-3.0406,-3.0406,0.0,-3.0571,-3.0571,-3.0609,-3.071,-3.0748,0.0,-3.0748,0.0,0.0,-3.0571,-3.0571,-3.0571,-3.0571,-3.0685,0.0,-2.9831,0.0,0.0,-2.7958,-2.7593,0.0,0.0,0.0,-2.7218,-2.7814,-2.8066,-2.8227,-2.8261,-2.7779,-2.7721,0.0,-2.7224,-2.7222,-2.7597,-2.7776,-2.7908,-2.7973,-2.8039,-2.7809,-2.749,-2.749,-2.749,-2.749,-2.749,-2.749,-2.749,-2.749,-2.749,-2.759,-2.7973,-2.8072,-2.8254,-2.8903,-2.9048,-2.8965,0.0,-2.8519,-2.8298,0.0,0.0,0.0,0.0,0.0,0.0,0.0,0.0,0.0,0.0,-2.6499,0.0,0.0,-2.5593,-2.4983,-2.428,-2.4165,-2.364,0.0,0.0,-2.2739,-2.2209,-2.2197,-2.2423,-2.2839,-2.3501,-2.4234,-2.5054,-2.569,-2.618,-2.6499,-2.6499,-2.6499,-2.6499,-2.6499,-2.6499,-2.6499,-2.6499,-2.6499,-2.6499,-2.6499,-2.6499,-2.6499,-2.6499,-2.6499,-2.6499,-2.9792,-2.9792,0.0,0.0,0.0,0.0,0.0,-3.0049,0.0,-3.0292,0.0,-3.033,-3.0368,-3.0368,-3.0368,-3.0406,0.0,-3.0406,-3.0406,-3.0368,-3.0368,-3.0368,-3.0368,-3.0368,-3.0368,-3.0406,-3.0125,0.0,0.0,0.0,-2.8001,0.0,0.0,0.0,0.0,0.0,0.0,-2.8775,-2.9063,-2.9086,-2.8149,-2.7774,-2.7697,-2.7237,-2.702,-2.6956,-2.6943,-2.7113,-2.7302,-2.7403,-2.7469,-2.7469,-2.7436,-2.7469,-2.7469,-2.7469,-2.749,-2.749,-2.7503,-2.7469,-2.7469,-2.7469,-2.7469,-2.7623,-2.8222,-2.8384,-2.8352,-2.8352,-2.8352,-2.8157,0.0,0.0,0.0,0.0,0.0,0.0,0.0,0.0,0.0,0.0,0.0,0.0,0.0,0.0,-2.5607,-2.4852,-2.4693,0.0,0.0,0.0,-2.2843,-2.2209,-2.2197,-2.2247,-2.2359,-2.2912,-2.3651,-2.4521,-2.5108,-2.5743,-2.6418,-2.6465,-2.6465,-2.6465,-2.6499,-2.6499,-2.6499,-2.6499,-2.6499,-2.6499,-2.6499,-2.6499,-2.6499,-2.6499,-2.6537,-2.66,-2.9792,0.0,0.0,0.0,0.0,-2.9792,-2.9869,-2.9869,-2.9869,-2.9895,-2.9895,-2.9972,-3.0113,-3.0152,-3.0228,-3.0406,-3.0406,0.0,0.0,0.0,0.0,-3.0152,-3.0152,-3.0152,-3.0152,-3.033,-3.0355,0.0,0.0,0.0,-2.8932,0.0,0.0,0.0,0.0,0.0,-2.8787,-2.9402,0.0,-2.895,-2.8762,-2.817,-2.7374,-2.7286,-2.6958,-2.6602,-2.6726,-2.6998,-2.7268,-2.7146,-2.7214,-2.7302,-2.7146,-2.7214,-2.7335,-2.7335,-2.7403,-2.7503,-2.7369,-2.7335,-2.7335,-2.7335,-2.7335,-2.7403,-2.7623,-2.7689,-2.7656,-2.7523,-2.749,-2.7436,-2.7146,0.0,0.0,0.0,0.0,0.0,0.0,0.0,0.0,0.0,0.0,-2.5937,0.0,0.0,0.0,0.0,0.0,0.0,0.0,0.0,-2.3216,0.0,-2.2197,0.0,0.0,0.0,-2.351,-2.4124,-2.4807,-2.545,-2.6015,-2.6166,-2.6236,-2.627,-2.643,-2.6499,-2.6499,-2.6499,-2.6499,-2.6499,-2.6499,-2.6499,-2.6499,-2.6499,-2.6788,-2.7165,0.0,0.0,0.0,0.0,0.0,0.0,0.0,-2.9792,-2.9792,-2.9792,-2.9792,-2.9943,-3.0337,-3.0363,-3.0516,-3.0899,-3.0671,-3.0506,-3.0506,-3.0163,-2.9934,-2.9934,-2.9934,-2.9934,-2.9934,-3.0049,-3.0075,-3.0075,0.0,0.0,-2.9025,0.0,0.0,0.0,0.0,-2.865,0.0,0.0,0.0,-2.9352,-2.9013,-2.8612,-2.8109,-2.7821,-2.7544,-2.7354,-2.7412,-2.7637,-2.7793,-2.7182,-2.7045,-2.7113,-2.7024,-2.7079,-2.7146,-2.7146,-2.718,-2.7248,-2.7146,-2.7146,-2.7146,-2.7146,-2.7146,-2.7146,-2.7248,-2.7248,-2.7214,-2.7146,-2.7146,-2.7113,-2.7024,-2.699,0.0,0.0,0.0,0.0,0.0,0.0,0.0,0.0,0.0,0.0,0.0,0.0,0.0,0.0,0.0,-2.4553,-2.3083,0.0,-2.3035,0.0,0.0,0.0,-2.2197,0.0,-2.3127,-2.4013,-2.4347,-2.501,-2.591,-2.6097,-2.6213,-2.6213,-2.6396,-2.6499,-2.6499,-2.6499,-2.6499,-2.6499,-2.6499,-2.6499,-2.6524,-2.6813,-2.709,-2.7281,0.0,-2.9792,0.0,0.0,-2.9892,0.0,-2.9967,-3.0068,-3.0093,-2.998,-2.9967,-3.0168,-3.0721,-3.0783,-3.0947,-3.1348,-3.1022,-3.0783,-3.0783,-3.0269,-2.9967,-2.9967,-2.9854,-2.9792,-2.9792,-2.9792,-2.9792,0.0,0.0,0.0,0.0,0.0,0.0,0.0,0.0,0.0,0.0,0.0,-2.9792,-2.9754,-2.9302,-2.9001,-2.8838,-2.8448,-2.821,-2.8109,-2.8109,-2.8182,-2.8214,-2.7468,-2.7203,-2.7135,-2.7101,-2.7011,-2.6943,-2.6943,-2.6977,-2.699,-2.6943,-2.6943,-2.6943,-2.6943,-2.6943,-2.6956,-2.699,-2.699,-2.699,-2.6956,-2.6909,-2.6871,-2.679,-2.6731,0.0,0.0,0.0,0.0,0.0,0.0,0.0,0.0,0.0,0.0,-2.5385,0.0,0.0,0.0,0.0,-2.4369,-2.3228,-2.3071,-2.2739,0.0,0.0,-2.2197,-2.2197,0.0,-2.2886,-2.3947,-2.4068,-2.4682,-2.5793,-2.6027,-2.6131,-2.6131,-2.6396,-2.6499,-2.6499,-2.6499,-2.6499,-2.6499,-2.6499,-2.6562,-2.6725,-2.7118,-2.7431,-2.7632,0.0,0.0,0.0,0.0,0.0,0.0,-3.0545,-3.0934,-3.1072,-3.0608,-3.0545,-3.0733,-3.126,-3.1323,-3.1336,-3.1386,-3.1348,-3.1323,-3.1323,-3.0821,-3.0545,-3.0545,-3.0055,-2.9792,-2.9792,-2.9792,-2.9792,0.0,0.0,-2.9239,0.0,0.0,0.0,0.0,0.0,0.0,0.0,-2.9767,-2.9792,-2.9792,-2.9729,-2.9402,-2.8888,-2.8838,-2.8499,-2.8109,-2.8109,-2.8109,-2.8121,-2.802,-2.7811,-2.7513,-2.7311,-2.7028,-2.6726,-2.6726,-2.6875,-2.6943,-2.6794,-2.6726,-2.6726,-2.6726,-2.6726,-2.6794,-2.6943,-2.699,-2.6943,-2.676,-2.6624,-2.6438,-2.6067,-2.5853,-2.5597,0.0,0.0,0.0,0.0,0.0,-2.4067,-2.4067,0.0,0.0,0.0,-2.5799,0.0,0.0,-2.4612,-2.4673,-2.3758,-2.3276,-2.2739,-2.2209,-2.2197,-2.2197,-2.2197,-2.2666,-2.3228,-2.3806,-2.4263,-2.4759,-2.5382,-2.5758,-2.5945,-2.5945,-2.6327,-2.6499,-2.6499,-2.6499,-2.6499,-2.6499,-2.6499,-2.6801,-2.7241,-2.7268,-2.7921,-2.8737,0.0,0.0,0.0,0.0,0.0,0.0,0.0,-3.1248,-3.1436,-3.1562,-3.1286,-3.1286,-3.1825,-3.1888,-3.2026,-3.2378,-3.2089,-3.1888,-3.1888,-3.1386,-3.0947,-3.0633,-3.0407,-3.0131,-2.9804,-2.9792,-2.9792,0.0,0.0,0.0,0.0,0.0,0.0,0.0,0.0,-2.9792,-2.9792,-2.9792,-2.9792,-2.9792,-2.9792,-2.9654,-2.9453,-2.9453,-2.9315,-2.9114,-2.9114,-2.9114,-2.9114,-2.9114,-2.8561,-2.7891,-2.7819,-2.7465,-2.7047,-2.7047,-2.6889,-2.6671,-2.6589,-2.6589,-2.6589,-2.6589,-2.6589,-2.6589,-2.6671,-2.6705,-2.6671,-2.6589,-2.6521,-2.6458,-2.6299,-2.5904,-2.5456,-2.4992,0.0,0.0,0.0,0.0,0.0,0.0,0.0,-2.332,0.0,0.0,0.0,0.0,0.0,-2.4141,-2.3018,-2.2681,-2.2414,-2.2197,0.0,-2.2197,-2.2197,-2.2746,-2.3276,-2.3806,-2.4278,-2.4795,-2.5312,-2.5571,-2.5793,-2.591,-2.6188,-2.6339,-2.6339,-2.6339,-2.6396,-2.6524,-2.6851,-2.7115,-2.7369,-2.8021,-2.8512,-2.8938,-3.0846,0.0,-3.1386,0.0,-3.1524,-3.1637,-3.1637,-3.1775,-3.2026,-3.2416,-3.2127,-3.2039,-3.2416,-3.2466,-3.2629,-3.3043,-3.2704,-3.2466,-3.2466,-3.1938,-3.1474,-3.111,-3.0783,0.0,-3.0043,-2.9621,-2.9417,-2.9417,-2.9417,0.0,0.0,0.0,0.0,0.0,-2.9131,-2.917,-2.9417,-2.9417,-2.9585,-2.9792,-2.9792,-2.9792,-2.9792,-2.9792,-2.9792,-2.9792,-2.9792,-2.9792,-2.9792,-2.9792,-2.9264,-2.8574,-2.8398,-2.7971,-2.7519,-2.7519,-2.7165,-2.6738,-2.6738,-2.6612,-2.6499,-2.6499,-2.6499,-2.6499,-2.6499,-2.6499,-2.6499,-2.6499,-2.6499,-2.6449,-2.6273,-2.5694,-2.5074,-2.438,0.0,0.0,0.0,-2.2506,0.0,0.0,-2.209,-2.2226,-2.2698,-2.2806,0.0,0.0,0.0,0.0,0.0,0.0,0.0,0.0,0.0,0.0,-2.2426,-2.2987,-2.3505,-2.3989,-2.4506,-2.4939,-2.5312,-2.55,-2.5723,-2.591,-2.6097,-2.6213,-2.6213,-2.627,-2.6461,-2.6776,-2.7165,-2.7482,-2.7858,-2.8599,-2.9001,-2.9239,-3.1386,-3.1386,-3.1386,-3.1386,-3.1838,-3.2202,-3.2202,-3.2692,-3.3056,-3.3111,-3.3056,-3.3056,-3.3111,-3.3111,-3.3111,-3.3124,-3.3111,-3.3111,-3.3111,-3.2516,-3.2202,0.0,0.0,-3.062,-3.0608,-2.923,-2.8502,-2.8502,0.0,0.0,-2.6825,0.0,-2.744,-2.8462,-2.7557,-2.7637,-2.8502,-2.8502,-2.9,-2.9792,-2.9792,-2.9792,-2.9792,-2.9792,-2.9792,-2.9792,-2.9792,-2.9792,-2.9792,-2.9792,-2.9779,-2.9679,-2.9063,-2.8499,-2.8097,-2.8097,-2.7708,-2.7268,-2.7268,-2.6901,-2.6499,-2.6499,-2.6499,-2.6499,-2.6499,-2.6499,-2.6499,-2.6499,-2.6499,-2.6323,-2.5711,-2.4995,-2.4169,-2.3176,0.0,0.0,0.0,0.0,0.0,-2.2009,-2.1975,-2.1964,-2.2099,-2.2337,0.0,0.0,0.0,0.0,0.0,0.0,0.0,-2.2197,-2.2197,0.0,-2.2999,-2.3529,-2.4047,-2.4484,-2.5047,-2.53,-2.5312,-2.55,-2.5723,-2.591,-2.6097,-2.6213,-2.6201,-2.6396,-2.6813,-2.7268,-2.7281,-2.7946,-2.8875,-2.8888,-2.9289,-2.9779,-3.1755,-3.2055,-3.2359,-3.2541,-3.2679,-3.2805,-3.2805,-3.2998,-3.3124,-3.3124,-3.3124,-3.3124,-3.3124,-3.3124,-3.3124,0.0,-3.3124,-3.3124,0.0,-3.2905,-3.2629,-3.2227,-3.1888,-3.1524,-3.1148,-2.9768,-2.9044,-2.9044,0.0,0.0,0.0,-2.6976,-2.7202,-2.7516,-2.7232,-2.7273,-2.7557,-2.7557,-2.773,-2.7971,-2.7971,-2.7971,-2.8011,-2.8673,-2.8514,-2.8131,-2.9378,-2.9417,-2.9,-2.9585,-2.9792,-2.9767,-2.9578,-2.9126,-2.8662,-2.8662,-2.8285,-2.7846,-2.7846,-2.7444,-2.7052,-2.7052,-2.6776,-2.6499,-2.6499,-2.6499,-2.6499,-2.6499,-2.606,-2.5615,-2.5432,-2.4457,-2.3584,-2.3258,-2.2672,0.0,-2.1655,0.0,0.0,-2.0796,-2.0704,-2.0705,-2.0741,-2.0697,0.0,0.0,0.0,0.0,0.0,0.0,0.0,0.0,-2.1576,0.0,-2.2253,-2.3599,-2.4362,-2.4496,-2.5059,-2.5312,-2.5312,-2.55,-2.5571,-2.55,-2.5828,-2.591,-2.5865,-2.6538,-2.6928,-2.7165,-2.8073,-2.8612,-2.8938,-2.9365,-2.9641,-2.9792,-3.2086,-3.2401,-3.2624,-3.2307,-3.2339,-3.2239,-3.1789,-3.1701,-3.1701,-3.1701,-3.1701,-3.1701,-3.1701,-3.1701,0.0,-3.3025,-3.3124,-3.3124,-3.3124,-3.3124,-3.2918,-3.2554,-3.1978,-3.1536,-3.1203,-2.9433,0.0,-2.8242,-2.7144,-2.6771,-2.7098,-2.6771,-2.6607,-2.6607,-2.6287,-2.6287,-2.6607,-2.6607,-2.6823,-2.711,-2.711,-2.711,-2.7139,-2.7758,-2.7597,-2.7232,-2.8383,-2.8673,-2.8542,-2.8712,-2.9,-2.9248,-2.8882,-2.8768,-2.8807,-2.9125,-2.885,-2.8411,-2.8411,-2.8009,-2.7595,-2.7595,-2.7216,-2.6751,-2.6549,-2.628,-2.606,-2.606,-2.5406,-2.4862,-2.4862,-2.395,-2.314,-2.2949,-2.2375,-2.18,-2.1326,0.0,0.0,0.0,0.0,0.0,0.0,-1.9616,-1.9474,0.0,0.0,0.0,0.0,0.0,0.0,-2.0325,-2.1052,-2.1788,-2.2444,-2.3535,-2.4339,-2.4784,-2.5155,-2.5312,-2.5312,-2.5418,-2.5418,-2.5312,-2.5723,-2.5916,-2.597,-2.6763,-2.7292,-2.7691,-2.85,-2.8975,-2.9251,-2.9564,-2.9702,-2.9792,-3.2344,-3.2506,-3.2307,0.0,-3.1101,0.0,-2.9681,-2.9453,-2.9407,-2.9407,-2.9407,-2.9407,-2.9407,-2.9407,-3.0328,-3.2655,0.0,0.0,0.0,-3.3081,-3.3068,-3.2982,-3.1601,-3.0848,-3.0762,-2.8451,-2.6987,-2.6433,-2.5976,-2.6155,-2.6905,-2.608,-2.5704,-2.5663,-2.4861,-2.4935,-2.5704,-2.5704,-2.6163,-2.6905,-2.6905,-2.6905,-2.6946,-2.6987,-2.6987,-2.6946,-2.7069,-2.7597,-2.8171,-2.7395,-2.7678,-2.8251,-2.7395,-2.7678,-2.8581,-2.9456,-2.9364,-2.895,-2.895,-2.8586,-2.8123,-2.8086,-2.7637,-2.7039,-2.6489,-2.5795,-2.5242,-2.5206,-2.4564,-2.4011,-2.4011,-2.3412,-2.2774,-2.2328,-2.1633,-2.0963,-2.0498,-2.0436,0.0,0.0,0.0,0.0,-2.0074,-1.9191,-1.8572,0.0,0.0,0.0,0.0,0.0,-2.0236,-2.0602,-2.0679,-2.1571,-2.3315,-2.3396,-2.4073,-2.5312,-2.5312,-2.5312,-2.5312,-2.5312,-2.5336,-2.5372,-2.5784,-2.6113,-2.6469,-2.7119,-2.7851,-2.8573,-2.861,-2.9073,-2.9702,-2.947,-2.956,-2.9792,0.0,0.0,-3.2157,-3.2069,-3.1448,-3.089,-3.0576,-2.9875,-2.9407,-2.9407,-2.9407,-2.9407,-2.9407,-2.9407,-2.9636,-3.0226,-3.1134,-3.1965,-3.2754,-3.2995,-3.2754,-3.1989,-3.1592,-3.108,-3.0357,-2.869,-2.7069,-2.552,-2.5415,-2.525,-2.5105,-2.4903,-2.4818,-2.4775,-2.4583,-2.4615,-2.4818,-2.4818,-2.4946,-2.5115,-2.5115,-2.5115,-2.5189,-2.583,-2.5704,-2.5274,-2.6618,-2.6812,-2.6524,-2.6935,-2.7273,-2.7395,-2.7191,-2.7273,-2.7597,-2.8542,-2.9201,-2.9591,-2.9591,-2.9164,-2.8537,-2.7896,-2.679,-2.5791,-2.5302,-2.5075,-2.4811,-2.4454,-2.3779,-2.325,-2.325,-2.2617,-2.2069,-2.1954,-2.1755,-2.1476,-2.101,-2.0812,-2.0637,0.0,-2.023,-2.0047,-2.011,-1.9768,-1.9504,0.0,0.0,0.0,-1.9131,-1.9346,-1.9514,-1.9615,-2.0504,-2.1496,-2.2548,-2.3466,-2.4411,-2.5312,-2.5312,-2.5312,-2.5312,-2.5312,-2.5528,-2.5913,-2.6178,-2.6457,-2.6841,-2.7704,-2.8086,-2.8191,-2.8762,-2.9098,-2.93,-2.938,-2.9419,-2.9509,-3.1749,-3.1572,-3.1193,-3.0767,-2.9977,-2.92,-2.8598,-2.8085,-2.7709,-2.7709,-2.7709,-2.7709,-2.7709,-2.7709,-2.7887,-2.8344,-2.9624,-3.0586,-3.1158,-3.1335,-3.1158,-3.0609,-3.0147,-2.9681,-2.9177,-2.8046,-2.6942,-2.5844,-2.5627,-2.5295,-2.4817,-2.4817,-2.4704,-2.4497,-2.4497,-2.4497,-2.4497,-2.4497,-2.4497,-2.4497,-2.4497,-2.4497,-2.454,-2.502,-2.4893,-2.4615,-2.5558,-2.5872,-2.583,-2.5883,-2.6163,-2.6442,-2.6049,-2.6163,-2.6607,-2.711,-2.7879,-2.8554,-2.8554,-2.8337,-2.7918,-2.7199,-2.6422,-2.5737,-2.5222,-2.4842,-2.4428,-2.4011,-2.3307,-2.2706,-2.2483,-2.2101,-2.1807,-2.1807,-2.1731,-2.1562,-2.1316,-2.1097,-2.0859,-2.0476,-2.0352,-2.0198,-1.9985,-1.9841,-1.9716,-1.9608,-1.9583,0.0,-1.957,-1.9766,-1.9822,-1.958,-2.0232,-2.1028,-2.204,-2.311,-2.4156,-2.5312,-2.4933,-2.4933,-2.5312,-2.5564,-2.5829,-2.6105,-2.6578,-2.6977,-2.732,-2.8018,-2.8313,-2.8402,-2.8812,-2.9,-2.9091,-2.9118,-2.9184,-2.9275,-3.1104,-3.0678,-2.9886,-2.8866,-2.8038,-2.7163,-2.61,-2.5781,-2.5693,-2.5693,-2.5693,-2.5693,-2.5693,-2.5693,-2.6052,-2.6914,-2.8121,-2.8993,-2.9315,-2.9361,-2.9315,-2.9177,-2.8344,-2.7829,-2.7688,-2.7146,-2.6713,-2.6476,-2.6129,-2.5716,-2.5248,-2.5292,-2.5044,-2.4611,-2.4611,-2.4559,-2.4497,-2.4497,-2.4497,-2.4497,-2.4497,-2.4497,-2.4497,-2.4497,-2.4497,-2.4497,-2.4497,-2.4978,-2.5505,-2.4743,-2.4978,-2.5463,-2.4743,-2.502,-2.5579,-2.5579,-2.6121,-2.6782,-2.7028,-2.6987,-2.6792,-2.6331,-2.6108,-2.5904,-2.5369,-2.4735,-2.4129,-2.3703,-2.303,-2.2377,-2.1983,-2.1859,-2.1807,-2.1769,-2.1617,-2.1512,-2.1474,0.0,-2.1026,-2.0644,-2.0567,-2.0416,-1.9989,-1.9869,-1.9769,-1.9769,-1.9899,-2.0019,-2.0019,-2.0361,-2.0429,-2.0029,-2.0019,-2.0594,-2.1794,-2.2585,-2.372,-2.5123,-2.4526,-2.4633,-2.5444,-2.5985,-2.6262,-2.637,-2.7014,-2.7484,-2.7837,-2.8185,-2.848,-2.8764,-2.8764,-2.8855,-2.8973,-2.8843,-2.8843,-2.8882,-2.9143,-2.905,-2.8912,-2.8727,-2.7887,-2.7189,-2.701,-2.6235,-2.5693,-2.5693,-2.5693,-2.5693,-2.5693,-2.5693,-2.5781,-2.5917,-2.6149,-2.7067,-2.8958,-2.9269,-2.9028,-2.8147,-2.796,-2.7521,-2.6716,-2.664,-2.637,-2.5916,-2.6089,-2.5926,-2.5476,-2.5692,-2.5544,-2.5086,-2.5086,-2.4859,-2.4497,-2.4497,-2.4497,-2.4497,-2.4497,-2.4497,-2.4497,-2.4497,-2.4497,-2.4497,-2.4497,-2.4583,-2.47,-2.454,-2.4583,-2.47,-2.454,-2.4583,-2.47,-2.47,-2.4786,-2.5232,-2.67,-2.6565,-2.5975,-2.5898,-2.5314,-2.4682,-2.423,-2.4043,-2.3835,-2.3365,-2.2839,-2.248,-2.2397,-2.2066,-2.1731,-2.1578,-2.1512,-2.1436,-2.1282,0.0,-2.0992,-2.1076,-2.0951,-2.0816,-2.0746,-2.0708,-2.0621,-2.0448,-2.0468,-2.0507,-2.0507,-2.0566,-2.0576,-2.0507,-2.0507,-2.0913,-2.1794,-2.2585,-2.3427,-2.4301,-2.4618,-2.5207,-2.5997,-2.6513,-2.7006,-2.7476,-2.756,-2.7897,-2.839,-2.843,-2.8518,-2.855,-2.855,-2.859,-2.8618,-2.8764,-2.8343,-2.7879,-2.8588,-2.8262,-2.7887,-2.7887,-2.7057,-2.637,-2.637,-2.6004,-2.5693,-2.5693,-2.5693,-2.5693,-2.5693,-2.5693,-2.5693,-2.5693,-2.5693,-2.6149,-2.7173,-2.7342,-2.72,-2.6744,-2.6744,-2.6562,-2.6294,-2.6294,-2.6252,-2.6184,-2.629,-2.6104,-2.5669,-2.5946,-2.5792,-2.5372,-2.5496,-2.5382,-2.5033,-2.4797,-2.4651,-2.4489,-2.4201,-2.4196,-2.4335,-2.4335,-2.4411,-2.4497,-2.4497,-2.4497,-2.4497,-2.4497,-2.4497,-2.4497,-2.4497,-2.4497,-2.4497,-2.4497,-2.4497,-2.4658,-2.5474,-2.539,-2.5105,-2.5105,-2.4775,-2.4445,-2.4281,-2.4229,-2.4105,-2.365,-2.3391,-2.3163,-2.2915,-2.2412,-2.1986,-2.1869,-2.1482,0.0,-2.1061,-2.0858,-2.077,-2.0886,-2.077,-2.0731,-2.0731,-2.0731,-2.0693,-2.0605,-2.0605,-2.0605,-2.0605,-2.0605,-2.0713,-2.0918,-2.0693,-2.0972,-2.1804,-2.1937,-2.2628,-2.3839,-2.4368,-2.4795,-2.5112,-2.6163,-2.6769,-2.7015,-2.7296,-2.7834,-2.851,-2.851,-2.851,-2.8471,-2.7966,-2.8099,-2.8379,-2.7528,-2.7232,-2.7325,-2.7851,-2.7379,-2.6877,-2.6877,-2.6187,-2.5693,-2.5693,-2.5693,-2.5693,-2.5693,-2.5693,-2.5693,-2.5693,-2.5693,-2.5693,-2.5693,-2.5693,-2.5693,-2.5693,-2.5693,-2.5693,-2.5693,-2.5693,-2.5781,-2.6004,-2.6004,-2.611,-2.6304,-2.64,-2.622,-2.5889,-2.6125,-2.6042,-2.5559,-2.5767,-2.5716,-2.5376,-2.5086,-2.4844,-2.4591,-2.4239,-2.4179,-2.4273,-2.4273,-2.4331,-2.4411,-2.4411,-2.4454,-2.4497,-2.4497,-2.4497,-2.4497,-2.4464,-2.4411,-2.4411,-2.4368,-2.4325,-2.4368,-2.4454,-2.4497,-2.4497,-2.4454,-2.4454,-2.4497,-2.4454,-2.4411,-2.4318,-2.4021,-2.3866,-2.3639,-2.3289,-2.2685,-2.2259,-2.2219,0.0,-2.1174,-2.1135,-2.0997,-2.0869,-2.0732,-2.0723,-2.0684,-2.0615,-2.0693,-2.0723,-2.0723,-2.086,-2.0909,-2.0909,-2.0909,-2.1035,-2.1337,-2.1055,-2.1213,-2.1816,-2.1521,-2.209,-2.3487,-2.3989,-2.4284,-2.4415,-2.5681,-2.6268,-2.629,-2.6676,-2.7255,-2.7874,-2.7874,-2.7874,-2.7794,-2.7133,-2.7296,-2.7713,-2.6329,-2.6121,-2.6505,-2.5917,-2.5878,-2.583,-2.583,-2.5732,-2.5693,-2.5693,-2.5693,-2.5693,-2.5693,-2.5693,-2.5693,-2.5693,-2.5693,-2.5693,-2.5693,-2.5693,-2.5693,-2.5693,-2.5693,-2.5693,-2.5693,-2.5693,-2.5684,-2.5732,-2.5732,-2.5732,-2.5781,-2.6014,-2.6129,-2.6099,-2.635,-2.6215,-2.5782,-2.5782,-2.5541,-2.5113,-2.5083,-2.5062,-2.5052,-2.5022,-2.4771,-2.4464,-2.4464,-2.4388,-2.4206,-2.4206,-2.4335,-2.4497,-2.4497,-2.4497,-2.4454,-2.4292,-2.4206,-2.4153,-2.3927,-2.3841,-2.3927,-2.4368,-2.4497,-2.4454,-2.4282,-2.4368,-2.4454,-2.4249,-2.4206,-2.4196,-2.4166,-2.3691,-2.3229,-2.3199,-2.2816,-2.2432,-2.2237,0.0,0.0,-2.1828,-2.1787,-2.1641,-2.119,-2.1142,-2.1025,-2.0644,-2.0937,-2.1142,-2.1142,-2.1562,-2.1787,-2.1787,-2.1787,-2.1807,-2.1836,-2.1807,-2.1828,-2.191,-2.1858,-2.2278,-2.3152,-2.3628,-2.4249,-2.4954,-2.5557,-2.5859,-2.5859,-2.5891,-2.5955,-2.5997,-2.5997,-2.5997,-2.5986,-2.5913,-2.5955,-2.5986,-2.5872,-2.5326,-2.4787,-2.5693,-2.5693,-2.5693,-2.5693,-2.5693,-2.5693,-2.5693,-2.5693,-2.5693,-2.5693,-2.5693,-2.5693,-2.5693,-2.5693,-2.5693,-2.5693,-2.5693,-2.5693,-2.5693,-2.5693,-2.5693,-2.5693,-2.5693,-2.5693,-2.5693,-2.5693,-2.5693,-2.5693,-2.5781,-2.5868,-2.5868,-2.611,-2.6156,-2.5996,-2.6149,-2.6049,-2.568,-2.5458,-2.5245,-2.5075,-2.4799,-2.4693,-2.469,-2.469,-2.4726,-2.4755,-2.4755,-2.48,-2.4838,-2.4564,-2.4483,-2.4432,-2.4061,-2.3927,-2.3927,-2.3841,-2.3797,-2.3841,-2.4013,-2.4057,-2.4057,-2.397,-2.4024,-2.4057,-2.397,-2.3927,-2.3927,-2.3927,-2.3753,-2.3546,-2.3546,-2.311,-2.2737,-2.2653,0.0,-2.2009,-2.1926,-2.1885,-2.1826,-2.166,-2.1641,-2.1572,-2.1406,-2.1533,-2.1641,-2.1641,-2.1787,-2.1885,-2.1885,-2.2129,-2.2275,-2.2275,-2.2529,-2.2412,-2.1894,-2.2139,-2.2434,-2.2727,-2.3728,-2.4102,-2.3858,-2.466,-2.4999,-2.4999,-2.4999,-2.5284,-2.5777,-2.5777,-2.5777,-2.5746,-2.52,-2.5326,-2.5652,-2.452,-2.4274,-2.4456,-2.5693,-2.5693,-2.5693,-2.5693,-2.5693,-2.5693,-2.5693,-2.5693,-2.5693,-2.5693,-2.5693,-2.5693,-2.5693,-2.5693,-2.5693,-2.5693,-2.5693,-2.5693,-2.5693,-2.5693,-2.5693,-2.5693,-2.5693,-2.5693,-2.5693,-2.5693,-2.5693,-2.5693,-2.5693,-2.5693,-2.5693,-2.5868,-2.5955,-2.5955,-2.6159,-2.6159,-2.5945,-2.5698,-2.5474,-2.5254,-2.4951,-2.4849,-2.4908,-2.4908,-2.4957,-2.5021,-2.5021,-2.5067,-2.5062,-2.4771,-2.4671,-2.4611,-2.4221,-2.4077,-2.3958,-2.3829,-2.3789,-2.3759,-2.362,-2.358,-2.358,-2.3667,-2.3754,-2.3797,-2.3711,-2.3711,-2.3711,-2.3711,-2.3624,-2.358,-2.358,-2.3256,-2.2972,-2.2972,-2.2598,-2.2275,-2.2275,-2.2275,-2.2227,-2.21,-2.209,-2.2031,-2.1894,-2.2002,-2.209,-2.209,-2.2207,-2.2275,-2.2275,-2.2549,-2.2672,-2.2672,-2.2945,-2.2818,-2.2285,-2.2568,-2.2672,-2.2715,-2.3637,-2.3734,-2.3135,-2.3777,-2.4069,-2.4069,-2.4069,-2.4402,-2.4946,-2.4946,-2.4946,-2.4904,-2.4274,-2.4445,-2.4819,-2.356,-2.3517,-2.3983,-2.5693,-2.5693,-2.5693,-2.5693,-2.5693,-2.5693,-2.5693,-2.5693,-2.5693,-2.5693,-2.5693,-2.5693,-2.5693,-2.5693,-2.5693,-2.5693,-2.5693,-2.5693,-2.5693,-2.5693,-2.5693,-2.5693,-2.5693,-2.5693,-2.5693,-2.5693,-2.5693,-2.5693,-2.5693,-2.5693,-2.5693,-2.5693,-2.5693,-2.5693,-2.5693,-2.5693,-2.5693,-2.5693,-2.5693,-2.5693,-2.5693,-2.5469,-2.5116,-2.5116,-2.4992,-2.4812,-2.4812,-2.494,-2.5123,-2.5113,-2.5113,-2.5067,-2.4848,-2.4608,-2.4336,-2.3916,-2.3799,-2.3701,-2.3227,-2.3101,-2.3188,-2.3416,-2.3667,-2.3754,-2.3547,-2.3503,-2.3503,-2.3503,-2.3276,-2.3091,-2.3091,-2.3091,-2.3091,-2.3091,-2.3091,-2.3091,-2.3091,-2.3091,-2.2945,-2.2568,-2.2519,-2.2353,-2.1934,-2.2275,-2.2519,-2.2519,-2.2857,-2.3091,-2.3091,-2.3091,-2.3091,-2.3091,-2.3091,-2.3091,-2.3091,-2.3091,-2.3091,-2.3091,-2.3091,-2.3091,-2.3091,-2.3091,-2.3091,-2.3091,-2.3091,-2.3091,-2.3091,-2.3091,-2.3091,-2.3091,-2.3091,-2.3091,-2.3091,-2.3091,-2.3091,-2.3091,-2.5693,-2.5693,-2.5693,-2.5693,-2.5693,-2.5693,-2.5693,-2.5693,-2.5693,-2.5693,-2.5693,-2.5693,-2.5693,-2.5693,-2.5693,-2.5693,-2.5693,-2.5693,-2.5693,-2.5693,-2.5693,-2.5693,-2.5693,-2.5693,-2.5693,-2.5693,-2.5693,-2.5693,-2.5693,-2.5693,-2.5693,-2.5693,-2.5693,-2.5693,-2.5693,-2.5693,-2.5693,-2.5693,-2.5693,-2.5693,-2.5693,-2.5615,-2.5537,-2.5537,-2.5459,-2.5437,-2.5437,-2.5485,-2.5484,-2.5216,-2.5108,-2.5012,-2.465,-2.446,-2.4394,-2.4268,-2.4228,-2.4199,-2.4072,-2.3818,-2.3525,-2.3266,-2.3276,-2.3266,-2.3232,-2.3232,-2.3232,-2.3232,-2.3144,-2.3091,-2.3091,-2.3091,-2.3091,-2.3091,-2.3091,-2.3091,-2.3091,-2.3091,-2.3052,-2.2925,-2.2906,-2.2857,-2.274,-2.2838,-2.2906,-2.2906,-2.3023,-2.3091,-2.3091,-2.3091,-2.3091,-2.3091,-2.3091,-2.3091,-2.3091,-2.3091,-2.3091,-2.3091,-2.3091,-2.3091,-2.3091,-2.3091,-2.3091,-2.3091,-2.3091,-2.3091,-2.3091,-2.3091,-2.3091,-2.3091,-2.3091,-2.3091,-2.3091,-2.3091,-2.3091,-2.3091,-2.5996,-2.6133,-2.6191,-2.6191,-2.6191,-2.6191,-2.6191,-2.6191,-2.6132,-2.6016,-2.5996,-2.5928,-2.5703,-2.5693,-2.5693,-2.5693,-2.5693,-2.5693,-2.5693,-2.5693,-2.5693,-2.5693,-2.5693,-2.5693,-2.5693,-2.5693,-2.5693,-2.5693,-2.5693,-2.5693,-2.5693,-2.5693,-2.5693,-2.5693,-2.5693,-2.5693,-2.5693,-2.5693,-2.5693,-2.5693,-2.5693,-2.5693,-2.5693,-2.5693,-2.5693,-2.5693,-2.5693,-2.5693,-2.5645,-2.543,-2.5332,-2.5293,-2.5019,-2.4894,-2.4855,-2.4727,-2.4678,-2.4639,-2.4463,-2.4228,-2.3975,-2.3711,-2.3344,-2.3091,-2.3091,-2.3091,-2.3091,-2.3091,-2.3091,-2.3091,-2.3091,-2.3091,-2.3091,-2.3091,-2.3091,-2.3091,-2.3091,-2.3091,-2.3091,-2.3091,-2.3091,-2.3091,-2.3091,-2.3091,-2.3091,-2.3091,-2.3091,-2.3091,-2.3091,-2.3091,-2.3091,-2.3091,-2.3091,-2.3091,-2.3091,-2.3091,-2.3091,-2.3091,-2.3091,-2.3091,-2.3091,-2.3091,-2.3091,-2.3091,-2.3091,-2.3091,-2.3091,-2.3091,-2.3091,-2.3091,-2.3091,-2.3091,-2.3091,-2.3091,-2.3091,-2.3091,-2.6445,-2.6758,-2.7012,-2.7012,-2.7012,-2.7012,-2.7012,-2.7012,-2.6875,-2.6494,-2.6445,-2.6289,-2.5849,-2.5801,-2.5791,-2.5752,-2.5713,-2.5693,-2.5693,-2.5693,-2.5693,-2.5693,-2.5693,-2.5693,-2.5693,-2.5693,-2.5693,-2.5693,-2.5693,-2.5693,-2.5693,-2.5693,-2.5693,-2.5693,-2.5693,-2.5693,-2.5693,-2.5693,-2.5693,-2.5693,-2.5693,-2.5693,-2.5693,-2.5693,-2.5693,-2.5693,-2.5693,-2.5693,-2.5693,-2.5693,-2.5693,-2.5693,-2.5693,-2.5693,-2.5615,-2.5244,-2.5127,-2.5039,-2.4639,-2.4502,-2.4473,-2.4473,-2.3812,-2.3198,-2.3159,-2.3149,-2.314,-2.3101,-2.3091,-2.3091,-2.3091,-2.3091,-2.3091,-2.3091,-2.3091,-2.3091,-2.3091,-2.3091,-2.3091,-2.3091,-2.3091,-2.3091,-2.3091,-2.3091,-2.3091,-2.3091,-2.3091,-2.3091,-2.3091,-2.3091,-2.3091,-2.3091,-2.3091,-2.3091,-2.3091,-2.3091,-2.3091,-2.3091,-2.3091,-2.3091,-2.3091,-2.3091,-2.3091,-2.3091,-2.3091,-2.3091,-2.3091,-2.3091,-2.3091,-2.3091,-2.3091,-2.3091,-2.3091,-2.3091,-2.3091,-2.3091,-2.6875,-2.6953,-2.7012,-2.7012,-2.7012,-2.7012,-2.7012,-2.7012,-2.6982,-2.6894,-2.6875,-2.6846,-2.6748,-2.6738,-2.6602,-2.6279,-2.5937,-2.5693,-2.5693,-2.5693,-2.5693,-2.5693,-2.5693,-2.5693,-2.5693,-2.5693,-2.5693,-2.5693,-2.5693,-2.5693,-2.5693,-2.5693,-2.5693,-2.5693,-2.5693,-2.5693,-2.5693,-2.5693,-2.5693,-2.5693,-2.5693,-2.5693,-2.5693,-2.5693,-2.5693,-2.5693,-2.5693,-2.5693,-2.5693,-2.5693,-2.5693,-2.5693,-2.5693,-2.5693,-2.5674,-2.5625,-2.5596,-2.5566,-2.543,-2.5195,-2.4969,-2.4969,-2.4531,-2.4053,-2.3721,-2.3652,-2.3555,-2.3169,-2.3091,-2.3091,-2.3091,-2.3091,-2.3091,-2.3091,-2.3091,-2.3091,-2.3091,-2.3091,-2.3091,-2.3091,-2.3091,-2.3091,-2.3091,-2.3091,-2.3091,-2.3091,-2.3091,-2.3091,-2.3091,-2.3091,-2.3091,-2.3091,-2.3091,-2.3091,-2.3091,-2.3091,-2.3091,-2.3091,-2.3091,-2.3091,-2.3091,-2.3091,-2.3091,-2.3091,-2.3091,-2.3091,-2.3091,-2.3091,-2.3091,-2.3091,-2.3091,-2.3091,-2.3091,-2.3091,-2.3091,-2.3091,-2.7324,-2.749,-2.7627,-2.7627,-2.7627,-2.7627,-2.7627,-2.7627,-2.7549,-2.7353,-2.7324,-2.7246,-2.7041,-2.7012,-2.6846,-2.6426,-2.6182,-2.5967,-2.5703,-2.5693,-2.5693,-2.5693,-2.5693,-2.5693,-2.5693,-2.5693,-2.5693,-2.5693,-2.5693,-2.5693,-2.5693,-2.5693,-2.5693,-2.5693,-2.5693,-2.5693,-2.5693,-2.5693,-2.5693,-2.5693,-2.5693,-2.5693,-2.5693,-2.5693,-2.5693,-2.5693,-2.5693,-2.5693,-2.5693,-2.5693,-2.5693,-2.5693,-2.5693,-2.5693,-2.5693,-2.5693,-2.5693,-2.5693,-2.5693,-2.5566,-2.5391,-2.5391,-2.5215,-2.4873,-2.4238,-2.4092,-2.3965,-2.3535,-2.3447,-2.3389,-2.313,-2.3091,-2.3091,-2.3091,-2.3091,-2.3091,-2.3091,-2.3091,-2.3091,-2.3091,-2.3091,-2.3091,-2.3091,-2.3091,-2.3091,-2.3091,-2.3091,-2.3091,-2.3091,-2.3091,-2.3091,-2.3091,-2.3091,-2.3091,-2.3091,-2.3091,-2.3091,-2.3091,-2.3091,-2.3091,-2.3091,-2.3091,-2.3091,-2.3091,-2.3091,-2.3091,-2.3091,-2.3091,-2.3091,-2.3091,-2.3091,-2.3091,-2.3091,-2.3091,-2.3091,-2.3091,-2.7826,-2.8057,-2.8291,-2.8291,-2.8291,-2.8291,-2.8291,-2.8291,-2.8164,-2.7875,-2.7826,-2.7637,-2.7275,-2.7168,-2.6982,-2.6641,-2.6543,-2.6309,-2.583,-2.5801,-2.5762,-2.5693,-2.5693,-2.5693,-2.5693,-2.5693,-2.5693,-2.5693,-2.5693,-2.5693,-2.5693,-2.5693,-2.5693,-2.5693,-2.5693,-2.5693,-2.5693,-2.5693,-2.5693,-2.5693,-2.5693,-2.5693,-2.5693,-2.5693,-2.5693,-2.5693,-2.5693,-2.5693,-2.5693,-2.5693,-2.5693,-2.5693,-2.5693,-2.5693,-2.5693,-2.5693,-2.5693,-2.5693,-2.5693,-2.5693,-2.5693,-2.5693,-2.5693,-2.5499,-2.4805,-2.458,-2.4404,-2.3984,-2.3896,-2.3789,-2.3383,-2.3315,-2.3286,-2.3218,-2.3208,-2.3179,-2.311,-2.3091,-2.3091,-2.3091,-2.3091,-2.3091,-2.3091,-2.3091,-2.3091,-2.3091,-2.3091,-2.3091,-2.3091,-2.3091,-2.3091,-2.3091,-2.3091,-2.3091,-2.3091,-2.3091,-2.3091,-2.3091,-2.3091,-2.3091,-2.3091,-2.3091,-2.3091,-2.3091,-2.3091,-2.3091,-2.3091,-2.3091,-2.3091,-2.3091,-2.3091,-2.3091,-2.3091,-2.3091,-2.3091,-2.3091,-2.8203,-2.8252,-2.8291,-2.8291,-2.8291,-2.8291,-2.8291,-2.8291,-2.8271,-2.8213,-2.8203,-2.8184,-2.8125,-2.7793,-2.7559,-2.7552,-2.7148,-2.6748,-2.6328,-2.6299,-2.6133,-2.5703,-2.5693,-2.5693,-2.5693,-2.5693,-2.5693,-2.5693,-2.5693,-2.5693,-2.5693,-2.5693,-2.5693,-2.5693,-2.5693,-2.5693,-2.5693,-2.5693,-2.5693,-2.5693,-2.5693,-2.5693,-2.5693,-2.5693,-2.5693,-2.5693,-2.5693,-2.5693,-2.5693,-2.5693,-2.5693,-2.5693,-2.5693,-2.5693,-2.5693,-2.5693,-2.5693,-2.5693,-2.5693,-2.5693,-2.5693,-2.5693,-2.5693,-2.5664,-2.5538,-2.5264,-2.4853,-2.4414,-2.4336,-2.4316,-2.4258,-2.4238,-2.4121,-2.376,-2.3701,-2.3574,-2.3149,-2.3091,-2.3091,-2.3091,-2.3091,-2.3091,-2.3091,-2.3091,-2.3091,-2.3091,-2.3091,-2.3091,-2.3091,-2.3091,-2.3091,-2.3091,-2.3091,-2.3091,-2.3091,-2.3091,-2.3091,-2.3091,-2.3091,-2.3091,-2.3091,-2.3091,-2.3091,-2.3091,-2.3091,-2.3091,-2.3091,-2.3091,-2.3091,-2.3091,-2.3091,-2.3091,-2.3091,-2.3091,-2.3091,-2.3091,-2.8291,-2.8291,-2.8291,-2.8291,-2.8291,-2.8291,-2.8291,-2.8291,-2.8291,-2.8291,-2.8291,-2.8291,-2.8291,-2.8125,-2.792,-2.7738,-2.749,-2.7197,-2.6768,-2.6514,-2.6299,-2.6113,-2.582,-2.5693,-2.5693,-2.5693,-2.5693,-2.5693,-2.5693,-2.5693,-2.5693,-2.5693,-2.5693,-2.5693,-2.5693,-2.5693,-2.5693,-2.5693,-2.5693,-2.5693,-2.5693,-2.5693,-2.5693,-2.5693,-2.5693,-2.5693,-2.5693,-2.5693,-2.5693,-2.5693,-2.5693,-2.5693,-2.5693,-2.5693,-2.5693,-2.5693,-2.5693,-2.5693,-2.5693,-2.5693,-2.5693,-2.5693,-2.5693,-2.5693,-2.5693,-2.5538,-2.5312,-2.4873,-2.4775,-2.4707,-2.4463,-2.4414,-2.4355,-2.417,-2.4141,-2.4072,-2.3877,-2.3812,-2.3812,-2.3812,-2.3812,-2.3812,-2.3812,-2.3812,-2.3812,-2.3812,-2.3812,-2.3812,-2.3812,-2.3812,-2.3812,-2.3812,-2.3812,-2.3812,-2.3812,-2.3812,-2.3812,-2.3812,-2.3812,-2.3559,-2.3091,-2.3091,-2.3091,-2.3091,-2.3091,-2.3091,-2.3091,-2.3091,-2.3091,-2.3091,-2.3091,-2.3091,-2.3091,-2.3091,-2.3091,-2.3091]},{"header":{"parameterUnit":"m.s-1","parameterCategory":1,"la1":30.6,"la2":28.766,"lo1":-90.7593,"lo2":-88.6598,"dy":0.0162,"dx":0.0183,"nx":116,"ny":114,"refTime":"2024-04-29T18:00:00:Z","depth":0,"parameterNumber":3,"parameterNumberName":"V-component_of_WINDS"},"data":[0.0,0.0,0.0,0.0,0.0,0.0,0.0,0.0,0.0,0.0,0.0,0.0,0.0,0.0,0.0,0.0,0.0,0.0,0.0,0.0,0.0,0.0,0.0,0.0,0.0,0.0,0.0,0.0,0.0,0.0,0.0,0.0,0.0,0.0,0.0,0.0,0.0,0.0,0.0,0.0,0.0,0.0,0.0,0.0,0.0,0.0,0.0,0.0,0.0,0.0,0.0,0.0,0.0,0.0,0.0,0.0,0.0,0.0,0.0,0.0,0.0,0.0,0.0,0.0,0.0,0.0,0.0,0.0,0.0,0.0,0.0,0.0,0.0,0.0,0.0,0.0,0.0,0.0,0.0,0.0,0.0,0.0,0.0,0.0,0.0,0.0,0.0,0.0,0.0,0.0,0.0,0.0,0.0,0.0,0.0,0.0,0.0,0.0,0.0,0.0,0.0,0.0,0.0,0.0,0.0,0.0,0.0,0.0,0.0,0.0,0.0,0.0,0.0,0.0,0.0,0.0,0.0,0.0,0.0,0.0,0.0,0.0,0.0,0.0,0.0,0.0,0.0,0.0,0.0,0.0,0.0,0.0,0.0,0.0,0.0,0.0,0.0,0.0,0.0,0.0,0.0,0.0,0.0,0.0,0.0,0.0,0.0,0.0,0.0,0.0,0.0,0.0,0.0,0.0,0.0,0.0,0.0,0.0,0.0,0.0,0.0,0.0,0.0,0.0,0.0,0.0,0.0,0.0,0.0,0.0,0.0,0.0,0.0,0.0,0.0,0.0,0.0,0.0,0.0,0.0,0.0,0.0,0.0,0.0,0.0,0.0,0.0,0.0,0.0,0.0,0.0,0.0,0.0,0.0,0.0,0.0,0.0,0.0,0.0,0.0,0.0,0.0,0.0,0.0,0.0,0.0,0.0,0.0,0.0,0.0,0.0,0.0,0.0,0.0,0.0,0.0,0.0,0.0,0.0,0.0,0.0,0.0,0.0,0.0,0.0,0.0,0.0,0.0,0.0,0.0,0.0,0.0,0.0,0.0,0.0,0.0,0.0,0.0,0.0,0.0,0.0,0.0,0.0,0.0,0.0,0.0,0.0,0.0,0.0,0.0,0.0,0.0,0.0,0.0,0.0,0.0,0.0,0.0,0.0,0.0,0.0,0.0,0.0,0.0,0.0,0.0,0.0,0.0,0.0,0.0,0.0,0.0,0.0,0.0,0.0,0.0,0.0,0.0,0.0,0.0,0.0,0.0,0.0,0.0,0.0,0.0,0.0,0.0,0.0,0.0,0.0,0.0,0.0,0.0,0.0,0.0,0.0,0.0,0.0,0.0,0.0,0.0,0.0,0.0,0.0,0.0,0.0,0.0,0.0,0.0,0.0,0.0,0.0,0.0,0.0,0.0,0.0,0.0,0.0,0.0,0.0,0.0,0.0,0.0,0.0,0.0,0.0,0.0,0.0,0.0,0.0,0.0,0.0,0.0,0.0,0.0,0.0,0.0,0.0,0.0,0.0,0.0,0.0,0.0,0.0,0.0,0.0,0.0,0.0,0.0,0.0,0.0,0.0,0.0,0.0,0.0,0.0,0.0,0.0,0.0,0.0,0.0,0.0,0.0,0.0,0.0,0.0,0.0,0.0,0.0,0.0,0.0,0.0,0.0,0.0,0.0,0.0,0.0,0.0,0.0,0.0,0.0,0.0,0.0,0.0,0.0,0.0,0.0,0.0,0.0,0.0,0.0,0.0,0.0,0.0,0.0,0.0,0.0,0.0,0.0,0.0,0.0,0.0,0.0,0.0,0.0,0.0,0.0,0.0,0.0,0.0,0.0,0.0,0.0,0.0,0.0,0.0,0.0,0.0,0.0,0.0,0.0,0.0,0.0,0.0,0.0,0.0,0.0,0.0,0.0,0.0,0.0,0.0,0.0,0.0,0.0,0.0,0.0,0.0,0.0,0.0,0.0,0.0,0.0,0.0,0.0,0.0,0.0,0.0,0.0,0.0,0.0,0.0,0.0,0.0,0.0,0.0,0.0,0.0,0.0,0.0,0.0,0.0,0.0,0.0,0.0,0.0,0.0,0.0,0.0,0.0,0.0,0.0,0.0,0.0,0.0,0.0,0.0,0.0,0.0,0.0,0.0,0.0,0.0,0.0,0.0,0.0,0.0,0.0,0.0,0.0,0.0,0.0,0.0,0.0,0.0,0.0,0.0,0.0,0.0,0.0,0.0,0.0,0.0,0.0,0.0,0.0,0.0,0.0,0.0,0.0,0.0,0.0,0.0,0.0,0.0,0.0,0.0,0.0,0.0,0.0,0.0,0.0,0.0,0.0,0.0,0.0,0.0,0.0,0.0,0.0,0.0,0.0,0.0,0.0,0.0,0.0,0.0,0.0,0.0,0.0,0.0,0.0,0.0,0.0,0.0,0.0,0.0,0.0,0.0,0.0,0.0,0.0,0.0,0.0,0.0,0.0,0.0,0.0,0.0,0.0,0.0,0.0,0.0,0.0,0.0,0.0,0.0,0.0,0.0,0.0,0.0,0.0,0.0,0.0,0.0,0.0,0.0,0.0,0.0,0.0,0.0,0.0,0.0,0.0,0.0,0.0,0.0,0.0,0.0,0.0,0.0,0.0,0.0,0.0,0.0,0.0,0.0,0.0,0.0,0.0,0.0,0.0,0.0,0.0,0.0,0.0,0.0,0.0,0.0,0.0,0.0,0.0,0.0,0.0,0.0,0.0,0.0,0.0,0.0,0.0,0.0,0.0,0.0,0.0,0.0,0.0,0.0,0.0,0.0,0.0,0.0,0.0,0.0,0.0,0.0,0.0,0.0,0.0,0.0,0.0,0.0,0.0,0.0,0.0,0.0,0.0,0.0,0.0,0.0,0.0,0.0,0.0,0.0,0.0,0.0,0.0,0.0,0.0,0.0,0.0,0.0,0.0,0.0,0.0,0.0,0.0,0.0,0.0,0.0,0.0,0.0,0.0,0.0,0.0,0.0,0.0,0.0,0.0,0.0,0.0,0.0,0.0,0.0,0.0,0.0,0.0,0.0,0.0,0.0,0.0,0.0,0.0,0.0,0.0,0.0,0.0,0.0,0.0,0.0,0.0,0.0,0.0,0.0,0.0,0.0,0.0,0.0,0.0,0.0,0.0,0.0,0.0,0.0,0.0,0.0,0.0,0.0,0.0,0.0,0.0,0.0,0.0,0.0,0.0,0.0,0.0,0.0,0.0,0.0,0.0,0.0,0.0,0.0,0.0,0.0,0.0,0.0,0.0,0.0,0.0,0.0,0.0,0.0,0.0,0.0,0.0,0.0,0.0,0.0,0.0,0.0,0.0,0.0,0.0,0.0,0.0,0.0,0.0,0.0,0.0,0.0,0.0,0.0,0.0,0.0,0.0,0.0,0.0,0.0,0.0,0.0,0.0,0.0,0.0,0.0,0.0,0.0,0.0,0.0,0.0,0.0,0.0,0.0,0.0,0.0,0.0,0.0,0.0,0.0,0.0,0.0,0.0,0.0,0.0,0.0,0.0,0.0,0.0,0.0,0.0,0.0,0.0,0.0,0.0,0.0,0.0,0.0,0.0,0.0,0.0,0.0,0.0,0.0,0.0,0.0,0.0,0.0,0.0,0.0,0.0,0.0,0.0,0.0,0.0,0.0,0.0,0.0,0.0,0.0,0.0,0.0,0.0,0.0,0.0,0.0,0.0,0.0,0.0,0.0,0.0,0.0,0.0,0.0,0.0,0.0,0.0,0.0,0.0,0.0,0.0,0.0,0.0,0.0,0.0,0.0,0.0,0.0,0.0,0.0,0.0,0.0,0.0,0.0,0.0,0.0,0.0,0.0,0.0,0.0,0.0,0.0,0.0,0.0,0.0,0.0,0.0,0.0,0.0,0.0,0.0,0.0,0.0,0.0,0.0,0.0,0.0,0.0,0.0,0.0,0.0,0.0,0.0,0.0,0.0,0.0,0.0,0.0,0.0,0.0,0.0,0.0,0.0,0.0,0.0,0.0,0.0,0.0,0.0,0.0,0.0,0.0,0.0,0.0,0.0,0.0,0.0,0.0,0.0,0.0,0.0,0.0,0.0,0.0,0.0,0.0,0.0,0.0,0.0,0.0,0.0,0.0,0.0,0.0,0.0,0.0,0.0,0.0,0.0,0.0,0.0,0.0,0.0,0.0,0.0,0.0,0.0,0.0,0.0,0.0,0.0,0.0,0.0,0.0,0.0,0.0,0.0,0.0,0.0,0.0,0.0,0.0,0.0,0.0,0.0,0.0,0.0,0.0,0.0,0.0,0.0,0.0,0.0,0.0,0.0,0.0,0.0,0.0,0.0,0.0,0.0,0.0,0.0,0.0,0.0,0.0,0.0,0.0,0.0,0.0,0.0,0.0,0.0,0.0,0.0,0.0,0.0,0.0,0.0,0.0,0.0,0.0,0.0,0.0,0.0,0.0,0.0,0.0,0.0,0.0,0.0,0.0,0.0,0.0,0.0,0.0,0.0,0.0,0.0,0.0,0.0,0.0,0.0,0.0,0.0,0.0,0.0,0.0,0.0,0.0,0.0,0.0,0.0,0.0,0.0,0.0,0.0,0.0,0.0,0.0,0.0,0.0,0.0,0.0,0.0,0.0,0.0,0.0,0.0,0.0,0.0,0.0,0.0,0.0,0.0,0.0,0.0,0.0,0.0,0.0,0.0,0.0,0.0,0.0,0.0,0.0,0.0,0.0,0.0,0.0,0.0,0.0,0.0,0.0,0.0,0.0,0.0,0.0,0.0,0.0,0.0,0.0,0.0,0.0,0.0,0.0,0.0,0.0,0.0,0.0,0.0,0.0,0.0,0.0,0.0,0.0,0.0,0.0,0.0,0.0,0.0,0.0,0.0,0.0,0.0,0.0,0.0,0.0,0.0,0.0,0.0,0.0,0.0,0.0,0.0,0.0,0.0,0.0,0.0,0.0,0.0,0.0,0.0,0.0,0.0,0.0,0.0,0.0,0.0,0.0,0.0,0.0,0.0,0.0,0.0,0.0,0.0,0.0,0.0,0.0,0.0,0.0,0.0,0.0,0.0,0.0,0.0,0.0,0.0,0.0,0.0,0.0,0.0,0.0,0.0,0.0,0.0,0.0,0.0,0.0,0.0,0.0,0.0,0.0,0.0,0.0,0.0,0.0,0.0,0.0,0.0,0.0,0.0,0.0,0.0,0.0,0.0,0.0,0.0,0.0,0.0,0.0,0.0,0.0,0.0,0.0,0.0,0.0,0.0,0.0,0.0,0.0,0.0,0.0,0.0,0.0,0.0,0.0,0.0,0.0,0.0,0.0,0.0,0.0,0.0,0.0,0.0,0.0,0.0,0.0,0.0,0.0,0.0,0.0,0.0,0.0,0.0,0.0,0.0,0.0,0.0,0.0,0.0,0.0,0.0,0.0,0.0,0.0,0.0,0.0,0.0,0.0,0.0,0.0,0.0,0.0,0.0,0.0,0.0,0.0,0.0,0.0,0.0,0.0,0.0,0.0,0.0,0.0,0.0,0.0,0.0,0.0,0.0,0.0,0.0,0.0,0.0,0.0,0.0,0.0,0.0,0.0,0.0,0.0,0.0,0.0,0.0,0.0,0.0,0.0,0.0,0.0,0.0,0.0,0.0,0.0,0.0,0.0,0.0,0.0,0.0,0.0,0.0,0.0,0.0,0.0,0.0,0.0,0.0,0.0,0.0,0.0,0.0,0.0,0.0,0.0,0.0,0.0,0.0,0.0,0.0,0.0,0.0,0.0,0.0,0.0,0.0,0.0,0.0,0.0,0.0,0.0,0.0,0.0,0.0,0.0,0.0,0.0,0.0,0.0,0.0,0.0,0.0,0.0,0.0,0.0,0.0,0.0,0.0,0.0,0.0,0.0,0.0,0.0,0.0,0.0,0.0,0.0,0.0,0.0,0.0,0.0,0.0,0.0,0.0,0.0,0.0,0.0,0.0,0.0,0.0,0.0,0.0,0.0,0.0,0.0,0.0,0.0,0.0,0.0,0.0,0.0,0.0,0.0,0.0,0.0,0.0,0.0,0.0,0.0,0.0,0.0,0.0,0.0,0.0,0.0,0.0,0.0,0.0,0.0,0.1704,0.0,0.0,0.0,0.0,0.0,0.0,0.0,0.0,0.0,0.0,0.0,0.0,0.0,0.0,0.0,0.0,0.0,0.0,0.0,0.0,0.0,0.0,0.0,0.0,2.5075,2.4671,2.5063,2.4981,2.4957,2.4981,0.0,0.0,0.0,0.0,0.0,2.35,2.3489,2.3489,2.35,2.3121,2.3121,2.3489,2.2376,2.1441,2.0721,0.0,0.0,0.0,0.0,0.0,0.0,0.0,0.0,0.0,0.0,0.0,0.0,0.0,0.0,0.0,0.0,0.0,0.0,0.0,0.0,0.0,0.0,0.0,0.0,0.0,0.0,0.0,0.0,0.0,0.0,0.0,0.0,0.0,0.0,0.0,0.0,0.0,0.0,0.0,0.0,0.0,0.0,0.0,0.0,0.0,0.0,0.0,0.0,0.0,0.0,0.0,0.0,0.0,0.0,0.0,0.0,0.0,0.0,0.0,0.0,0.0,0.0,0.0,0.0,0.0,0.0,0.0,0.0,0.0,0.0,0.0,0.1692,0.0,0.0,0.0,0.0,0.0,0.0,0.0,0.0,0.0,0.0,0.0,0.0,0.0,0.0,0.0,0.0,0.0,0.0,0.0,0.0,0.0,2.5769,2.6452,2.5921,2.5781,2.6452,2.6499,2.6211,2.5558,2.4886,0.0,0.0,0.0,2.3829,2.4779,2.4289,2.4301,2.4791,2.4301,2.3963,2.3818,2.3781,2.322,2.2215,2.1058,0.0,0.0,0.0,0.0,0.0,0.0,0.0,0.0,0.0,0.0,0.0,0.0,0.0,0.0,0.0,0.0,0.0,0.0,0.0,0.0,0.0,0.0,0.0,0.0,0.0,0.0,0.0,0.0,0.0,0.0,0.0,0.0,0.0,0.0,0.0,0.0,0.0,0.0,0.0,0.0,0.0,0.0,0.0,0.0,0.0,0.0,0.0,0.0,0.0,0.0,0.0,0.0,0.0,0.0,0.0,0.0,0.0,0.0,0.0,0.0,0.0,0.0,0.0,0.3274,0.2723,0.1869,0.1667,0.1617,0.1618,0.1643,0.1667,0.1687,0.1664,0.0,0.0,0.0,0.0,0.0,0.0,0.0,0.0,0.0,0.0,0.0,0.0,0.0,0.0,0.0,0.0,0.0,0.0,0.0,2.6418,2.6658,2.6487,2.6383,2.6499,2.6499,2.6452,2.6349,2.6233,2.6164,2.6164,2.606,2.5769,2.5229,2.5804,2.5804,2.5229,2.5804,2.5769,2.5052,2.4898,2.4707,2.4528,2.3478,2.2925,2.2739,0.0,0.0,0.0,0.0,0.0,0.0,0.0,0.0,0.0,0.0,0.0,0.0,0.0,0.0,0.0,0.0,0.0,0.0,0.0,0.0,0.0,0.0,0.0,0.0,0.0,0.0,0.0,0.0,0.0,0.0,0.0,0.0,0.0,0.0,0.0,0.0,0.0,0.0,0.0,0.0,0.0,1.1317,1.117,0.0,0.0,0.0,0.0,0.0,0.0,0.0,0.0,0.0,0.0,0.0,0.0,0.0,0.6528,0.6528,0.5375,0.4724,0.4574,0.3624,0.3123,0.2973,0.2019,0.1617,0.1617,0.1621,0.0,0.1628,0.1624,0.0,0.0,0.0,0.0,0.0,0.0,0.0,0.0,0.0,0.0,0.0,0.0,0.0,0.0,0.0,0.0,0.0,0.0,0.0,0.0,0.0,2.6807,2.6773,2.6773,2.6773,2.6773,2.6773,2.6358,2.6324,2.6773,2.6358,2.6104,2.6082,2.6555,2.6555,2.6082,2.644,2.6371,2.5955,2.5873,2.5838,2.5838,2.5394,2.4505,2.3368,2.3257,0.0,0.0,0.0,0.0,0.0,0.0,0.0,0.0,0.0,0.0,0.0,0.0,0.0,0.0,0.0,0.0,0.0,0.0,0.0,0.0,0.0,0.0,0.0,0.0,0.0,0.0,0.0,0.0,0.0,0.0,0.0,0.0,0.0,0.0,0.0,0.0,0.0,0.0,0.0,1.3848,1.2732,1.2096,1.1126,1.0256,0.0,0.0,0.0,0.0,0.0,0.0,0.0,0.0,0.0,0.8775,0.8226,0.7829,0.768,0.7129,0.6429,0.5679,0.5229,0.4377,0.3173,0.2722,0.217,0.1617,0.1617,0.1617,0.1617,0.1617,0.1617,0.1617,0.0,0.0,0.0,0.0,0.1617,0.1617,0.0,0.0,0.0,0.0,0.0,0.0,0.0,0.0,0.0,0.0,0.0,0.0,2.7079,2.7024,2.699,2.699,2.699,2.699,2.699,2.6449,2.638,2.6977,2.6427,2.6311,2.676,2.6909,2.6943,2.6794,2.6794,2.6726,2.6636,2.6636,2.6602,2.6555,2.6555,2.5687,2.4192,2.4192,2.4072,2.3891,0.0,0.0,0.0,0.0,0.0,0.0,0.0,0.0,0.0,0.0,0.0,0.0,0.0,0.0,0.0,0.0,0.0,0.0,0.0,0.0,0.0,0.0,0.0,0.0,0.0,0.0,0.0,0.0,0.0,0.0,0.0,0.0,0.0,0.0,0.0,0.0,0.0,1.4921,1.3902,1.2829,1.1804,1.0788,0.0,0.0,0.0,0.0,0.0,0.0,0.8928,0.8928,0.8928,0.9023,0.8928,0.8829,0.8581,0.8531,0.7982,0.6883,0.6634,0.5632,0.4026,0.3725,0.3173,0.2422,0.2119,0.2019,0.1969,0.1718,0.1617,0.1617,0.1617,0.1617,0.1617,0.1617,0.1617,0.1617,0.0,0.0,0.0,0.0,0.0,0.0,0.0,0.0,0.0,0.0,0.0,2.7079,2.7268,2.7113,2.699,2.699,2.699,2.699,2.699,2.6943,2.6943,2.699,2.6943,2.6943,2.6977,2.6977,2.699,2.6977,2.6977,2.6977,2.6977,2.6977,2.6875,2.6679,2.6679,2.6452,2.6062,2.6062,2.5945,2.5758,2.5758,0.0,0.0,0.0,0.0,0.0,0.0,0.0,0.0,0.0,0.0,0.0,0.0,0.0,0.0,0.0,0.0,0.0,0.0,0.0,0.0,0.0,0.0,0.0,0.0,0.0,0.0,0.0,0.0,0.0,0.0,0.0,0.0,0.0,0.0,0.0,0.0,0.0,0.0,1.2829,1.1804,0.0,0.0,0.0,0.0,0.9232,0.9187,0.9187,0.9187,0.9187,0.9282,0.9529,0.9331,0.9183,0.9183,0.8928,0.8627,0.8283,0.7279,0.6581,0.6184,0.5177,0.4674,0.4574,0.3574,0.3123,0.3022,0.2019,0.1617,0.1617,0.1617,0.1617,0.1617,0.1617,0.1617,0.1617,0.0,0.0,0.0,0.0,0.0,2.7302,2.7302,2.7302,2.7335,2.7436,2.7369,2.7335,2.7436,2.7503,2.749,2.749,2.749,2.749,2.749,2.7403,2.7302,2.7302,2.7302,2.7302,2.7302,2.7248,2.718,2.718,2.718,2.7113,2.699,2.699,2.6943,2.6909,2.6909,2.6841,2.6717,2.6465,2.627,2.6097,2.6097,2.6015,0.0,0.0,0.0,0.0,0.0,0.0,0.0,0.0,0.0,0.0,0.0,0.0,0.0,0.0,0.0,0.0,0.0,0.0,0.0,0.0,0.0,0.0,0.0,0.0,0.0,0.0,0.0,0.0,0.0,0.0,0.0,0.0,0.0,0.0,0.0,0.0,0.0,1.3854,1.278,0.0,1.0739,1.0015,0.9579,0.948,0.948,0.948,0.948,0.948,0.948,0.9579,0.9529,0.9432,0.9392,0.9287,0.9193,0.905,0.8635,0.8062,0.7276,0.691,0.63,0.5466,0.511,0.4875,0.4724,0.4325,0.3173,0.1617,0.1768,0.1768,0.1617,0.1617,0.1617,0.1617,0.0,0.0,0.0,2.7503,2.749,2.7523,2.759,2.759,2.7623,2.7703,2.7703,2.7703,2.7703,2.7822,2.7888,2.7888,2.7888,2.7888,2.7888,2.7723,2.759,2.759,2.7523,2.749,2.749,2.7403,2.7369,2.7369,2.7369,2.7302,2.718,2.718,2.7146,2.7113,2.7113,2.7045,2.699,2.6773,2.6533,2.6374,2.6339,2.6223,2.6084,0.0,0.0,0.0,0.0,0.0,0.0,0.0,0.0,0.0,0.0,0.0,0.0,0.0,0.0,0.0,0.0,0.0,0.0,0.0,0.0,0.0,0.0,0.0,0.0,0.0,0.0,0.0,0.0,0.0,0.0,0.0,0.0,0.0,0.0,0.0,1.5547,1.4442,1.3661,1.2684,1.1317,1.0547,0.9965,0.9628,0.9681,0.9713,0.9713,0.9774,0.9807,0.9807,0.9807,0.9762,0.9721,0.9721,0.9681,0.9541,0.9541,0.9115,0.8315,0.8315,0.789,0.7076,0.6709,0.6436,0.6231,0.5929,0.4702,0.2923,0.2724,0.2322,0.1869,0.1869,0.1818,0.1718,0.0,2.7403,2.749,2.749,2.749,2.7556,2.7776,2.7809,2.7855,2.8079,2.8112,2.8112,2.8112,2.8112,2.8112,2.8112,2.8112,2.8112,2.8112,2.7934,2.7809,2.7809,2.7623,2.7523,2.7523,2.7523,2.7523,2.7523,2.7523,2.7536,2.749,2.749,2.7436,2.7302,2.7302,2.7214,2.7024,2.7024,2.6909,2.6726,2.6555,2.6499,2.6499,0.0,0.0,0.0,0.0,0.0,0.0,0.0,0.0,0.0,0.0,0.0,0.0,0.0,0.0,0.0,0.0,0.0,0.0,0.0,0.0,0.0,0.0,0.0,0.0,0.0,0.0,0.0,0.0,0.0,0.0,0.0,0.0,0.0,1.6224,1.6224,1.5743,1.449,1.4346,1.3511,1.1512,1.1224,1.0797,0.9731,0.9795,0.9892,0.9892,1.0114,1.0212,1.0212,1.0212,1.0216,1.0224,1.0224,1.0072,0.9814,0.9814,0.9714,0.9452,0.9452,0.9452,0.9392,0.8318,0.7764,0.7539,0.6762,0.6129,0.5577,0.4475,0.3425,0.2471,0.2471,0.2271,0.1971,2.7469,2.7469,2.749,2.749,2.749,2.7556,2.7776,2.7809,2.7855,2.8079,2.8112,2.8112,2.8112,2.8197,2.8235,2.8235,2.8235,2.8235,2.8235,2.8085,2.8,2.8,2.798,2.7947,2.7947,2.7947,2.7947,2.7947,2.7947,2.7868,2.7723,2.7723,2.7623,2.7469,2.7469,2.7403,2.7369,2.7268,2.7201,2.71,2.6794,2.6658,2.6624,0.0,0.0,0.0,0.0,0.0,0.0,0.0,0.0,0.0,0.0,0.0,0.0,0.0,0.0,0.0,0.0,0.0,0.0,0.0,0.0,0.0,0.0,0.0,0.0,0.0,0.0,0.0,0.0,0.0,0.0,0.0,0.0,1.6737,1.6272,1.6224,1.5981,1.5445,1.4729,1.41,1.3516,1.2151,1.1202,1.0907,1.0438,1.0139,1.0139,1.0188,1.0212,1.0212,1.0212,1.0225,1.0359,1.0359,1.0366,1.0438,1.0438,1.0383,1.0333,1.0333,1.0266,1.0097,0.9823,0.9614,0.9457,0.9194,0.8529,0.7414,0.601,0.4676,0.3574,0.3574,0.3024,0.2271,2.749,2.749,2.749,2.749,2.7556,2.7689,2.7888,2.7973,2.8072,2.8276,2.8308,2.8308,2.8308,2.8392,2.8444,2.8444,2.8444,2.8444,2.8444,2.8281,2.8164,2.8112,2.8112,2.8112,2.8112,2.8112,2.8112,2.8112,2.8352,2.8405,2.8292,2.8564,2.8549,2.8392,2.8392,2.8179,2.7889,2.7788,2.7624,2.7369,2.7066,2.685,2.6679,2.6624,2.6555,2.6499,2.6361,2.6654,2.713,2.726,0.0,0.0,0.0,0.0,0.0,0.0,0.0,0.0,0.0,0.0,0.0,0.0,0.0,0.0,0.0,0.0,0.0,0.0,0.0,0.0,0.0,0.0,0.0,0.0,1.8565,1.7473,1.6643,1.6555,1.6407,1.6021,1.5556,1.5097,1.451,1.3546,1.2829,1.2375,1.1511,1.1059,1.1059,1.0661,1.0383,1.0383,1.0383,1.0436,1.0542,1.0542,1.0595,1.0692,1.0692,1.0692,1.0692,1.0692,1.0635,1.0542,1.0542,1.044,1.0274,1.0274,0.9799,0.0,0.0,0.0,0.0,0.0,0.3475,0.2573,2.749,2.749,2.749,2.7523,2.7689,2.7855,2.8079,2.8203,2.8365,2.8554,2.8587,2.8587,2.8587,2.8587,2.8587,2.8587,2.8587,2.8587,2.8587,2.843,2.8281,2.8145,2.8145,2.8145,2.8145,2.8145,2.8145,2.8145,2.8766,2.9046,2.9026,2.9648,2.9824,2.9614,2.9614,2.9219,2.8546,2.8446,2.8119,2.7594,2.7395,2.71,2.676,2.676,2.6658,2.6521,2.6521,2.6813,2.7205,2.7067,0.0,0.0,0.0,0.0,0.0,0.0,0.0,0.0,0.0,0.0,0.0,0.0,0.0,0.0,0.0,0.0,0.0,0.0,0.0,0.0,0.0,0.0,0.0,0.0,1.8926,1.8442,1.7391,1.7171,1.6888,1.6367,1.6587,1.6326,1.5128,1.5175,1.4865,1.3936,1.2975,1.2418,1.2418,0.0,0.0,0.0,0.0,1.0692,1.0692,1.0692,1.0692,1.0692,1.0692,1.0692,1.0692,1.0692,1.0692,1.0692,1.0692,1.0603,1.0411,1.0411,1.0359,1.0068,0.8782,0.7607,0.6442,0.5131,0.4028,0.3176,2.739,2.749,2.7556,2.7723,2.7776,2.7908,2.8203,2.83,2.8365,2.8554,2.8587,2.8587,2.8587,2.8587,2.8587,2.8587,2.8587,2.8587,2.8587,2.8554,2.8522,2.8503,2.8503,2.8503,2.8503,2.8503,2.8503,2.8503,2.9118,2.9315,2.9161,2.9785,2.9985,2.9859,2.9859,2.9653,2.9346,2.885,2.847,2.8177,2.7686,2.7369,2.7167,2.7011,2.6841,2.6658,2.6658,2.6665,2.6725,2.7095,2.7253,2.7444,2.83,0.0,0.0,0.0,0.0,0.0,0.0,0.0,0.0,0.0,0.0,0.0,0.0,0.0,0.0,0.0,0.0,0.0,0.0,0.0,0.0,2.1195,1.9832,1.8798,1.8855,1.815,1.7488,1.6959,1.7239,1.7329,1.7074,1.6215,1.5603,1.539,1.4362,1.3746,1.3746,1.2665,1.2096,1.2096,1.1177,1.0692,1.0692,1.0692,1.0692,1.0692,0.0,0.0,1.0692,1.0692,1.0692,1.0692,1.0692,1.0672,1.0643,1.0643,1.0542,1.0241,0.8829,0.8133,0.7785,0.6509,0.5874,0.5675,2.6854,2.7255,2.7556,2.7756,2.7888,2.802,2.8254,2.8398,2.8476,2.8587,2.8587,2.8587,2.8587,2.8587,2.8587,2.8587,2.8587,2.8587,2.8587,2.8587,2.8587,2.8587,2.8587,2.8587,2.8587,2.8587,2.8587,2.8587,2.9496,2.991,2.9835,3.0713,3.106,3.0882,3.0882,3.0615,3.0117,2.9499,2.8971,2.8518,2.7893,2.7556,2.7369,2.7214,2.7045,2.6841,2.6726,2.6658,2.6627,2.6848,2.702,2.7239,2.7776,2.8251,2.8635,0.0,0.0,0.0,0.0,0.0,0.0,0.0,0.0,0.0,0.0,0.0,0.0,0.0,0.0,2.3091,2.3091,0.0,2.2236,2.1784,2.1039,2.0445,2.0127,1.9518,1.8716,1.7646,1.7811,1.7952,1.7794,1.7387,1.7088,1.7088,1.5942,1.5215,1.5215,1.3976,1.3275,1.3275,1.2684,1.2417,1.2417,1.1823,1.1555,1.1555,1.0962,1.0692,1.0692,1.0692,1.0692,1.0692,1.0692,1.0692,1.0692,1.0692,1.0639,1.048,0.9685,0.8909,0.8245,0.7607,0.693,0.6423,2.627,2.6833,2.7423,2.7789,2.8,2.8164,2.8333,2.8509,2.8587,2.8587,2.8587,2.8587,2.8587,2.8587,2.8587,2.8587,2.8587,2.8587,2.8587,2.8587,2.8587,2.8587,2.8587,2.8587,2.8587,2.8587,2.8587,2.8587,2.9821,3.0405,3.0446,3.1626,3.2109,3.1963,3.1963,3.1518,3.0735,3.0099,2.9422,2.8667,2.806,2.7689,2.7523,2.7403,2.7214,2.7045,2.6863,2.6794,2.6726,2.6589,2.6823,2.7213,2.7291,2.7896,2.8612,2.8662,2.8947,0.0,0.0,0.0,0.0,0.0,0.0,0.0,0.0,0.0,2.3547,2.3547,2.3406,2.3222,2.3188,2.3188,2.2945,2.2206,2.2216,2.2015,2.119,2.0679,1.9864,1.8455,1.847,1.8511,1.8355,1.8421,1.851,1.8566,1.7444,1.667,1.6617,1.5269,1.4513,1.4454,1.4245,1.4078,1.4078,1.3166,1.2738,1.2738,1.1555,1.1017,1.1017,1.0802,1.0692,1.0692,1.0692,1.0692,1.0692,1.0692,1.0692,1.068,1.0542,0.9754,0.8697,0.8634,0.7968,0.7054,2.5913,2.6309,2.6837,2.7901,2.8079,2.821,2.8522,2.8587,2.8587,2.8587,2.8587,2.8587,2.8587,2.8587,2.8587,2.8587,2.8587,2.8587,2.8587,2.8587,2.8587,2.8587,2.8587,2.8587,2.8587,2.8587,2.8587,2.8587,2.9821,3.0405,3.0446,3.1626,3.2182,3.2182,3.2182,3.1712,3.094,3.0309,2.9615,2.879,2.8093,2.7776,2.7756,2.7556,2.7403,2.7268,2.7235,2.7113,2.6943,2.6726,2.673,2.6835,2.7201,2.7369,2.7657,2.8599,0.0,2.905,2.9576,2.8474,2.6946,2.5955,2.502,2.4282,0.0,0.0,2.3754,2.3754,2.3754,2.3667,2.3503,2.346,2.3491,2.3563,2.2864,2.2158,2.1859,2.0999,2.0179,1.9633,1.9381,1.9285,1.957,1.9117,1.8931,1.9202,1.8583,1.8055,1.7799,1.667,1.5914,1.5695,1.4674,1.4078,1.4078,1.3976,1.3922,1.3922,1.2738,1.22,1.22,1.1177,1.0692,1.0692,1.0692,1.0692,1.0692,1.0692,1.0692,1.0688,1.0672,1.0434,1.0122,0.9848,0.9614,0.9474,2.5389,2.6141,2.6766,2.6611,2.7443,2.8164,2.8379,2.8509,2.8587,2.8587,2.8587,2.8587,2.8587,2.8587,2.8587,2.8587,2.8587,2.8587,2.8587,2.8587,2.8587,2.8587,2.8587,2.8587,2.8587,2.8587,2.8587,2.8587,2.9127,2.9407,2.9421,2.9932,3.0364,3.0713,3.0713,3.0685,3.0605,3.0018,2.9511,2.8993,2.8272,2.7888,2.7776,2.759,2.7469,2.7403,2.7335,2.7235,0.0,0.0,2.6794,2.673,2.6902,2.7122,2.7369,2.7833,2.8197,0.0,2.79,2.7455,2.6782,2.539,2.469,2.4368,2.4368,2.4196,2.4024,2.4024,2.3894,2.3754,2.3547,2.3503,2.3554,0.0,2.3657,2.3606,2.3763,2.2702,2.1839,2.1683,2.0468,1.9669,1.9808,1.9592,1.9384,1.9326,1.8933,1.8653,1.8548,1.7898,1.7463,1.7351,1.6869,1.6546,1.6399,1.5849,1.547,1.5156,1.4293,1.3814,1.3658,1.2472,1.1505,1.0692,1.0692,1.0692,1.0692,1.0692,1.0692,1.0692,1.0692,1.0647,1.0542,1.0176,0.9977,0.986,2.5244,2.5894,2.6321,2.5742,2.6798,2.7776,2.798,2.83,2.8554,2.8587,2.8587,2.8587,2.8587,2.8587,2.8587,2.8587,2.8587,2.8587,2.8587,2.8587,2.8587,2.8587,2.8587,2.8587,2.8587,2.8457,2.8392,2.8392,2.8457,2.8462,2.8476,2.8644,2.8951,2.9368,2.9368,2.9486,2.9696,2.9241,2.8825,2.8369,2.7794,2.7543,2.7464,2.7276,2.7323,2.749,2.7403,2.7369,0.0,0.0,2.7011,2.6863,2.6794,2.6936,2.7188,2.749,2.8058,2.8263,2.6904,2.6783,2.6659,2.4946,2.4497,2.4497,2.4497,2.4378,2.4282,2.4282,2.4153,2.3927,2.3721,2.3677,2.3769,2.4012,2.431,2.4612,2.4987,2.4145,2.3453,2.3392,2.1608,2.0414,2.0414,1.9938,1.9625,1.9478,1.9181,1.8974,1.8921,1.8653,1.8482,1.8422,1.8422,1.8325,1.8115,1.7457,1.6975,1.6605,1.5843,1.5364,1.5162,1.3976,1.2689,1.1396,1.1396,1.1236,1.0966,1.0857,1.0802,1.0802,1.0747,1.0692,1.0655,1.0351,1.0119,0.9937,2.5835,2.5435,2.5199,2.5851,2.6392,2.6867,2.7178,2.7835,2.8365,2.8554,2.8587,2.8587,2.8587,2.8587,2.8587,2.8587,2.8587,2.8587,2.8587,2.8587,2.8587,2.8587,2.8587,2.8587,2.8587,2.8085,2.7809,2.7809,2.7902,2.791,2.7958,2.8515,2.8798,2.8833,2.8833,2.8511,2.7971,2.7958,2.7391,2.6471,2.6264,2.6389,2.6697,2.6517,2.6871,2.749,2.749,0.0,0.0,0.0,2.7302,2.7235,2.7045,2.6888,0.0,2.8035,2.9025,2.9367,2.7574,2.7098,2.6659,2.4946,2.4497,2.4497,2.4497,2.4497,2.4497,2.4497,2.4497,2.4411,2.4206,2.4163,2.4317,2.4735,2.4792,2.4769,2.4788,2.4771,2.4602,2.4328,2.2856,2.1902,0.0,2.0325,1.947,1.9779,1.9455,1.9175,1.8921,1.8869,1.8757,1.8422,1.8422,1.8422,1.837,1.837,1.8318,1.8318,1.7186,1.6645,1.6592,1.5464,1.4293,1.3236,1.3236,1.259,1.1568,1.124,1.1072,1.1072,1.0802,1.0692,1.0672,1.0493,1.031,1.018,2.4334,2.4621,2.4697,2.4095,2.4968,2.5662,2.5392,2.7043,2.832,2.8398,2.8216,0.0,0.0,0.0,0.0,0.0,2.8587,2.8587,2.8587,2.8587,2.8587,2.8587,2.8249,2.8085,2.8085,2.7543,2.7276,2.7276,2.6925,2.6773,2.6773,2.6576,2.6698,2.7062,2.7062,2.717,2.731,2.731,2.7105,2.6744,2.6299,2.6183,2.6252,2.5826,2.6139,2.6769,0.0,0.0,0.0,0.0,0.0,0.0,2.7214,0.0,0.0,2.8208,2.8462,2.8244,2.6936,2.64,2.5955,2.4786,2.4497,2.4497,2.4497,2.4497,2.4497,2.4497,2.4497,2.4547,2.4638,2.441,2.4463,2.5328,2.5231,2.5305,2.6023,2.5663,2.5359,2.537,2.4005,0.0,0.0,0.0,0.0,1.95,1.9338,1.9279,1.9175,1.9175,1.9123,1.9011,1.9011,1.8907,1.8757,1.8907,1.8795,1.8422,1.8213,1.7733,1.6975,1.6599,1.5683,1.4454,1.4454,1.3766,1.2698,1.259,1.2105,1.1404,1.135,1.1295,1.1286,1.1226,1.0896,1.0396,0.0,2.3947,2.4107,2.328,2.4086,0.0,0.0,0.0,0.0,0.0,0.0,0.0,0.0,0.0,0.0,0.0,0.0,2.8216,2.8052,2.8216,2.8216,2.8052,2.7709,2.751,2.751,2.7007,2.6701,2.6701,2.6151,2.5873,2.5873,2.5488,2.5523,2.5873,2.5873,2.6082,2.638,2.638,2.6424,2.6412,2.569,2.5608,2.5825,2.5147,2.5323,0.0,0.0,0.0,0.0,0.0,0.0,0.0,0.0,0.0,2.8138,2.8297,2.8135,2.7659,2.6628,2.6177,2.5715,2.4861,2.4583,2.4497,2.4497,2.4497,2.4497,2.4497,2.4497,2.4547,2.4715,2.453,2.4628,2.5548,2.5639,2.593,2.7003,2.6771,2.6518,2.6697,2.524,2.3939,0.0,0.0,0.0,1.939,1.9279,1.9279,1.9279,1.9279,1.9279,1.9279,1.9279,1.9227,1.9026,1.9227,1.9116,1.8743,1.8966,1.8646,1.7884,1.7884,1.7186,1.5956,1.5956,1.5263,1.4202,1.4089,1.3393,1.2323,1.2214,1.1946,1.1623,1.1623,1.1259,1.081,0.0,0.0,2.3343,0.0,0.0,0.0,0.0,0.0,0.0,0.0,0.0,0.0,0.0,0.0,0.0,0.0,0.0,0.0,2.704,2.7477,2.7543,2.704,2.6973,2.6973,2.6973,2.6427,2.6164,2.6164,2.5594,2.5312,2.5312,2.5312,2.5312,2.5312,2.5312,2.5312,2.5312,2.5276,2.5361,2.5374,2.453,2.4672,2.5315,2.4376,2.4528,0.0,0.0,0.0,0.0,0.0,0.0,0.0,2.7354,2.7851,2.8422,2.8307,2.8041,2.7568,2.6723,2.6321,2.5935,2.5115,2.47,2.4497,2.4497,2.4497,2.4497,2.4497,2.4497,2.4507,0.0,0.0,2.471,2.539,2.5921,2.6581,2.7613,2.7961,2.8157,0.0,0.0,0.0,0.0,0.0,0.0,1.9628,0.0,1.9376,1.9279,1.9279,1.9279,1.9279,1.9279,1.9279,1.9279,1.9279,1.9279,1.9279,1.9279,1.9279,1.9279,1.9279,1.8691,1.7687,1.7687,1.7041,1.5968,1.5636,1.4835,1.3776,1.3506,1.2753,1.1728,1.1728,1.1558,1.1314,0.0,0.0,0.0,0.0,0.0,0.0,0.0,0.0,0.0,0.0,0.0,0.0,0.0,0.0,0.0,0.0,0.0,0.0,2.7007,2.7142,2.7142,2.7007,2.6633,2.6393,2.6393,2.5838,2.5523,2.5523,2.5382,2.5312,2.5312,2.5312,2.5312,2.5312,2.5312,2.5312,2.5276,2.5016,2.4968,2.4894,2.41,2.3892,2.4019,2.3479,2.3742,2.4467,0.0,0.0,0.0,0.0,0.0,0.0,0.0,2.7645,2.7871,2.8098,0.0,2.6987,2.6599,2.5988,2.5359,2.4988,2.4861,2.4743,2.454,2.4497,2.4497,2.4497,2.4497,2.4611,0.0,0.0,0.0,2.565,2.6187,0.0,2.7028,2.7985,0.0,2.7913,0.0,2.6604,2.5144,2.4376,0.0,0.0,2.0936,2.013,1.9324,1.9279,1.9279,1.9279,1.9279,1.9279,1.9279,1.9279,1.9279,1.9279,1.9279,1.9279,1.9279,1.9279,1.9116,1.8855,1.8855,1.8213,1.7153,1.7094,1.6399,1.5328,1.5274,1.453,1.3516,1.3516,1.2685,1.158,0.0,0.0,0.0,0.0,0.0,0.0,0.0,0.0,0.0,0.0,0.0,0.0,0.0,0.0,0.0,0.0,0.0,0.0,0.0,2.6,2.6104,2.606,2.5758,2.5641,2.5804,2.5488,2.5312,2.5312,2.5312,2.5312,2.5312,2.5147,2.5087,2.5076,2.4897,2.4826,2.479,2.4634,2.4666,0.0,0.0,2.3727,2.3918,2.3468,2.3559,2.3989,0.0,0.0,0.0,0.0,0.0,2.6323,2.7299,2.7528,2.7462,2.7648,0.0,2.6404,2.6249,2.5843,2.5338,2.5073,2.4988,2.4818,2.4583,2.4497,2.4497,2.4497,2.4497,0.0,2.4838,2.4673,0.0,0.0,0.0,0.0,2.6999,2.793,2.8391,0.0,2.7572,0.0,2.5827,2.538,2.4688,0.0,2.1836,2.0637,2.0027,1.9576,1.9279,1.9279,1.9279,1.9279,1.9279,1.9279,1.9279,1.9279,1.9279,1.9279,1.9279,1.9279,1.9279,1.9279,0.0,1.8959,1.8325,1.8325,1.7681,1.6664,1.6664,1.5974,1.4965,1.4965,1.434,1.3434,0.0,0.0,0.0,0.0,0.0,0.0,0.0,0.0,0.0,0.0,2.4755,2.4671,0.0,0.0,0.0,0.0,0.0,0.0,0.0,0.0,2.485,2.4718,2.4718,2.4849,2.5135,2.5135,2.5135,2.5135,2.5087,2.5016,2.5016,2.4647,2.4526,2.4598,2.4225,2.4116,2.42,2.4152,2.4379,2.4734,2.3883,2.3858,2.4256,0.0,0.0,0.0,0.0,0.0,0.0,0.0,2.5724,2.6365,2.7133,2.7207,2.7021,2.7021,2.6498,2.5895,2.5895,2.577,2.5559,2.5285,2.5073,2.4861,2.4583,2.4497,2.4497,2.4497,0.0,2.4497,2.4497,2.4497,2.4631,2.5034,0.0,2.6667,2.7071,2.7729,2.8022,2.76,2.7356,2.7018,2.6595,2.6352,2.58,2.4845,2.2685,2.1336,2.1132,2.0233,1.968,1.9532,1.9376,1.9279,1.9279,1.9279,1.9279,1.9279,1.9279,1.9279,1.9279,1.9279,1.9279,1.9279,1.9279,1.9279,1.9279,1.9279,1.8698,1.7845,1.7845,1.7147,1.6127,1.6127,1.6021,1.5683,0.0,0.0,0.0,0.0,0.0,0.0,0.0,0.0,0.0,0.0,2.3434,2.3922,0.0,0.0,0.0,0.0,0.0,0.0,0.0,0.0,0.0,2.4309,2.4309,2.4334,2.437,2.4406,2.4406,2.4406,2.3888,2.3658,2.3621,2.3021,2.3021,2.3559,2.3486,2.3717,2.4189,2.3861,2.3759,2.379,2.3294,2.3409,2.3799,0.0,0.0,0.0,0.0,0.0,2.5666,2.5742,2.5626,2.5514,2.6035,2.6152,2.6146,2.6146,2.6021,2.5895,2.5895,2.5853,2.5728,2.5327,2.5158,2.5031,2.4583,2.4497,0.0,0.0,2.4497,2.4497,2.4497,2.4497,2.4528,2.4611,2.5409,2.603,2.6148,0.0,2.7775,0.0,0.0,0.0,0.0,0.0,0.0,0.0,0.0,2.3642,2.2282,2.2038,2.154,2.0629,1.9783,1.9279,1.9279,1.9279,1.9279,1.9279,1.9279,1.9279,1.9279,1.9279,1.9279,1.9279,1.9279,0.0,1.9279,1.9279,1.9168,1.9011,1.9011,1.8318,1.7312,1.7312,1.6717,1.5813,0.0,0.0,0.0,0.0,0.0,0.0,0.0,2.2101,2.2252,2.2252,2.2665,2.3075,2.3372,2.3519,2.3567,0.0,0.0,0.0,0.0,0.0,0.0,0.0,0.0,0.0,0.0,2.42,0.0,0.0,0.0,2.3412,2.2798,0.0,0.0,0.0,0.0,2.2371,2.2644,2.2767,2.2815,2.2815,0.0,0.0,0.0,0.0,0.0,0.0,0.0,0.0,2.5895,2.5895,2.5742,2.559,2.583,2.5895,2.5895,2.5895,2.5895,2.5895,2.5895,2.5812,2.5644,2.5285,2.5115,2.4946,2.4583,0.0,0.0,0.0,2.4497,2.4497,2.4497,2.4497,0.0,2.4497,2.5065,2.5616,2.5889,0.0,0.0,0.0,0.0,0.0,0.0,0.0,0.0,0.0,0.0,2.5089,2.3642,2.2885,2.224,2.1735,2.068,2.038,2.0987,2.0431,2.0431,2.0987,2.038,2.013,2.013,1.9524,1.9279,1.9279,1.9279,0.0,1.9279,1.9279,1.9279,1.9279,1.9279,1.8959,1.8482,1.8482,1.816,1.7522,0.0,0.0,0.0,0.0,0.0,0.0,2.1731,2.1883,2.1997,2.2035,2.2214,2.2402,2.2553,2.274,2.2852,0.0,0.0,0.0,0.0,0.0,0.0,0.0,0.0,0.0,0.0,0.0,0.0,0.0,0.0,0.0,0.0,0.0,0.0,0.0,0.0,0.0,0.0,2.1662,2.1987,0.0,0.0,0.0,0.0,0.0,0.0,0.0,0.0,0.0,2.5895,0.0,2.5895,2.5895,2.5895,2.5895,2.5895,2.5895,2.5895,2.5895,2.5895,2.5728,2.5559,2.5338,2.5115,2.4914,2.4658,2.4583,0.0,2.4497,2.4497,2.4497,2.4497,2.4497,2.4497,0.0,2.4807,2.5189,2.5678,0.0,0.0,0.0,0.0,0.0,0.0,0.0,0.0,0.0,0.0,0.0,2.4992,2.3642,2.2944,2.2944,2.1836,2.1641,2.2484,2.1633,2.1692,2.2492,2.1641,2.1234,2.1183,2.013,1.9628,1.9628,1.9376,0.0,0.0,1.9279,1.9279,1.9279,1.9279,1.9279,1.9279,1.9279,1.9279,1.9131,0.0,0.0,0.0,0.0,0.0,0.0,2.1502,2.154,2.1617,2.1807,2.1987,2.2138,2.2138,2.2327,2.2478,0.0,0.0,0.0,0.0,0.0,0.0,0.0,0.0,0.0,0.0,0.0,0.0,2.2214,0.0,0.0,0.0,0.0,0.0,0.0,0.0,0.0,0.0,0.0,0.0,0.0,0.0,0.0,0.0,0.0,0.0,0.0,0.0,0.0,2.5895,0.0,0.0,2.5895,2.5895,2.5895,2.5895,2.5895,0.0,0.0,2.5895,2.5728,2.5601,2.5559,2.538,2.5115,2.4903,0.0,2.4786,2.454,2.4497,2.4497,2.4497,2.4497,2.4497,2.4497,0.0,2.4724,2.5179,0.0,0.0,0.0,0.0,0.0,0.0,0.0,0.0,0.0,0.0,0.0,2.6352,2.5041,2.4344,2.4344,2.3035,2.2391,2.2484,2.2391,2.2391,2.2484,2.2391,2.2333,2.2341,2.1234,2.0731,2.068,1.9732,0.0,0.0,1.9279,1.9279,1.9279,1.9279,1.9279,1.9279,1.9279,1.9279,1.9272,0.0,0.0,0.0,0.0,0.0,0.0,2.0839,2.1332,2.1599,2.135,2.155,2.146,2.0845,2.1007,2.1491,2.2332,2.2478,0.0,0.0,0.0,0.0,0.0,0.0,0.0,0.0,0.0,2.2327,2.1731,2.1863,0.0,0.0,0.0,0.0,0.0,0.0,0.0,0.0,0.0,0.0,0.0,0.0,0.0,0.0,0.0,0.0,0.0,0.0,0.0,2.5464,2.5464,0.0,0.0,2.5728,2.5812,0.0,0.0,2.5895,2.5895,2.5895,2.5644,2.538,2.538,2.5084,2.4743,2.4658,2.4658,2.4615,2.454,2.4497,2.4497,2.4497,2.4497,2.4497,2.4497,0.0,0.0,2.5127,0.0,0.0,0.0,0.0,0.0,0.0,0.0,0.0,0.0,0.0,0.0,2.6976,2.6187,2.5693,2.5693,2.4541,2.4236,2.4894,2.4295,2.4295,2.4894,2.4088,2.3692,2.3642,2.2442,2.1836,2.1785,2.0739,0.0,0.0,1.9583,1.9279,1.9279,1.9279,1.9279,1.9279,1.9279,1.9279,1.9279,0.0,0.0,0.0,0.0,0.0,1.9893,2.0328,2.0944,2.1224,2.0906,2.0968,2.0767,2.0045,2.0032,2.0476,2.1499,2.2015,0.0,0.0,0.0,0.0,0.0,0.0,0.0,0.0,0.0,2.2447,2.1706,2.2119,2.1653,0.0,0.0,0.0,0.0,0.0,0.0,0.0,0.0,0.0,0.0,0.0,0.0,0.0,0.0,0.0,0.0,0.0,0.0,0.0,0.0,0.0,0.0,2.5559,2.5812,2.6052,0.0,2.5895,2.5906,2.5822,2.5506,2.52,2.52,2.5115,2.4999,2.4999,2.5189,2.5359,2.5274,2.5274,2.5189,2.4946,2.5115,2.5115,2.4583,0.0,2.489,2.4974,2.5409,0.0,0.0,0.0,0.0,0.0,0.0,0.0,0.0,0.0,0.0,2.7309,2.6928,2.6688,2.6602,2.58,2.5742,2.6496,2.5742,2.5742,2.6496,2.5548,2.5089,2.5041,2.3692,2.3135,2.3144,2.1988,0.0,0.0,2.0336,1.9828,1.9532,1.9428,1.9428,1.9428,1.9331,1.9279,1.9279,0.0,0.0,0.0,0.0,0.0,1.9573,2.011,2.0215,2.0305,2.0468,2.028,2.0097,2.0097,1.9789,1.9604,1.9637,2.1097,0.0,0.0,0.0,0.0,0.0,0.0,0.0,2.3767,2.3767,2.3265,2.2186,2.2215,2.1411,1.9904,1.9085,1.8926,1.9274,0.0,0.0,0.0,0.0,0.0,0.0,0.0,0.0,2.4529,0.0,0.0,0.0,0.0,0.0,0.0,0.0,0.0,0.0,0.0,2.601,2.6404,2.6021,2.5895,2.5864,2.5644,2.5422,2.52,2.52,2.5695,2.6185,2.6185,2.6835,2.7383,2.7151,2.7069,2.6812,2.5944,2.6483,2.6494,2.4786,2.5221,0.0,2.4625,2.49,0.0,0.0,0.0,0.0,0.0,0.0,0.0,0.0,0.0,0.0,2.7309,2.7309,2.7177,2.69,2.6651,2.6496,2.6496,2.6496,2.6496,2.6496,2.6496,2.6496,2.6448,2.5089,2.4639,0.0,0.0,0.0,0.0,2.1684,2.1038,2.0086,1.9776,1.968,1.968,1.9376,1.9279,1.9279,0.0,0.0,0.0,0.0,0.0,0.0,1.951,2.0079,2.0357,2.0081,2.0054,1.9847,1.9217,1.8995,1.9409,2.0701,2.1319,0.0,0.0,0.0,0.0,0.0,0.0,2.3214,2.3386,2.3386,2.3232,2.2897,2.2897,2.2644,2.213,2.1151,2.0816,2.106,2.0619,0.0,0.0,0.0,0.0,0.0,0.0,2.4189,2.4497,0.0,0.0,0.0,0.0,0.0,0.0,0.0,0.0,0.0,0.0,0.0,0.0,2.7051,2.7214,2.7162,2.7133,2.6958,2.6782,2.6782,2.6782,2.6835,2.6835,2.7028,2.718,2.711,2.711,2.7028,2.673,2.6894,2.6905,2.6381,2.6494,0.0,0.0,0.0,0.0,0.0,0.0,0.0,0.0,0.0,0.0,0.0,0.0,0.0,2.7309,2.7309,2.7262,2.7167,2.7071,2.7071,2.7071,2.7071,2.7071,2.7023,2.6842,2.6747,2.6747,2.6149,2.5897,0.0,0.0,0.0,0.0,2.3085,2.2139,2.1183,2.1081,2.0637,1.9983,1.9879,1.9835,1.9835,0.0,0.0,0.0,0.0,0.0,0.0,1.9241,1.9769,1.9995,1.9679,1.9628,1.941,1.8795,1.8596,1.9041,2.0479,2.0676,0.0,0.0,0.0,0.0,0.0,2.2838,2.288,2.3401,2.3442,2.336,2.3197,2.3197,2.3104,2.289,2.1938,2.169,2.2103,2.1646,2.1797,0.0,0.0,0.0,0.0,2.4094,2.4291,2.4497,0.0,0.0,0.0,0.0,0.0,0.0,0.0,0.0,0.0,0.0,0.0,0.0,0.0,2.8343,2.8422,2.7839,2.7597,2.7476,2.7383,2.7476,2.7637,2.7637,2.7891,2.8131,2.8131,2.8131,2.8011,2.7678,2.7959,2.7999,2.7354,2.7516,0.0,0.0,0.0,0.0,0.0,0.0,0.0,0.0,0.0,0.0,0.0,0.0,0.0,2.7309,2.7309,2.7309,2.7309,2.7309,2.7309,2.7309,2.7309,2.7309,2.7309,2.7129,2.7034,2.7034,2.6794,2.6699,0.0,0.0,0.0,0.0,2.4492,2.3583,2.2534,2.2038,2.1438,2.0783,2.0285,2.0078,2.0063,0.0,0.0,0.0,0.0,0.0,0.0,0.0,1.9279,1.9279,1.9279,1.9016,1.8825,1.8825,1.8533,1.8603,1.928,1.9525,0.0,0.0,0.0,0.0,2.3754,2.294,2.2896,2.3797,2.3797,2.3596,2.3237,2.3237,2.3026,2.2572,2.1736,2.1819,2.2551,2.2152,2.2464,0.0,0.0,0.0,0.0,2.4411,2.4497,0.0,0.0,0.0,0.0,0.0,0.0,0.0,0.0,0.0,0.0,0.0,0.0,0.0,0.0,0.0,0.0,0.0,2.7678,2.7597,2.7354,2.7931,2.8581,2.8581,2.9209,0.0,2.9792,2.9792,2.9546,2.8752,2.9431,2.9586,2.7959,2.8371,0.0,0.0,0.0,0.0,0.0,0.0,0.0,0.0,0.0,0.0,0.0,0.0,0.0,2.7309,2.7309,2.7309,2.7309,2.7309,2.7309,2.7309,2.7309,2.7309,2.7309,2.7309,2.7309,2.7309,2.7034,2.7081,0.0,0.0,0.0,0.0,2.579,2.5187,2.4088,2.2835,2.2291,2.2089,2.0739,2.0269,2.0207,0.0,0.0,0.0,0.0,0.0,0.0,0.0,0.0,0.0,0.0,1.9213,1.9162,1.9162,1.8869,1.9037,0.0,0.0,0.0,0.0,0.0,0.0,2.3537,2.3363,2.3406,2.3797,2.3797,2.3747,2.3647,2.3647,2.3586,2.3486,2.3143,2.3143,2.3486,2.3026,2.3032,0.0,0.0,0.0,0.0,2.4249,2.4368,0.0,0.0,0.0,0.0,2.4497,2.4946,0.0,0.0,0.0,0.0,0.0,0.0,0.0,0.0,2.9675,2.9714,2.9378,0.0,2.9248,2.917,2.9339,2.9495,0.0,2.9663,2.9792,2.9792,2.9792,2.9753,2.9546,2.9844,2.996,2.9548,0.0,0.0,0.0,0.0,0.0,0.0,0.0,0.0,0.0,0.0,0.0,0.0,0.0,2.7309,2.7309,2.7309,2.7309,2.7309,2.7309,2.7309,2.7309,2.7309,2.7309,2.7309,2.7309,2.7309,2.7309,2.7214,2.7262,0.0,0.0,0.0,2.6918,2.6918,2.6274,2.5294,2.4992,2.4335,2.3493,2.2358,2.1787,2.1429,0.0,0.0,0.0,0.0,0.0,0.0,0.0,0.0,0.0,0.0,1.9279,1.9279,1.9279,1.9118,1.9351,0.0,0.0,0.0,0.0,2.218,2.2469,2.3285,2.2916,2.2916,2.3493,2.3484,2.3484,2.3484,2.3484,2.3484,2.3493,2.3363,2.3363,2.3493,2.3232,2.3188,2.3319,2.3537,2.3764,2.3894,2.398,0.0,0.0,0.0,0.0,0.0,2.4658,2.5167,0.0,2.5574,2.6111,2.7042,0.0,0.0,0.0,0.0,2.9578,2.9792,2.9792,2.9792,2.9792,2.9792,2.9792,2.9792,2.9792,2.9792,2.9716,2.9453,2.9616,2.9742,2.9555,2.9936,3.0267,0.0,3.0457,0.0,0.0,0.0,0.0,0.0,0.0,0.0,0.0,0.0,0.0,0.0,0.0,2.8631,2.8631,2.8175,2.7951,2.7951,2.7536,2.7309,2.7309,2.7309,2.7309,2.7309,2.7309,2.7309,2.7309,2.7309,2.7309,0.0,0.0,0.0,2.7309,2.7309,2.6965,2.638,2.5887,2.5343,2.4669,2.3404,2.2805,2.2527,0.0,0.0,0.0,0.0,0.0,0.0,0.0,0.0,0.0,0.0,0.0,0.0,0.0,0.0,0.0,0.0,0.0,0.0,0.0,2.2199,2.2524,2.3067,2.2325,2.228,2.3091,2.3091,2.3091,2.3091,2.3091,2.3091,2.3091,2.3091,2.3091,2.3091,2.3091,2.3091,2.3091,2.3319,2.346,2.3503,2.3677,0.0,0.0,0.0,0.0,0.0,0.0,0.0,0.0,2.5534,2.6046,2.7001,2.7001,0.0,0.0,0.0,0.0,0.0,2.9805,2.9767,2.9717,2.9805,2.9869,2.9844,2.9756,2.9731,0.0,0.0,0.0,2.9681,2.9415,2.996,0.0,0.0,0.0,0.0,0.0,0.0,0.0,0.0,0.0,0.0,0.0,0.0,0.0,0.0,0.0,3.0215,3.0215,2.9395,2.8945,2.8945,2.7987,2.7489,2.7489,2.7357,2.7309,2.7309,2.7309,2.7309,2.7309,2.7309,2.7309,2.7309,0.0,0.0,2.7309,2.7309,2.7309,2.7204,2.6204,2.5837,2.5633,2.4125,2.3498,2.3332,0.0,0.0,0.0,0.0,0.0,0.0,0.0,0.0,0.0,0.0,0.0,0.0,0.0,0.0,0.0,0.0,0.0,0.0,0.0,2.1777,2.2524,2.3067,2.296,2.296,2.3091,2.3091,2.3091,2.3091,2.3091,2.3091,2.3091,2.3091,2.3091,2.3091,2.3091,2.3091,2.3091,2.3144,2.3276,2.3503,2.3547,0.0,0.0,0.0,0.0,0.0,0.0,0.0,0.0,2.6735,2.716,2.7914,2.7914,0.0,0.0,0.0,0.0,0.0,2.9872,2.9682,2.9428,2.9923,3.0049,2.9961,2.9629,2.9552,2.9526,0.0,0.0,0.0,0.0,3.0469,3.066,0.0,0.0,3.0836,0.0,0.0,0.0,0.0,0.0,0.0,0.0,0.0,0.0,0.0,0.0,3.0215,3.0215,3.0034,2.9988,2.9988,2.8991,2.8491,2.8491,2.7726,2.7309,2.7309,2.7309,2.7309,2.7309,2.7309,2.7309,2.7309,0.0,2.7309,2.7309,2.7309,2.7309,2.722,2.6676,2.6485,2.6284,2.4741,2.3973,2.3551,0.0,0.0,0.0,0.0,0.0,0.0,0.0,0.0,0.0,0.0,0.0,0.0,0.0,0.0,0.0,0.0,0.0,0.0,2.1527,2.2528,2.3127,2.311,2.3091,2.3091,2.3091,2.3091,2.3091,2.3091,2.3091,2.3091,2.3091,2.3091,2.3091,2.3091,2.3091,2.3091,2.3091,2.3091,2.3178,2.3276,0.0,0.0,0.0,0.0,0.0,0.0,0.0,0.0,0.0,0.0,2.6748,2.7253,2.7253,0.0,0.0,0.0,0.0,0.0,2.921,2.9119,2.8966,2.9407,2.9397,2.931,2.9486,2.9498,2.9498,0.0,0.0,0.0,0.0,0.0,3.0736,3.0849,0.0,3.0986,0.0,0.0,0.0,0.0,0.0,0.0,0.0,0.0,0.0,0.0,0.0,0.0,3.1909,3.1436,3.1125,3.0946,3.0034,2.9268,2.8724,2.8269,2.7809,2.7309,2.7309,2.7309,2.7309,2.7309,2.7309,2.7309,0.0,2.7309,2.7309,2.7309,2.7164,2.6915,2.6698,2.647,2.6098,2.5138,2.4515,2.4102,0.0,0.0,0.0,0.0,0.0,0.0,0.0,0.0,0.0,0.0,0.0,0.0,0.0,0.0,0.0,0.0,0.0,0.0,2.2099,2.3171,2.3594,2.311,2.3091,2.3091,2.3091,2.3091,2.3091,2.3091,2.3091,2.3091,2.3091,2.3091,2.3091,2.3091,2.3091,2.3091,2.3091,2.3091,2.3091,2.3091,0.0,0.0,0.0,0.0,0.0,0.0,0.0,0.0,0.0,0.0,0.0,0.0,0.0,0.0,0.0,2.7432,2.7858,2.8284,2.8628,2.8574,2.853,2.8782,2.8766,2.8828,2.9351,2.9454,2.9479,0.0,0.0,0.0,0.0,3.0462,0.0,3.0986,3.0986,3.0986,3.0986,0.0,0.0,0.0,0.0,0.0,0.0,0.0,0.0,0.0,0.0,0.0,3.3471,3.2729,3.2239,3.2021,3.1024,3.017,2.9406,2.9176,2.8445,2.7309,2.7536,2.7489,2.7309,2.7536,2.7489,2.7309,2.7309,2.7247,2.7143,2.7143,2.6874,2.6449,2.6299,2.5978,2.5523,2.5148,2.4797,2.4497,0.0,0.0,0.0,0.0,0.0,0.0,0.0,0.0,0.0,0.0,0.0,0.0,0.0,0.0,0.0,0.0,0.0,0.0,2.1759,2.3009,2.3594,2.311,2.3091,2.3091,2.3091,2.3091,2.3091,2.3091,2.3091,2.3091,2.3091,2.3091,2.3091,2.3091,2.3091,2.3091,2.3091,2.3091,2.3091,2.3091,2.3091,0.0,0.0,0.0,0.0,0.0,0.0,0.0,0.0,0.0,0.0,0.0,0.0,0.0,2.665,2.7165,2.746,2.7789,2.8526,2.8412,2.8174,2.8382,2.8694,2.9015,2.9256,2.9304,0.0,2.9947,0.0,0.0,0.0,3.096,3.0986,3.0986,3.0986,3.0986,0.0,0.0,0.0,0.0,0.0,0.0,0.0,0.0,0.0,0.0,0.0,0.0,3.367,3.3428,3.3313,3.3258,3.2108,3.1448,3.1403,3.0531,2.9176,2.7309,2.8175,2.8128,2.7309,2.8222,2.8128,2.7309,2.7309,2.7061,2.6667,2.6667,2.6387,2.5885,2.5482,2.5003,2.459,2.4559,2.4528,2.4497,0.0,0.0,0.0,0.0,0.0,0.0,0.0,0.0,0.0,0.0,0.0,0.0,0.0,0.0,0.0,0.0,0.0,0.0,2.2564,2.3071,2.331,2.3101,2.3091,2.3091,2.3091,2.3091,2.3091,2.3091,2.3091,2.3091,2.3091,2.3091,2.3091,2.3091,2.3091,2.3091,2.3091,2.3091,2.3091,2.3091,2.3091,2.3276,0.0,0.0,0.0,0.0,0.0,0.0,0.0,0.0,2.6499,2.6499,2.6499,2.6499,2.6571,2.6993,2.716,2.7314,2.7829,2.785,2.784,2.8294,2.8521,2.876,0.0,2.9549,2.9967,3.0542,3.066,0.0,0.0,0.0,3.0986,3.0986,3.0986,3.0986,0.0,0.0,0.0,0.0,0.0,0.0,0.0,0.0,0.0,0.0,0.0,0.0,3.3949,3.3865,3.3781,3.3598,3.3031,3.2426,3.1845,3.1347,3.0396,2.913,2.9441,2.9441,2.9073,2.8817,2.8329,2.769,2.7097,2.6615,2.6144,2.6144,2.5875,2.543,2.4931,2.4652,2.4497,2.4497,2.4497,2.4497,0.0,0.0,0.0,0.0,0.0,0.0,0.0,0.0,0.0,0.0,0.0,0.0,0.0,0.0,0.0,0.0,0.0,0.0,2.3091,2.3091,2.3091,2.3091,2.3091,2.3091,2.3091,2.3091,2.3091,2.3091,2.3091,2.3091,2.3091,2.3091,2.3091,2.3091,2.3091,2.3091,2.3091,2.3091,2.3091,2.3091,2.3091,2.3188,0.0,0.0,0.0,0.0,0.0,0.0,0.0,0.0,2.6499,2.6499,2.6499,2.6499,2.6568,2.6841,2.6943,2.7045,2.7369,2.7469,2.7594,2.8007,2.8386,0.0,2.9231,2.9719,3.0257,3.0869,3.0986,3.0986,3.0986,0.0,0.0,0.0,3.0986,0.0,0.0,0.0,0.0,0.0,0.0,0.0,0.0,0.0,0.0,0.0,0.0,0.0,0.0,3.3586,3.3491,3.3283,3.3075,3.2643,3.1994,3.1822,3.138,3.066,3.066,3.039,2.9917,2.9364,2.8746,2.811,2.7198,2.6525,2.6049,2.5802,2.5409,2.4941,2.4621,2.4497,2.4497,2.4497,2.4497,2.4497,0.0,0.0,0.0,0.0,0.0,0.0,0.0,0.0,1.7692,1.8703,1.7971,0.0,0.0,0.0,0.0,0.0,0.0,0.0,2.3091,2.3091,2.3091,2.3091,2.3091,2.3091,2.3091,2.3091,2.3091,2.3091,2.3091,2.3091,2.3091,2.3091,2.3091,2.3091,2.3091,2.3091,2.3091,2.3091,2.3091,2.3091,2.3091,2.3091,2.3096,0.0,0.0,0.0,0.0,0.0,0.0,0.0,2.6499,2.6499,2.6499,2.6499,2.6521,2.6658,2.6829,2.7045,2.7235,2.7403,2.749,2.7503,0.0,0.0,2.9323,2.9732,3.027,3.0869,3.0986,3.0986,3.0986,0.0,0.0,3.0986,0.0,0.0,0.0,0.0,0.0,0.0,0.0,0.0,0.0,0.0,0.0,0.0,0.0,0.0,0.0,3.25,3.2393,3.2393,3.2127,3.2007,3.2007,3.2007,3.1886,3.1696,3.1696,3.0849,2.9322,2.9799,2.9466,2.8448,2.7568,2.6911,2.6422,2.5553,2.491,2.4497,2.4497,2.4497,2.4497,2.4497,2.4497,2.4497,0.0,0.0,0.0,0.0,0.0,0.0,0.0,0.0,2.0512,2.0782,2.115,0.0,0.0,0.0,0.0,0.0,0.0,0.0,2.3091,2.3091,2.3091,2.3091,2.3091,2.3091,2.3091,2.3091,2.3091,2.3091,2.3091,2.3091,2.3091,2.3091,2.3091,2.3091,2.3091,2.3091,2.3091,2.3091,2.3091,2.3091,2.3091,2.3091,2.3052,0.0,0.0,0.0,0.0,0.0,0.0,0.0,0.0,0.0,2.6499,2.6499,2.6568,2.6841,2.6943,2.7045,2.7369,2.7469,2.7594,2.8033,0.0,0.0,0.0,3.032,0.0,0.0,3.0986,3.0986,3.0986,0.0,0.0,3.0986,0.0,0.0,0.0,0.0,0.0,0.0,0.0,0.0,0.0,0.0,0.0,0.0,0.0,0.0,0.0,3.2659,3.2619,3.2619,3.242,3.226,3.226,3.2087,3.1966,3.1886,3.1383,3.1016,3.0758,3.0236,2.9666,2.9006,2.8042,2.7008,2.5964,2.507,2.4621,2.4497,2.4497,2.4497,2.4497,2.4497,2.4497,2.4497,0.0,0.0,0.0,0.0,0.0,0.0,0.0,0.0,2.1239,2.165,2.1828,2.2227,0.0,0.0,0.0,0.0,0.0,0.0,2.3091,2.3091,2.3091,2.3091,2.3091,2.3091,2.3091,2.3091,2.3091,2.3091,2.3091,2.3091,2.3091,2.3091,2.3091,2.3091,2.3091,2.3091,2.3091,2.3091,2.3091,2.3091,2.3091,2.3091,2.3033,0.0,0.0,0.0,0.0,0.0,0.0,0.0,0.0,0.0,2.6499,2.6499,2.6568,2.6909,2.699,2.7079,2.7403,2.7689,2.7921,2.8022,2.8631,2.9362,3.0025,0.0,0.0,0.0,3.0986,3.0986,3.0986,3.0986,0.0,0.0,0.0,0.0,0.0,0.0,0.0,0.0,0.0,0.0,0.0,0.0,0.0,0.0,0.0,0.0,0.0,3.2019,3.2019,3.2019,3.1902,3.1824,3.1824,3.1668,3.1538,3.1459,3.1008,3.0826,3.0866,3.0211,2.9756,2.9438,2.8485,2.7385,2.6235,2.539,2.502,2.502,2.502,2.502,2.502,2.502,2.502,2.4978,0.0,0.0,2.2007,2.1674,0.0,0.0,0.0,0.0,2.0782,2.1695,2.1006,2.1141,0.0,0.0,0.0,0.0,0.0,2.3091,2.3091,2.3091,2.3091,2.3091,2.3091,2.3091,2.3091,2.3091,2.3091,2.3091,2.3091,2.3091,2.3091,2.3091,2.3091,2.3091,2.3091,2.3091,2.3091,2.3091,2.3091,2.3091,2.3091,2.3091,2.3003,2.2207,0.0,0.0,0.0,0.0,0.0,0.0,0.0,0.0,2.6499,2.6499,2.6602,2.6922,2.7024,2.7113,2.7403,2.7941,2.8287,2.7723,2.9027,0.0,3.0317,3.0668,3.1003,3.0867,0.0,3.0908,3.0945,3.0985,0.0,0.0,0.0,0.0,0.0,0.0,0.0,0.0,0.0,0.0,0.0,0.0,0.0,0.0,0.0,0.0,0.0,3.0986,3.0986,3.0986,3.0986,3.0986,3.0986,3.0986,3.0911,3.0736,3.0698,3.0508,3.0152,2.9946,2.983,2.9792,2.8882,2.8011,2.7191,2.6276,2.5902,2.5902,2.5902,2.5902,2.5902,2.5902,2.5861,2.5704,0.0,0.0,2.3756,2.3338,0.0,0.0,0.0,0.0,0.0,2.2775,0.0,0.0,0.0,0.0,0.0,0.0,2.3091,2.3091,2.3091,2.3091,2.3091,2.3091,2.3091,2.3091,2.3091,2.3091,2.3091,2.3091,2.3091,2.3091,2.3091,2.3091,2.3091,2.3091,2.3091,2.3091,2.3091,2.3091,2.3091,2.3091,2.3091,2.3091,2.3003,2.2207,2.2574,0.0,0.0,0.0,0.0,0.0,0.0,0.0,2.6499,2.6555,2.6692,2.6943,2.7113,2.7268,2.7469,2.7623,0.0,2.8189,2.9338,3.0419,3.0383,3.0815,3.0945,2.9878,3.0006,3.0357,3.049,3.0932,0.0,0.0,0.0,0.0,0.0,0.0,0.0,0.0,0.0,0.0,0.0,0.0,0.0,0.0,0.0,0.0,3.0986,3.0986,3.0986,3.0986,3.0986,3.0986,3.0986,3.0986,3.0986,0.0,3.0773,3.066,3.0546,3.0203,3.0049,2.9972,2.8949,2.8462,2.8343,2.7273,2.6812,2.6812,2.6812,2.6812,2.6812,2.6812,2.64,2.5777,0.0,0.0,0.0,0.0,0.0,0.0,0.0,0.0,0.0,0.0,0.0,2.3091,2.3091,2.3091,0.0,0.0,2.3091,2.3091,2.3091,2.3091,2.3091,2.3091,2.3091,2.3091,2.3091,2.3091,2.3309,2.3777,2.3777,2.3777,2.3777,2.4188,2.4188,2.3777,2.3777,2.3517,2.3091,2.3091,2.3091,2.3091,2.3091,2.3091,2.3003,2.2207,2.2431,2.3238,2.3425,0.0,0.0,0.0,0.0,0.0,0.0,0.0,2.6658,2.6909,2.7289,2.7696,2.7908,2.8436,0.0,2.978,0.0,3.0587,3.0587,3.0893,3.087,2.9852,3.0242,3.0915,3.1418,0.0,0.0,0.0,0.0,0.0,0.0,0.0,0.0,0.0,0.0,0.0,0.0,0.0,0.0,0.0,0.0,3.0986,3.0986,3.0986,3.0986,3.0986,3.0986,3.0986,3.0986,3.0986,3.0986,3.0986,3.0874,3.0811,3.0698,3.0381,3.019,3.0075,2.9613,2.9419,2.9353,2.8331,2.7851,2.7758,2.7758,2.7758,2.7758,2.7758,2.7476,2.7017,0.0,0.0,0.0,0.0,0.0,0.0,0.0,0.0,0.0,0.0,0.0,2.3091,2.3091,2.3091,2.3091,0.0,0.0,0.0,2.3091,2.3091,2.3091,2.3091,2.3091,2.3091,2.3091,2.3266,2.3734,2.4498,2.4829,2.4999,2.5031,2.5526,2.5411,2.4701,2.4701,2.4198,2.3343,2.3343,2.3266,2.3091,2.3091,2.3139,2.3113,2.2387,2.2554,2.3234,2.3552,2.412,2.4898,2.606,0.0,0.0,0.0,0.0,2.6602,2.6909,2.751,2.813,2.8417,2.947,3.0644,3.1219,3.1161,0.0,3.0984,3.1087,3.1014,3.0495,3.0894,3.1589,0.0,0.0,0.0,0.0,0.0,0.0,0.0,0.0,0.0,0.0,0.0,0.0,0.0,0.0,0.0,0.0,0.0,3.1061,3.0986,3.0986,3.0986,3.0986,3.0986,3.0986,3.0986,3.0986,3.0986,3.0986,3.0986,3.0874,3.0698,3.0558,3.0406,3.019,3.033,3.033,3.0152,2.9392,2.8949,2.8779,2.8779,2.8779,2.8779,2.8779,2.8661,2.8462,0.0,0.0,0.0,0.0,0.0,0.0,0.0,0.0,0.0,0.0,2.3091,2.3091,2.3091,2.3091,2.3091,2.3091,2.3091,2.3091,2.3091,0.0,0.0,2.3091,2.3091,2.3091,2.3091,2.3907,2.437,2.4498,2.6091,2.6917,2.7098,2.6193,2.5735,2.5621,2.5621,2.5115,2.4327,2.4327,2.3854,2.3091,2.3091,2.3299,2.3564,2.3115,2.3184,2.3607,2.4107,2.4445,2.4862,2.5898,2.6374,0.0,0.0,0.0,2.6726,2.6943,2.759,2.8287,2.8449,0.0,3.0554,0.0,3.1278,3.1698,0.0,0.0,3.1853,0.0,3.138,0.0,0.0,0.0,0.0,0.0,0.0,0.0,0.0,0.0,0.0,0.0,0.0,0.0,0.0,0.0,0.0,0.0,3.1272,3.1161,3.1024,3.0986,3.0986,3.0986,3.0986,3.0986,3.0986,3.0986,3.0986,3.0986,3.0986,3.0874,3.0698,3.0836,3.0798,3.0622,3.0444,3.0482,3.0584,3.0292,3.0062,2.9882,2.9882,2.9882,2.9882,2.9882,2.9392,2.8752,0.0,0.0,0.0,0.0,0.0,0.0,0.0,0.0,0.0,0.0,0.0,2.3091,2.3091,2.3091,2.3091,2.3091,2.3091,2.3091,2.3091,2.3091,2.3091,2.3091,2.3091,2.3353,2.3854,2.4284,2.4999,2.6008,2.6917,2.7649,2.8211,2.7851,2.7354,2.6771,2.6618,2.608,2.52,2.4701,2.4241,2.3864,2.3864,2.3805,2.3732,2.3805,2.3713,2.3689,2.4194,2.4528,2.4862,2.5875,2.6339,2.6499,2.6499,0.0,0.0,0.0,2.7796,2.8921,2.9903,3.0688,3.1248,0.0,3.1697,3.2038,3.2094,0.0,3.2247,3.2287,0.0,0.0,0.0,0.0,0.0,0.0,0.0,0.0,0.0,0.0,0.0,0.0,0.0,0.0,0.0,0.0,0.0,0.0,3.1593,3.1272,3.1161,3.1061,3.0986,3.0986,3.0986,3.0986,3.0986,3.0986,3.0986,3.0986,3.0986,3.0949,3.0874,3.0949,3.0874,3.0698,3.0723,3.0723,3.0698,3.0609,3.0457,3.0254,3.0254,3.0254,3.0254,3.0254,3.0024,2.9703,0.0,0.0,0.0,0.0,0.0,0.0,0.0,0.0,0.0,0.0,0.0,2.3091,2.3091,0.0,0.0,0.0,2.3091,2.3091,2.3091,2.3091,2.3091,2.3091,2.3353,2.3777,2.4498,2.4956,2.5883,2.7296,2.7649,2.8211,2.8949,2.904,2.8712,2.7959,2.7742,2.708,2.6193,2.5495,2.5041,2.4819,2.4661,2.4461,2.4202,2.4399,2.4293,2.4067,2.4476,2.4791,2.5123,2.5875,2.6292,2.6499,2.6499,2.6499,0.0,0.0,0.0,2.9425,0.0,0.0,3.1756,3.1841,3.1996,3.2178,0.0,0.0,3.2398,0.0,0.0,0.0,0.0,0.0,0.0,0.0,0.0,0.0,0.0,0.0,0.0,0.0,0.0,0.0,0.0,0.0,0.0,0.0,3.1886,3.1347,3.131,3.1099,3.0986,3.0986,3.0986,3.0986,3.0986,3.0986,3.0986,3.0986,3.0986,3.0986,3.0986,3.0986,3.0911,3.0773,3.0911,3.0911,3.0773,3.0773,3.0647,3.0482,3.0482,3.0482,3.0482,3.0482,3.0482,3.0482,0.0,0.0,0.0,0.0,0.0,0.0,0.0,0.0,0.0,0.0,0.0,2.3091,2.3091,2.3091,2.3091,2.3091,2.3091,2.3091,2.3091,2.3091,2.3091,2.3091,2.394,0.0,2.4498,2.6174,2.7214,2.7476,2.8343,2.8949,2.938,2.9197,2.9157,2.9302,2.887,2.8223,2.7395,2.7174,2.6547,2.5703,2.5163,2.519,2.5465,2.4967,2.4945,2.523,2.5241,0.0,0.0,0.0,0.0,0.0,0.0,2.6499,2.6521,0.0,0.0,0.0,0.0,3.1511,0.0,3.1912,3.1996,0.0,0.0,0.0,0.0,0.0,0.0,0.0,0.0,0.0,0.0,0.0,0.0,0.0,0.0,0.0,0.0,0.0,0.0,0.0,0.0,0.0,0.0,0.0,3.2069,3.1485,3.131,3.1099,3.0986,3.0986,3.0986,3.0986,3.0986,3.0986,3.0986,3.0986,3.0986,3.0986,3.0986,3.0986,3.0986,3.0986,3.0986,3.0986,3.0986,3.0986,3.0874,3.0698,3.0698,3.0698,3.0698,3.0698,3.0698,3.0698,0.0,0.0,0.0,0.0,0.0,0.0,0.0,0.0,0.0,0.0,0.0,0.0,0.0,2.3091,2.3091,2.3091,2.3091,2.3091,2.3091,2.3647,2.3983,2.3983,2.4861,2.5621,2.6216,2.6887,2.758,2.8331,2.8412,2.8641,2.8884,2.8587,2.87,2.9074,2.901,2.8843,2.8502,2.7851,2.7129,2.6365,2.6183,2.5704,2.5142,2.548,2.5504,0.0,0.0,0.0,0.0,0.0,0.0,0.0,0.0,0.0,0.0,0.0,0.0,0.0,0.0,0.0,0.0,3.194,3.2066,3.2178,3.237,3.2398,3.2398,0.0,0.0,0.0,0.0,0.0,0.0,0.0,0.0,0.0,0.0,0.0,0.0,0.0,0.0,0.0,0.0,0.0,0.0,0.0,0.0,3.2402,3.2223,3.2005,3.1603,3.1024,3.0986,3.0986,3.0986,3.0986,3.0986,3.0986,3.0986,3.0986,3.0986,3.0986,3.0986,3.0986,3.0986,3.0986,3.0986,3.0986,3.0949,3.0874,3.0874,3.0874,3.0874,3.0874,3.0874,3.0874,0.0,0.0,0.0,2.5147,0.0,2.4956,2.4956,2.4402,2.4231,2.4872,0.0,0.0,0.0,0.0,2.4026,2.4026,2.4026,2.4026,2.4026,2.4573,2.4956,2.4956,2.5788,2.6547,2.7185,2.7377,2.7854,2.8614,2.8281,2.8237,2.845,2.8199,2.8298,2.8637,2.8922,2.9114,2.9157,2.8502,2.7834,2.7218,2.704,2.6297,2.5397,0.0,0.0,0.0,0.0,0.0,0.0,0.0,0.0,0.0,0.0,0.0,0.0,0.0,0.0,0.0,3.0822,0.0,0.0,0.0,3.2038,3.2178,3.2287,0.0,3.2398,0.0,0.0,0.0,0.0,0.0,0.0,0.0,0.0,0.0,0.0,0.0,0.0,0.0,0.0,0.0,0.0,0.0,0.0,0.0,0.0,0.0,3.2457,3.2229,3.1763,3.1066,3.1265,3.1259,3.0986,3.0986,3.0895,3.0699,3.0699,3.0594,3.0411,3.0411,3.0411,3.0411,3.0411,3.0671,3.096,3.0777,3.0699,3.0686,3.049,3.0411,3.0411,3.0411,3.0411,3.0411,2.6565,2.6378,2.6202,2.6149,2.5975,2.5861,2.5861,2.5819,2.583,2.5819,0.0,0.0,0.0,0.0,0.0,2.5777,2.5777,2.5777,2.5777,2.5819,2.5819,2.5819,2.6753,2.7214,2.7203,2.775,2.8078,2.8307,2.7928,2.7877,2.8084,2.8059,2.8059,2.8109,2.8599,2.9024,2.933,2.9172,2.8799,2.8258,0.0,2.7054,2.6323,0.0,0.0,0.0,2.5535,2.5758,0.0,2.6131,0.0,0.0,0.0,0.0,0.0,0.0,0.0,0.0,0.0,0.0,0.0,0.0,0.0,0.0,3.2178,0.0,3.2398,0.0,0.0,0.0,0.0,0.0,0.0,0.0,0.0,0.0,0.0,0.0,0.0,0.0,0.0,0.0,0.0,0.0,0.0,0.0,3.2572,3.2062,3.2044,3.1701,3.1352,3.1081,3.1699,3.1683,3.0972,3.0934,3.066,3.0074,3.0074,2.981,2.931,2.931,2.931,2.931,2.931,2.9951,3.0895,3.0333,3.0074,3.0022,2.9497,2.931,2.931,2.931,2.931,2.931,2.8383,2.8343,2.8079,2.7424,2.7261,2.718,2.7058,2.6461,2.6224,0.0,0.0,0.0,2.5777,2.5777,2.5777,2.5777,2.5777,2.5777,2.5777,2.6464,2.6794,2.6794,2.7672,2.8028,2.7792,2.792,2.7971,2.794,2.7481,2.7304,2.7507,2.714,2.7165,2.7519,2.767,2.801,2.8462,2.8799,0.0,2.7903,2.7346,2.6706,0.0,0.0,0.0,0.0,0.0,2.6062,2.6131,0.0,2.6465,2.6499,0.0,0.0,0.0,0.0,0.0,0.0,3.0103,0.0,0.0,0.0,0.0,0.0,3.215,3.2219,3.2274,0.0,0.0,0.0,0.0,0.0,0.0,0.0,0.0,0.0,0.0,0.0,0.0,0.0,0.0,0.0,0.0,0.0,0.0,0.0,3.3166,3.2931,3.2809,3.1961,3.1224,3.0678,3.0744,3.0467,2.9794,2.9758,2.9666,2.9523,2.9523,2.9431,2.931,2.931,2.931,2.931,2.931,2.9493,2.9781,2.9588,2.9523,2.9497,2.9375,2.931,2.931,2.931,2.931,2.931,2.9378,2.9287,2.9067,2.8569,2.8422,2.8303,2.8183,2.7706,2.7504,0.0,0.0,0.0,2.7058,2.6987,2.6917,2.6917,2.6917,2.6917,2.6917,2.7429,2.7631,2.7409,2.7965,2.8116,2.7685,2.7604,2.7533,2.7457,2.7018,2.6849,2.6964,2.665,2.6663,2.6989,2.718,2.7457,2.7783,2.8109,2.7974,0.0,2.7251,0.0,0.0,2.6027,2.598,0.0,0.0,0.0,2.6236,2.643,2.6499,0.0,0.0,0.0,0.0,0.0,0.0,0.0,0.0,0.0,0.0,0.0,0.0,0.0,3.1996,3.2122,3.2219,0.0,0.0,0.0,0.0,0.0,0.0,0.0,0.0,0.0,0.0,0.0,0.0,0.0,0.0,0.0,0.0,3.2398,3.2552,3.2952,3.2982,3.2924,3.2735,3.2354,3.1639,3.0585,3.0695,3.0282,2.931,2.9579,2.946,2.8943,2.9209,2.9042,2.8556,2.8556,2.8556,2.8556,2.8556,2.8556,2.8556,2.8556,2.8686,2.8917,2.8647,2.8556,2.8556,2.8556,2.8556,2.8556,0.0,2.9611,2.9419,2.9419,2.9287,2.917,2.9131,2.9131,2.9131,0.0,2.9091,2.9013,2.8831,2.8657,2.855,2.855,2.855,2.855,2.855,2.855,2.8333,2.7864,2.796,2.7796,2.7297,2.7077,2.6996,2.6934,2.6634,2.6499,2.6499,2.6499,2.6499,2.6512,2.7002,2.7228,2.7228,2.7228,2.7228,2.7228,2.7228,2.6834,0.0,0.0,2.6131,2.598,2.6166,2.6236,2.627,2.643,2.6499,0.0,0.0,0.0,0.0,0.0,2.763,0.0,0.0,0.0,0.0,0.0,3.1511,0.0,3.1784,3.1996,3.2163,3.2163,0.0,0.0,0.0,0.0,0.0,0.0,0.0,0.0,0.0,0.0,0.0,0.0,0.0,0.0,3.2275,3.2351,3.2398,3.2398,3.2398,3.2342,3.2219,3.2658,3.2199,3.07,3.1108,3.0693,2.9346,2.9921,2.9639,2.8541,2.9033,2.8698,2.7623,2.7623,2.7623,2.7623,2.7623,2.7623,2.7623,2.7523,2.7837,2.8242,2.7699,2.749,2.749,2.749,2.749,2.749,2.9792,2.9753,2.9702,2.9702,2.9702,2.9573,2.938,2.9341,2.9275,2.9131,2.9091,2.9091,2.9052,2.8843,2.8724,2.8724,2.8724,2.8724,2.8724,2.8895,2.8937,2.8827,2.8437,2.8074,2.7693,2.7222,2.6868,2.6593,2.6549,2.6499,2.6499,2.6499,2.6499,2.6499,2.6612,2.6663,2.6663,2.6663,2.6663,2.6663,2.6663,0.0,2.643,2.643,2.643,2.6396,2.643,2.643,2.6465,2.6499,2.6499,2.6499,0.0,0.0,0.0,2.6521,0.0,0.0,0.0,0.0,0.0,0.0,0.0,0.0,3.1641,3.1841,3.1927,0.0,0.0,0.0,0.0,0.0,0.0,0.0,0.0,0.0,0.0,0.0,0.0,0.0,0.0,0.0,3.1609,3.2074,3.2398,3.2398,3.2398,3.2398,3.237,3.2369,3.1905,3.0953,3.092,3.0459,2.9471,2.9599,2.9529,2.9277,2.8857,2.8557,2.8287,2.8287,2.8287,2.8287,2.8287,2.8287,2.8254,2.7723,2.7555,2.7646,2.7542,2.749,2.749,2.749,2.749,2.749,2.9792,2.9792,2.9792,2.9792,2.9792,2.974,2.9611,2.9599,2.9573,2.9456,2.9326,2.9236,2.9236,2.9079,2.8961,2.8961,2.8961,2.8961,2.8961,2.9052,2.8969,2.8699,2.8531,2.8126,2.7418,2.7253,2.6947,2.6499,2.6499,2.6499,2.6499,2.6499,2.6499,2.6499,2.6499,2.6499,2.6499,2.6499,2.6499,2.6499,2.6499,0.0,2.6499,2.6499,2.6499,2.6499,2.6499,2.6499,2.6499,2.6499,2.6499,0.0,2.6499,2.6499,2.6499,0.0,2.704,2.7604,0.0,0.0,0.0,2.9701,0.0,0.0,0.0,3.1002,3.1237,3.0945,0.0,0.0,0.0,0.0,0.0,0.0,0.0,0.0,0.0,0.0,0.0,0.0,0.0,0.0,3.0905,3.1505,3.2028,3.2367,3.2398,3.2398,3.2398,3.2259,3.1823,3.1043,3.0881,3.0389,2.9504,2.9827,2.9827,2.9504,2.9501,2.9314,2.8998,2.8998,2.8998,2.8998,2.8998,2.8998,2.8935,2.8287,2.8189,2.8422,2.7743,2.749,2.749,2.749,2.749,2.749,2.9792,2.9792,2.9792,2.9792,2.9792,2.9792,2.9792,2.9792,2.9792,2.9792,2.9599,2.947,2.947,2.9275,2.917,2.917,2.917,2.917,2.917,2.9209,2.9063,2.8619,2.8635,2.8263,2.7379,2.741,2.7203,2.665,2.665,2.66,2.6499,2.6499,2.6499,2.6499,2.6499,2.6499,2.6499,0.0,0.0,2.6499,0.0,2.6499,2.6499,2.6499,2.6499,2.6499,2.6499,2.6499,2.6499,2.6499,2.6499,2.6499,2.6499,2.6499,0.0,0.0,0.0,0.0,0.0,0.0,0.0,0.0,0.0,2.9763,0.0,0.0,0.0,0.0,0.0,0.0,0.0,0.0,0.0,0.0,0.0,0.0,0.0,0.0,0.0,0.0,0.0,0.0,3.0202,3.0812,3.1428,3.1967,3.2121,3.2198,3.2198,3.2226,3.1923,3.1218,3.1102,3.0673,2.9889,3.0419,3.0419,2.9889,3.0299,3.0238,2.969,2.969,2.969,2.969,2.969,2.969,2.9628,2.8967,2.903,2.938,2.8189,2.7776,2.7908,2.7908,2.7908,2.7908,2.9792,2.9792,2.9792,2.9792,2.9792,2.9792,2.9792,2.9792,2.9792,2.9792,2.9792,2.974,2.974,0.0,0.0,0.0,0.0,0.0,2.938,0.0,2.9677,2.9626,2.9126,2.8787,2.8712,2.8223,2.7745,2.7228,2.7228,2.6977,2.6499,2.6499,2.6499,2.6499,2.6499,0.0,0.0,0.0,2.6499,0.0,2.6499,2.6499,0.0,2.6499,2.6499,2.6499,2.6499,2.6499,2.6499,0.0,2.6499,2.6499,0.0,2.6499,2.6499,2.6499,0.0,0.0,0.0,0.0,0.0,0.0,2.8084,0.0,0.0,0.0,2.9204,2.824,0.0,0.0,0.0,0.0,0.0,0.0,0.0,0.0,0.0,0.0,0.0,0.0,0.0,0.0,0.0,3.0109,3.054,3.0617,3.1182,3.1516,3.1516,3.2059,3.2231,3.1896,3.1868,3.1668,3.1278,3.1351,3.1351,3.1278,3.0748,3.045,3.0389,3.0389,3.0389,3.0389,3.0389,3.0389,3.0329,2.9673,2.9411,2.9411,2.8693,2.8744,2.9254,2.9254,2.9254,2.9254,2.9972,2.9792,2.9792,2.9792,2.9792,2.9792,2.9792,2.9792,2.9792,2.9792,2.9792,2.9792,0.0,0.0,0.0,0.0,0.0,2.965,0.0,0.0,2.9792,2.9792,2.9566,2.9277,2.89,2.8662,2.831,2.7758,2.8247,2.8164,2.755,2.8028,2.7811,2.7095,2.7484,0.0,2.7061,0.0,2.7061,0.0,0.0,0.0,0.0,2.6499,2.6499,2.6499,2.6499,2.6499,2.6499,0.0,2.6499,0.0,0.0,0.0,0.0,0.0,0.0,0.0,0.0,0.0,0.0,0.0,0.0,0.0,2.7714,0.0,2.7947,0.0,0.0,0.0,0.0,0.0,0.0,0.0,3.1219,0.0,0.0,0.0,0.0,0.0,0.0,0.0,0.0,0.0,0.0,0.0,3.0674,3.0828,3.0828,3.1459,3.1692,3.1447,3.1799,3.1855,3.1511,3.1511,3.1511,3.1511,3.1219,3.1087,3.1087,3.1087,3.1087,3.1087,3.1087,3.1087,3.1029,3.0359,3.0299,3.0584,2.9934,2.958,2.9504,2.9504,2.9504,2.9504,3.0784,3.0508,3.0444,3.0444,3.0444,3.0444,3.0444,3.0444,3.0444,3.0444,3.0254,0.0,3.0406,3.0216,0.0,0.0,3.0444,3.0444,0.0,0.0,3.0444,0.0,0.0,0.0,2.9802,2.9802,2.952,2.899,2.9371,2.927,2.8641,2.9039,2.871,2.7802,0.0,2.8247,2.7769,0.0,2.7769,2.7769,2.7769,2.7484,2.7007,2.6658,2.6499,2.6499,2.6499,2.6499,2.6499,2.6499,2.6499,0.0,2.6499,0.0,0.0,0.0,0.0,0.0,2.6782,0.0,0.0,0.0,0.0,0.0,0.0,0.0,0.0,0.0,0.0,0.0,0.0,0.0,0.0,0.0,0.0,3.1195,0.0,0.0,0.0,0.0,0.0,0.0,0.0,0.0,0.0,0.0,0.0,3.0125,3.0125,3.0766,3.1106,3.1061,3.1521,3.1715,3.1597,3.1568,3.1539,3.1511,3.1511,3.1511,3.1511,3.1511,3.1511,3.1511,3.1511,3.1511,3.1467,3.097,3.1058,3.1438,3.097,3.0494,3.0042,3.0042,3.0042,3.0042,3.2522,3.2241,3.2051,3.2051,3.2051,3.2051,3.2051,3.2051,3.2051,3.2051,0.0,0.0,0.0,0.0,0.0,0.0,0.0,3.2051,3.2051,0.0,3.2051,0.0,0.0,3.2037,0.0,3.201,3.1726,3.12,3.056,2.9977,2.9448,2.8836,2.8519,2.846,2.8492,2.8492,2.846,2.846,2.846,2.846,2.846,2.846,2.8298,0.0,2.6499,2.6499,2.6499,0.0,0.0,2.6499,2.6499,0.0,0.0,0.0,0.0,0.0,0.0,0.0,0.0,0.0,0.0,2.6692,0.0,0.0,0.0,0.0,2.5656,0.0,0.0,0.0,0.0,0.0,0.0,0.0,0.0,0.0,0.0,0.0,0.0,0.0,0.0,0.0,0.0,0.0,0.0,0.0,2.9417,0.0,2.9417,3.0063,3.0672,3.1167,3.1213,3.1411,3.1784,3.1799,3.1698,3.1511,3.1511,3.1511,3.1511,3.1511,3.1511,3.1511,3.1511,3.1511,3.1511,3.1467,3.1467,3.1511,3.1467,3.1438,3.1438,3.1438,3.1438,3.1438,3.4124,3.4036,3.361,3.2442,3.2227,3.2205,3.211,3.211,3.211,0.0,3.1856,0.0,0.0,3.1856,3.1819,0.0,0.0,3.211,3.211,3.211,0.0,0.0,0.0,3.211,0.0,0.0,3.1789,3.1156,3.1475,3.1104,3.0104,3.0344,3.0034,2.9251,0.0,2.9701,0.0,0.0,0.0,0.0,0.0,2.8602,2.846,0.0,2.7537,2.7162,2.7162,2.7162,0.0,2.7162,2.7451,2.7835,2.7835,2.7835,2.7855,2.8117,2.8149,0.0,0.0,0.0,2.8615,2.7451,0.0,0.0,0.0,0.0,0.0,0.0,0.0,0.0,0.0,0.0,0.0,0.0,0.0,0.0,0.0,0.0,0.0,0.0,0.0,0.0,0.0,0.0,0.0,0.0,2.8996,0.0,2.875,2.9356,2.9782,2.9878,3.0295,3.0711,3.1063,3.1063,3.1219,3.1511,3.1511,3.1511,3.1511,3.1511,3.1511,3.1511,3.1511,3.1511,3.1511,3.1511,3.1511,3.1511,3.1511,3.1511,3.1511,3.1511,3.1511,3.1511,3.5115,3.5115,3.4706,3.3443,3.322,3.3164,3.3052,3.3017,0.0,0.0,3.2662,0.0,3.2889,0.0,3.2613,0.0,3.2925,3.2925,3.2925,3.2925,0.0,3.2925,3.2925,0.0,0.0,0.0,0.0,0.0,0.0,3.1848,3.0793,3.1125,3.0807,3.0068,0.0,3.0623,3.0567,3.052,3.0598,0.0,0.0,2.9421,0.0,0.0,2.8538,2.755,0.0,2.7855,2.7855,2.7855,2.8149,2.8492,2.8492,2.8492,2.8556,2.8826,2.8889,2.8889,2.8889,2.9219,0.0,2.8149,2.8182,0.0,2.7095,0.0,2.5999,0.0,0.0,0.0,0.0,0.0,0.0,0.0,0.0,0.0,0.0,3.1438,0.0,0.0,0.0,0.0,0.0,0.0,0.0,2.9771,2.9125,2.8658,0.0,2.8827,2.91,2.9271,2.9684,3.0079,3.0452,3.0694,3.0915,3.1137,3.1391,3.1511,3.1511,3.1511,3.1511,3.1511,3.1511,3.1511,3.1511,3.1511,3.1511,3.1511,3.1511,3.1511,3.1511,3.1511,3.1511,3.1511,3.5504,3.5504,3.5359,3.5001,3.4902,0.0,0.0,0.0,3.4631,0.0,3.3776,3.3589,3.4332,3.3742,3.3589,3.4332,3.4414,3.4414,3.4414,3.4414,0.0,0.0,3.4414,3.4414,3.4414,0.0,0.0,0.0,0.0,0.0,3.1496,3.1024,3.0791,3.0791,3.0791,0.0,3.2001,3.1864,3.1894,3.1942,3.1174,3.0761,3.0568,3.0598,2.9376,2.7703,2.833,2.8556,2.8556,2.8556,2.8588,2.8588,2.8588,2.8588,2.873,2.9453,2.9654,2.9654,2.9654,2.9654,2.9484,2.873,2.8556,0.0,0.0,0.0,2.679,0.0,0.0,0.0,0.0,0.0,0.0,0.0,0.0,0.0,0.0,0.0,0.0,0.0,0.0,0.0,0.0,0.0,3.0976,3.0448,2.9802,2.915,0.0,2.8442,2.8735,2.9325,2.9341,2.9562,2.9947,3.0615,3.0812,3.0522,3.1182,3.1511,3.1511,3.1511,3.1511,3.1511,3.1511,3.1511,3.1511,3.1511,3.1511,3.1511,3.1511,3.1511,3.1511,3.1511,3.1511,3.1511,3.5504,3.5504,3.5472,0.0,3.5115,3.4902,0.0,0.0,0.0,0.0,3.4587,3.452,3.4616,3.4448,3.4332,3.4414,3.4414,0.0,0.0,0.0,0.0,3.4631,3.4631,3.4631,3.4631,3.4481,0.0,3.3503,0.0,0.0,3.1696,3.1098,3.0895,0.0,0.0,0.0,3.2227,3.2182,3.2197,3.2212,3.1989,3.1201,3.0222,0.0,3.0297,2.9348,2.9314,2.9328,2.9328,2.9328,2.9639,3.0054,3.0054,3.0054,3.0085,3.0282,3.0357,3.0357,3.0357,3.0357,3.019,2.9484,2.9328,2.9125,0.0,0.0,0.0,0.0,0.0,0.0,0.0,0.0,0.0,0.0,0.0,0.0,0.0,0.0,0.0,3.1511,0.0,0.0,0.0,3.154,3.0976,3.0448,3.0233,2.9617,2.8473,0.0,2.8987,2.8673,2.8673,2.8907,2.9388,2.997,3.0386,3.0661,3.1239,3.1511,3.1511,3.1511,3.1511,3.1511,3.1511,3.1511,3.1511,3.1511,3.1511,3.1511,3.1511,3.1511,3.1511,3.1511,3.1511,3.1511,3.5504,3.5504,0.0,3.5504,0.0,0.0,3.5034,3.5034,0.0,3.4902,3.4902,0.0,3.4783,3.4783,3.475,3.4635,3.4601,0.0,3.4601,0.0,0.0,3.4783,3.4783,3.4783,3.4783,3.4683,0.0,3.3718,0.0,0.0,3.188,3.1602,0.0,0.0,0.0,3.1797,3.2855,3.3153,3.3196,3.3089,3.2525,3.1749,0.0,3.1043,3.0836,3.0448,3.0312,3.019,3.0129,3.0068,3.0282,3.0598,3.0598,3.0598,3.0598,3.0598,3.0598,3.0598,3.0598,3.0598,3.0507,3.0129,3.0038,2.9839,2.9156,2.8985,2.8902,0.0,2.8519,2.8546,0.0,0.0,0.0,0.0,0.0,0.0,0.0,0.0,0.0,0.0,3.1511,0.0,0.0,3.1675,3.1338,3.0799,3.0791,3.0258,0.0,0.0,2.9104,2.8427,2.8411,2.8507,2.8777,2.9347,2.986,3.0325,3.0889,3.1269,3.1511,3.1511,3.1511,3.1511,3.1511,3.1511,3.1511,3.1511,3.1511,3.1511,3.1511,3.1511,3.1511,3.1511,3.1511,3.1511,3.5504,3.5504,0.0,0.0,0.0,0.0,0.0,3.5261,0.0,3.5001,0.0,3.4968,3.4935,3.4935,3.4935,3.4902,0.0,3.4902,3.4902,3.4935,3.4935,3.4935,3.4935,3.4935,3.4935,3.4902,3.4655,0.0,0.0,0.0,3.2283,0.0,0.0,0.0,0.0,0.0,0.0,3.4369,3.4483,3.4131,3.3031,3.2375,3.2003,3.1471,3.122,3.1146,3.1132,3.0984,3.0791,3.0702,3.0642,3.0642,3.0672,3.0642,3.0642,3.0642,3.0598,3.0598,3.0612,3.0642,3.0642,3.0642,3.0642,3.0477,2.987,2.9716,2.9747,2.9747,2.9747,2.9931,0.0,0.0,0.0,0.0,0.0,0.0,0.0,0.0,0.0,0.0,0.0,0.0,0.0,0.0,3.1764,3.1243,3.1394,0.0,0.0,0.0,2.9171,2.8427,2.8411,2.8348,2.8235,2.8868,2.9403,2.9879,3.0458,3.1022,3.1553,3.1539,3.1539,3.1539,3.1511,3.1511,3.1511,3.1511,3.1511,3.1511,3.1511,3.1511,3.1511,3.1511,3.1555,3.163,3.5504,0.0,0.0,0.0,0.0,3.5504,3.5439,3.5439,3.5439,3.5392,3.5392,3.5326,3.518,3.5148,3.5082,3.4902,3.4902,0.0,0.0,0.0,0.0,3.5148,3.5148,3.5148,3.5148,3.4968,3.4843,0.0,0.0,0.0,3.3801,0.0,0.0,0.0,0.0,0.0,3.4384,3.504,0.0,3.4425,3.4201,3.3423,3.2408,3.2303,3.1915,3.1424,3.1292,3.1058,3.0821,3.0955,3.0895,3.0791,3.0955,3.0895,3.0762,3.0762,3.0702,3.0612,3.0732,3.0762,3.0762,3.0762,3.0762,3.0702,3.0477,3.0417,3.0447,3.0568,3.0598,3.0672,3.0955,0.0,0.0,0.0,0.0,0.0,0.0,0.0,0.0,0.0,0.0,3.0911,0.0,0.0,0.0,0.0,0.0,0.0,0.0,0.0,2.9648,0.0,2.8411,0.0,0.0,0.0,2.949,3.0125,3.0703,3.1288,3.1912,3.1813,3.1756,3.1727,3.1568,3.1511,3.1511,3.1511,3.1511,3.1511,3.1511,3.1511,3.1511,3.1511,3.1854,3.2303,0.0,0.0,0.0,0.0,0.0,0.0,0.0,3.5504,3.5504,3.5504,3.5504,3.5606,3.5836,3.5866,3.5967,3.6179,3.5911,3.5718,3.5718,3.5472,3.5359,3.5359,3.5359,3.5359,3.5359,3.5261,3.5213,3.5213,0.0,0.0,3.4362,0.0,0.0,0.0,0.0,3.4219,0.0,0.0,0.0,3.4981,3.4653,3.4098,3.3499,3.3155,3.2826,3.2527,3.2452,3.2287,3.1972,3.1338,3.1043,3.0984,3.1087,3.1014,3.0955,3.0955,3.0925,3.0866,3.0955,3.0955,3.0955,3.0955,3.0955,3.0955,3.0866,3.0866,3.0895,3.0955,3.0955,3.0984,3.1087,3.1117,0.0,0.0,0.0,0.0,0.0,0.0,0.0,0.0,0.0,0.0,0.0,0.0,0.0,0.0,0.0,3.1006,2.9479,0.0,2.9417,0.0,0.0,0.0,2.8411,0.0,2.9271,3.0188,3.0472,3.1092,3.1996,3.187,3.1799,3.1799,3.1597,3.1511,3.1511,3.1511,3.1511,3.1511,3.1511,3.1511,3.154,3.1884,3.2213,3.2512,0.0,3.5504,0.0,0.0,3.5624,0.0,3.5714,3.5833,3.5863,3.5729,3.5714,3.5953,3.6611,3.6686,3.6881,3.736,3.6971,3.6686,3.6686,3.6073,3.5714,3.5714,3.5579,3.5504,3.5504,3.5504,3.5504,0.0,0.0,0.0,0.0,0.0,0.0,0.0,0.0,0.0,0.0,0.0,3.5504,3.5459,3.4921,3.4638,3.4444,3.3903,3.3619,3.3499,3.3499,3.3438,3.3181,3.202,3.1501,3.1353,3.1383,3.1279,3.1132,3.1132,3.1102,3.1117,3.1132,3.1132,3.1132,3.1132,3.1132,3.1146,3.1117,3.1117,3.1117,3.1146,3.1161,3.1117,3.0954,3.0954,0.0,0.0,0.0,0.0,0.0,0.0,0.0,0.0,0.0,0.0,3.0253,0.0,0.0,0.0,0.0,3.0704,2.9664,2.9464,2.9104,0.0,0.0,2.8411,2.8411,0.0,2.9162,3.0241,3.0394,3.1029,3.2066,3.1927,3.1841,3.1841,3.1597,3.1511,3.1511,3.1511,3.1511,3.1511,3.1511,3.1585,3.178,3.2317,3.2691,3.2931,0.0,0.0,0.0,0.0,0.0,0.0,3.6402,3.6866,3.703,3.6477,3.6402,3.6626,3.7255,3.733,3.7345,3.7404,3.736,3.733,3.733,3.6731,3.6402,3.6402,3.5818,3.5504,3.5504,3.5504,3.5504,0.0,0.0,3.4846,0.0,0.0,0.0,0.0,0.0,0.0,0.0,3.5474,3.5504,3.5504,3.5429,3.504,3.4503,3.4444,3.4039,3.3499,3.3499,3.3499,3.3439,3.3319,3.278,3.2213,3.2333,3.1856,3.1292,3.1292,3.119,3.1132,3.1234,3.1292,3.1292,3.1292,3.1292,3.1234,3.1132,3.1117,3.1132,3.1263,3.138,3.123,3.052,3.0471,3.0304,0.0,0.0,0.0,0.0,0.0,2.8682,2.8682,0.0,0.0,0.0,3.0746,0.0,0.0,3.0258,3.0811,3.034,2.9725,2.9104,2.8427,2.8411,2.8411,2.8411,2.9012,2.9664,3.0402,3.0986,3.169,3.2342,3.2094,3.1968,3.1968,3.1655,3.1511,3.1511,3.1511,3.1511,3.1511,3.1511,3.1869,3.2392,3.2497,3.3275,3.4324,0.0,0.0,0.0,0.0,0.0,0.0,0.0,3.724,3.7464,3.7614,3.7285,3.7285,3.7928,3.8003,3.8167,3.8586,3.8242,3.8003,3.8003,3.7404,3.6881,3.6507,3.6237,3.5908,3.5519,3.5504,3.5504,0.0,0.0,0.0,0.0,0.0,0.0,0.0,0.0,3.5504,3.5504,3.5504,3.5504,3.5504,3.5504,3.534,3.51,3.51,3.4936,3.4696,3.4696,3.4696,3.4696,3.4696,3.3962,3.3019,3.308,3.2587,3.202,3.202,3.1692,3.1366,3.1409,3.1409,3.1409,3.1409,3.1409,3.1409,3.1366,3.1336,3.1366,3.1409,3.1467,3.1392,3.1066,3.0735,3.027,2.9588,0.0,0.0,0.0,0.0,0.0,0.0,0.0,2.8992,0.0,0.0,0.0,0.0,0.0,3.0011,2.9133,2.8901,2.8688,2.8411,0.0,2.8411,2.8411,2.9048,2.9725,3.0402,3.1074,3.1736,3.2398,3.2219,3.2066,3.1996,3.1769,3.167,3.167,3.167,3.1597,3.154,3.1929,3.2243,3.2617,3.3395,3.4054,3.4563,3.6761,0.0,3.7404,0.0,3.7569,3.7704,3.7704,3.7868,3.8167,3.8631,3.8287,3.8182,3.8631,3.8691,3.8886,3.9379,3.8975,3.8691,3.8691,3.8063,3.7509,3.7075,3.6686,0.0,3.5804,3.5774,3.5765,3.5765,3.5765,0.0,0.0,0.0,0.0,0.0,3.5973,3.5941,3.5765,3.5765,3.5651,3.5504,3.5504,3.5504,3.5504,3.5504,3.5504,3.5504,3.5504,3.5504,3.5504,3.5504,3.4876,3.4053,3.3844,3.3335,3.2796,3.2796,3.2303,3.1795,3.1795,3.1645,3.1511,3.1511,3.1511,3.1511,3.1511,3.1511,3.1511,3.1511,3.1511,3.1451,3.1241,3.0962,3.0485,2.9641,0.0,0.0,0.0,2.8042,0.0,0.0,2.8594,2.8835,2.8987,2.9521,0.0,0.0,0.0,0.0,0.0,0.0,0.0,0.0,0.0,0.0,2.8704,2.9356,3.0017,3.0705,3.1366,3.1921,3.2398,3.2274,3.2122,3.1996,3.187,3.1799,3.1799,3.1727,3.1746,3.1839,3.2303,3.2751,3.32,3.4159,3.4638,3.4846,3.7404,3.7404,3.7404,3.7404,3.7943,3.8377,3.8377,3.896,3.9394,3.9373,3.9394,3.9394,3.9373,3.9373,3.9373,3.9388,3.9373,3.9373,3.9373,3.8751,3.8377,0.0,0.0,3.6492,3.6477,3.642,3.6399,3.6399,0.0,0.0,3.4412,0.0,3.5122,3.643,3.7071,3.7011,3.6399,3.6399,3.6053,3.5504,3.5504,3.5504,3.5504,3.5504,3.5504,3.5504,3.5504,3.5504,3.5504,3.5504,3.5489,3.537,3.4713,3.4039,3.3484,3.3484,3.3021,3.2497,3.2497,3.1989,3.1511,3.1511,3.1511,3.1511,3.1511,3.1511,3.1511,3.1511,3.1511,3.1301,3.0642,3.1004,3.0936,2.9531,0.0,0.0,0.0,0.0,0.0,2.836,2.9295,2.9547,2.8414,3.0049,0.0,0.0,0.0,0.0,0.0,0.0,0.0,2.8411,2.8411,0.0,2.9371,3.0048,3.0709,3.1409,3.2059,3.2382,3.2398,3.2274,3.2122,3.1996,3.187,3.1799,3.1784,3.1597,3.1884,3.2497,3.2512,3.3305,3.4488,3.4503,3.4906,3.5489,3.8266,3.8627,3.8908,3.8781,3.8945,3.9095,3.9095,3.9239,3.9388,3.9388,3.9388,3.9388,3.9388,3.9388,3.9388,0.0,3.9388,3.9388,0.0,3.9215,3.8886,3.8407,3.8003,3.7569,3.712,3.709,3.7091,3.7091,0.0,0.0,0.0,3.6456,3.6678,3.7101,3.731,3.728,3.7071,3.7071,3.6966,3.6784,3.6784,3.6784,3.6753,3.629,3.6414,3.6662,3.5797,3.5765,3.6053,3.5651,3.5504,3.5474,3.525,3.4711,3.4158,3.4158,3.3709,3.3185,3.3185,3.2706,3.2168,3.2168,3.1839,3.1511,3.1511,3.1511,3.1511,3.1511,3.1824,3.2059,3.183,3.1874,3.1799,3.136,3.1063,0.0,2.9943,0.0,0.0,2.9357,2.9637,2.9707,2.9348,2.9974,0.0,0.0,0.0,0.0,0.0,0.0,0.0,0.0,2.9493,0.0,2.9868,3.0686,3.1182,3.1424,3.2074,3.2398,3.2398,3.2274,3.2219,3.2274,3.2038,3.1996,3.2083,3.2265,3.245,3.2735,3.353,3.4098,3.4563,3.4996,3.5325,3.5504,3.9184,3.9481,3.9753,3.9985,3.9935,3.999,4.0324,4.0393,4.0393,4.0393,4.0393,4.0393,4.0393,4.0393,0.0,3.9445,3.9388,3.9388,3.9388,3.9388,3.923,3.8796,3.8792,3.8599,3.819,3.8445,0.0,3.8167,3.788,3.7618,3.7383,3.7618,3.7735,3.7735,3.7982,3.7982,3.7735,3.7735,3.7605,3.7399,3.7399,3.7399,3.7354,3.692,3.7041,3.731,3.6492,3.629,3.6368,3.6258,3.6053,3.5878,3.6148,3.5764,3.5179,3.4941,3.4382,3.3858,3.3858,3.338,3.2886,3.2886,3.2363,3.1809,3.157,3.1668,3.1824,3.1824,3.2299,3.2695,3.2695,3.2814,3.2818,3.2547,3.2329,3.1942,3.1248,0.0,0.0,0.0,0.0,0.0,0.0,3.0135,3.0204,0.0,0.0,0.0,0.0,0.0,0.0,3.0204,3.0346,3.0545,3.0891,3.1445,3.1719,3.1794,3.2198,3.2398,3.2398,3.2315,3.2315,3.2398,3.2122,3.2218,3.2575,3.2611,3.2961,3.3517,3.4267,3.4685,3.4938,3.5389,3.5554,3.5504,4.0031,3.9874,3.9985,0.0,4.0808,0.0,4.1804,4.1965,4.1997,4.1997,4.1997,4.1997,4.1997,4.1997,4.1362,3.9702,0.0,0.0,0.0,3.9424,3.9409,3.9481,3.9551,3.9573,3.964,4.0258,4.0199,3.9466,3.8784,3.8144,3.7546,3.8124,3.8379,3.8407,3.9023,3.8952,3.8379,3.8379,3.8067,3.7546,3.7546,3.7546,3.7517,3.7488,3.7488,3.7517,3.7429,3.7041,3.6631,3.7191,3.6981,3.6569,3.7191,3.6981,3.6337,3.5733,3.5073,3.4578,3.4578,3.4068,3.359,3.3621,3.3156,3.2511,3.185,3.214,3.2527,3.248,3.2895,3.3277,3.3277,3.3748,3.3924,3.3259,3.3552,3.363,3.2884,3.2785,0.0,0.0,0.0,0.0,3.0114,3.0638,3.1063,0.0,0.0,0.0,0.0,0.0,3.0358,3.1053,3.1095,3.1459,3.2238,3.2276,3.2311,3.2398,3.2398,3.2398,3.2398,3.2398,3.2428,3.2475,3.2198,3.2536,3.3276,3.2825,3.3487,3.4739,3.4784,3.5112,3.5554,3.5671,3.5621,3.5504,0.0,0.0,4.0156,4.0226,4.0615,4.0992,4.1227,4.169,4.1997,4.1997,4.1997,4.1997,4.1997,4.1997,4.1836,4.1412,4.0758,4.0185,3.9646,3.9496,3.9646,4.0216,4.0255,4.0504,4.1025,4.1164,4.0896,4.0155,3.999,3.9539,3.8843,3.8996,3.905,3.9077,3.9245,3.9202,3.905,3.905,3.8969,3.886,3.886,3.886,3.8788,3.8294,3.8379,3.8733,3.7751,3.7589,3.7793,3.7501,3.728,3.7191,3.734,3.728,3.7041,3.6368,3.574,3.5265,3.5265,3.4756,3.4389,3.4836,3.4835,3.4538,3.3807,3.3732,3.3684,3.3123,3.3491,3.3908,3.3908,3.4333,3.4642,3.446,3.4563,3.4369,3.3624,3.3632,3.335,0.0,3.2453,3.2475,3.2183,3.2417,3.2622,0.0,0.0,0.0,3.3136,3.2761,3.2638,3.2806,3.2973,3.2943,3.2731,3.2898,3.2765,3.2398,3.2398,3.2398,3.2398,3.2398,3.2675,3.3167,3.2984,3.341,3.4201,3.4364,3.4683,3.5125,3.5518,3.5773,3.5861,3.572,3.5688,3.5638,4.0455,4.0593,4.0836,4.1109,4.1641,4.2189,4.2599,4.2939,4.3183,4.3183,4.3183,4.3183,4.3183,4.3183,4.3045,4.2722,4.182,4.1147,4.0789,4.0653,4.0789,4.1178,4.1494,4.1804,4.2157,4.2474,4.219,4.1359,4.1011,4.0481,3.9812,3.9812,3.963,3.9299,3.9299,3.9299,3.9299,3.9299,3.9299,3.9299,3.9299,3.9299,3.9272,3.8898,3.898,3.9202,3.8523,3.8266,3.8294,3.8282,3.8067,3.7851,3.8169,3.8067,3.7735,3.7399,3.6829,3.6383,3.6383,3.6107,3.5814,3.585,3.587,3.5668,3.4956,3.4988,3.4969,3.4212,3.4554,3.4882,3.4538,3.4691,3.4899,3.4899,3.4947,3.4844,3.4446,3.4512,3.4291,3.3495,3.3456,3.3367,3.3016,3.3103,3.3223,3.3287,3.3664,0.0,3.3897,3.4235,3.4247,3.3914,3.4007,3.3981,3.3777,3.3625,3.3172,3.2398,3.2641,3.2641,3.2398,3.2721,3.3059,3.3413,3.3563,3.4144,3.4968,3.4988,3.5278,3.5706,3.5979,3.6053,3.6005,3.5958,3.5879,3.5831,4.0904,4.1176,4.1706,4.2395,4.297,4.3575,4.431,4.4542,4.4615,4.4615,4.4615,4.4615,4.4615,4.4615,4.4338,4.3706,4.2892,4.2284,4.2062,4.2029,4.2062,4.2157,4.2722,4.3059,4.315,4.3654,4.3485,4.2576,4.1917,4.1254,4.0602,4.0575,4.0177,3.9481,3.9481,3.9398,3.9299,3.9299,3.9299,3.9299,3.9299,3.9299,3.9299,3.9299,3.9299,3.9299,3.9299,3.8925,3.8535,3.9121,3.8925,3.8562,3.9121,3.8898,3.8463,3.8463,3.8096,3.7634,3.7458,3.7488,3.7388,3.6829,3.6772,3.6653,3.5979,3.6158,3.6283,3.5558,3.5719,3.581,3.5181,3.4982,3.4899,3.4923,3.5018,3.5105,3.5128,0.0,3.508,3.4443,3.4399,3.4147,3.3515,3.3564,3.3645,3.3645,3.4293,3.4675,3.4675,3.5267,3.5295,3.4692,3.4675,3.4701,3.4793,3.4284,3.3485,3.252,3.3069,3.3063,3.2567,3.326,3.3614,3.3752,3.419,3.4864,3.563,3.5355,3.5644,3.6242,3.6242,3.6195,3.61,3.6179,3.6179,3.6148,4.2205,4.2269,4.2363,4.2489,4.3045,4.3512,4.3647,4.4207,4.4615,4.4615,4.4615,4.4615,4.4615,4.4615,4.4542,4.444,4.4281,4.3634,4.2332,4.2093,4.2236,4.2829,4.2951,4.3303,4.3919,4.401,4.3671,4.2919,4.2677,4.2204,4.1472,4.1316,4.0878,4.0243,4.0243,3.9879,3.9299,3.9299,3.9299,3.9299,3.9299,3.9299,3.9299,3.9299,3.9299,3.9299,3.9299,3.9245,3.9148,3.9272,3.9245,3.9148,3.9272,3.9245,3.9148,3.9148,3.9094,3.8761,3.7693,3.7764,3.8149,3.8036,3.8427,3.865,3.7943,3.7831,3.7685,3.6942,3.6373,3.5976,3.5843,3.5313,3.4947,3.5041,3.5105,3.5152,3.5245,0.0,3.5373,3.5163,3.5215,3.525,3.5132,3.5155,3.5183,3.5239,3.5363,3.543,3.543,3.5532,3.5549,3.543,3.543,3.5238,3.4793,3.4284,3.3691,3.3066,3.3729,3.3756,3.3275,3.4012,3.4643,3.5168,3.5276,3.5707,3.6338,3.6307,3.6337,3.646,3.646,3.6429,3.6383,3.6242,3.6523,3.6829,4.2583,4.28,4.3045,4.3045,4.3617,4.4105,4.4105,4.4367,4.4615,4.4615,4.4615,4.4615,4.4615,4.4615,4.4615,4.4615,4.4615,4.4281,4.3591,4.3439,4.3529,4.3856,4.3856,4.3989,4.4196,4.4196,4.4016,4.3578,4.3538,4.3125,4.2406,4.2237,4.1782,4.11,4.1,4.0818,4.0552,4.017,4.003,4.0061,3.9687,3.9484,3.9422,3.9422,3.9352,3.9299,3.9299,3.9299,3.9299,3.9299,3.9299,3.9299,3.9299,3.9299,3.9299,3.9299,3.9299,3.9175,3.8579,3.8634,3.8843,3.8843,3.9077,3.9216,3.8858,3.8775,3.8576,3.7847,3.7433,3.7069,3.6671,3.6041,3.5616,3.5688,3.5489,0.0,3.54,3.5498,3.5526,3.5458,3.5526,3.5549,3.5549,3.5549,3.5571,3.56,3.56,3.56,3.56,3.56,3.5785,3.6231,3.5842,3.5339,3.4809,3.5278,3.5095,3.4284,3.4963,3.5165,3.4963,3.5357,3.5685,3.6013,3.6388,3.652,3.6492,3.6492,3.6492,3.6523,3.6861,3.6785,3.6569,3.7117,3.731,3.7266,4.3092,4.3393,4.3752,4.3752,4.4236,4.4615,4.4615,4.4615,4.4615,4.4615,4.4615,4.4615,4.4615,4.4615,4.4615,4.4615,4.4615,4.4615,4.4615,4.4615,4.4615,4.4615,4.4615,4.4542,4.4367,4.4367,4.4327,4.4212,4.4155,4.3853,4.33,4.3158,4.2705,4.2016,4.1843,4.176,4.1716,4.1138,4.0942,4.1027,4.044,4.0043,3.9804,3.9804,3.9608,3.9352,3.9352,3.9325,3.9299,3.9299,3.9299,3.9299,3.9342,3.9352,3.9352,3.9379,3.9405,3.9379,3.9325,3.9299,3.9299,3.9325,3.9325,3.9299,3.9325,3.9352,3.9203,3.8629,3.838,3.8107,3.7543,3.6928,3.6502,3.6527,0.0,3.6036,3.606,3.6095,3.6056,3.591,3.5893,3.5825,3.5616,3.5752,3.5893,3.5893,3.6039,3.6124,3.6124,3.6124,3.6434,3.7049,3.6468,3.5923,3.5514,3.6535,3.6582,3.5654,3.6329,3.6603,3.6539,3.6762,3.6826,3.6858,3.7398,3.7342,3.6906,3.6906,3.6906,3.6967,3.7431,3.7312,3.7028,3.7953,3.8096,3.7854,4.444,4.4485,4.4514,4.4514,4.457,4.4615,4.4615,4.4615,4.4615,4.4615,4.4615,4.4615,4.4615,4.4615,4.4615,4.4615,4.4615,4.4615,4.4615,4.4615,4.4615,4.4615,4.4615,4.4598,4.457,4.457,4.457,4.4542,4.4384,4.4248,4.4197,4.4071,4.3628,4.2908,4.2908,4.2507,4.1898,4.1848,4.1814,4.1797,4.1747,4.1328,4.0715,4.0715,4.0191,3.9501,3.9501,3.9422,3.9299,3.9299,3.9299,3.9325,3.9448,3.9501,3.9511,3.9625,3.9677,3.9625,3.9379,3.9299,3.9325,3.9432,3.9379,3.9325,3.9475,3.9501,3.9484,3.9435,3.8946,3.8564,3.8514,3.7878,3.7425,3.7564,0.0,0.0,3.7713,3.7736,3.7483,3.6795,3.6711,3.6417,3.5667,3.6265,3.6711,3.6711,3.7347,3.7736,3.7736,3.7736,3.777,3.7821,3.777,3.7713,3.7665,3.7763,3.7539,3.6961,3.763,3.7699,3.7259,3.789,3.8157,3.8157,3.8206,3.821,3.8181,3.8181,3.8181,3.8165,3.8238,3.821,3.8165,3.8266,3.8629,3.9001,4.4615,4.4615,4.4615,4.4615,4.4615,4.4615,4.4615,4.4615,4.4615,4.4615,4.4615,4.4615,4.4615,4.4615,4.4615,4.4615,4.4615,4.4615,4.4615,4.4615,4.4615,4.4615,4.4615,4.4615,4.4615,4.4615,4.4615,4.4615,4.4542,4.4468,4.4468,4.4327,4.4073,4.3804,4.3736,4.3568,4.3379,4.2897,4.2751,4.2783,4.2311,4.192,4.1604,4.1604,4.1355,4.0996,4.0996,4.0969,4.0832,4.0381,4.0248,4.0164,3.975,3.9625,3.9625,3.9677,3.9703,3.9677,3.9573,3.9547,3.9547,3.9599,3.959,3.9547,3.9599,3.9625,3.9625,3.9625,3.9434,3.9285,3.9285,3.8749,3.8312,3.8361,0.0,3.7834,3.7882,3.7905,3.7804,3.7516,3.7483,3.7364,3.7077,3.7297,3.7483,3.7483,3.7736,3.7905,3.7905,3.8328,3.8582,3.8582,3.9022,3.8819,3.7922,3.8345,3.8468,3.8295,3.8626,3.8854,3.9028,3.8896,3.8865,3.8865,3.8865,3.8657,3.8306,3.8306,3.8306,3.8351,3.8712,3.8629,3.839,3.9146,3.9322,3.9232,4.4615,4.4615,4.4615,4.4615,4.4615,4.4615,4.4615,4.4615,4.4615,4.4615,4.4615,4.4615,4.4615,4.4615,4.4615,4.4615,4.4615,4.4615,4.4615,4.4615,4.4615,4.4615,4.4615,4.4615,4.4615,4.4615,4.4615,4.4615,4.4615,4.4615,4.4615,4.4468,4.4395,4.4395,4.4298,4.4298,4.4378,4.3844,4.3681,4.3741,4.3217,4.2824,4.2496,4.2496,4.2263,4.1953,4.1953,4.1925,4.1814,4.1328,4.1161,4.106,4.0611,4.0469,4.0471,4.0253,4.0186,4.0135,3.99,3.9833,3.9833,3.9781,3.9729,3.9703,3.9755,3.9755,3.9755,3.9755,3.9807,3.9833,3.9833,3.948,3.9194,3.9194,3.8847,3.8582,3.8582,3.8582,3.8497,3.8278,3.8261,3.8159,3.7922,3.8108,3.8261,3.8261,3.8464,3.8582,3.8582,3.9056,3.9368,3.9368,3.9842,3.9622,3.8599,3.9089,3.9368,3.9343,3.9435,3.9696,4.007,3.967,3.947,3.947,3.947,3.9242,3.8876,3.8876,3.8876,3.8903,3.9322,3.9216,3.8957,3.9799,3.9825,3.9523,4.4615,4.4615,4.4615,4.4615,4.4615,4.4615,4.4615,4.4615,4.4615,4.4615,4.4615,4.4615,4.4615,4.4615,4.4615,4.4615,4.4615,4.4615,4.4615,4.4615,4.4615,4.4615,4.4615,4.4615,4.4615,4.4615,4.4615,4.4615,4.4615,4.4615,4.4615,4.4615,4.4615,4.4615,4.4615,4.4615,4.4615,4.4615,4.4615,4.4615,4.4615,4.4113,4.3392,4.3392,4.2854,4.2122,4.2122,4.2024,4.1915,4.1898,4.1898,4.1925,4.2078,4.2196,4.2151,4.1424,4.1221,4.1052,4.0333,4.0113,4.0062,3.9952,3.9781,3.9729,3.9875,3.9901,3.9901,3.9901,4.0011,4.0096,4.0096,4.0096,4.0096,4.0096,4.0096,4.0096,4.0096,4.0096,3.9842,3.9089,3.9005,3.8717,3.799,3.8582,3.9005,3.9005,3.969,4.0096,4.0096,4.0096,4.0096,4.0096,4.0096,4.0096,4.0096,4.0096,4.0096,4.0096,4.0096,4.0096,4.0096,4.0096,4.0096,4.0096,4.0096,4.0096,4.0096,4.0096,4.0096,4.0096,4.0096,4.0096,4.0096,4.0096,4.0096,4.0096,4.4615,4.4615,4.4615,4.4615,4.4615,4.4615,4.4615,4.4615,4.4615,4.4615,4.4615,4.4615,4.4615,4.4615,4.4615,4.4615,4.4615,4.4615,4.4615,4.4615,4.4615,4.4615,4.4615,4.4615,4.4615,4.4615,4.4615,4.4615,4.4615,4.4615,4.4615,4.4615,4.4615,4.4615,4.4615,4.4615,4.4615,4.4615,4.4615,4.4615,4.4615,4.4479,4.4231,4.4231,4.4096,4.3838,4.3838,4.381,4.3698,4.313,4.2945,4.2888,4.2375,4.226,4.2252,4.2033,4.1965,4.1914,4.1694,4.1255,4.0747,4.0197,4.0011,3.9995,4.0037,4.0037,4.0037,4.0037,4.0087,4.0096,4.0096,4.0096,4.0096,4.0096,4.0096,4.0096,4.0096,4.0096,4.0028,3.9808,3.9774,3.969,3.9486,3.9656,3.9774,3.9774,3.9977,4.0096,4.0096,4.0096,4.0096,4.0096,4.0096,4.0096,4.0096,4.0096,4.0096,4.0096,4.0096,4.0096,4.0096,4.0096,4.0096,4.0096,4.0096,4.0096,4.0096,4.0096,4.0096,4.0096,4.0096,4.0096,4.0096,4.0096,4.0096,4.0096,4.5026,4.5263,4.5478,4.5478,4.5478,4.5478,4.5478,4.5478,4.5376,4.506,4.5026,4.4908,4.4632,4.4615,4.4615,4.4615,4.4615,4.4615,4.4615,4.4615,4.4615,4.4615,4.4615,4.4615,4.4615,4.4615,4.4615,4.4615,4.4615,4.4615,4.4615,4.4615,4.4615,4.4615,4.4615,4.4615,4.4615,4.4615,4.4615,4.4615,4.4615,4.4615,4.4615,4.4615,4.4615,4.4615,4.4615,4.4615,4.453,4.4045,4.3876,4.3809,4.3335,4.3227,4.3159,4.2828,4.2743,4.2675,4.2371,4.1965,4.1525,4.1068,4.0536,4.0096,4.0096,4.0096,4.0096,4.0096,4.0096,4.0096,4.0096,4.0096,4.0096,4.0096,4.0096,4.0096,4.0096,4.0096,4.0096,4.0096,4.0096,4.0096,4.0096,4.0096,4.0096,4.0096,4.0096,4.0096,4.0096,4.0096,4.0096,4.0096,4.0096,4.0096,4.0096,4.0096,4.0096,4.0096,4.0096,4.0096,4.0096,4.0096,4.0096,4.0096,4.0096,4.0096,4.0096,4.0096,4.0096,4.0096,4.0096,4.0096,4.0096,4.0096,4.0096,4.0096,4.5805,4.6346,4.6786,4.6786,4.6786,4.6786,4.6786,4.6786,4.6549,4.5889,4.5805,4.5534,4.4886,4.4801,4.4784,4.4716,4.4649,4.4615,4.4615,4.4615,4.4615,4.4615,4.4615,4.4615,4.4615,4.4615,4.4615,4.4615,4.4615,4.4615,4.4615,4.4615,4.4615,4.4615,4.4615,4.4615,4.4615,4.4615,4.4615,4.4615,4.4615,4.4615,4.4615,4.4615,4.4615,4.4615,4.4615,4.4615,4.4615,4.4615,4.4615,4.4615,4.4615,4.4615,4.4479,4.3724,4.3521,4.3369,4.2675,4.2439,4.2388,4.2388,4.1348,4.0282,4.0214,4.0197,4.018,4.0113,4.0096,4.0096,4.0096,4.0096,4.0096,4.0096,4.0096,4.0096,4.0096,4.0096,4.0096,4.0096,4.0096,4.0096,4.0096,4.0096,4.0096,4.0096,4.0096,4.0096,4.0096,4.0096,4.0096,4.0096,4.0096,4.0096,4.0096,4.0096,4.0096,4.0096,4.0096,4.0096,4.0096,4.0096,4.0096,4.0096,4.0096,4.0096,4.0096,4.0096,4.0096,4.0096,4.0096,4.0096,4.0096,4.0096,4.0096,4.0096,4.6549,4.6684,4.6786,4.6786,4.6786,4.6786,4.6786,4.6786,4.6735,4.6583,4.6549,4.6498,4.6329,4.6312,4.6075,4.5517,4.4925,4.4615,4.4615,4.4615,4.4615,4.4615,4.4615,4.4615,4.4615,4.4615,4.4615,4.4615,4.4615,4.4615,4.4615,4.4615,4.4615,4.4615,4.4615,4.4615,4.4615,4.4615,4.4615,4.4615,4.4615,4.4615,4.4615,4.4615,4.4615,4.4615,4.4615,4.4615,4.4615,4.4615,4.4615,4.4615,4.4615,4.4615,4.4581,4.4384,4.4333,4.4282,4.4158,4.3639,4.3139,4.3139,4.2489,4.166,4.1085,4.0967,4.0798,4.0231,4.0096,4.0096,4.0096,4.0096,4.0096,4.0096,4.0096,4.0096,4.0096,4.0096,4.0096,4.0096,4.0096,4.0096,4.0096,4.0096,4.0096,4.0096,4.0096,4.0096,4.0096,4.0096,4.0096,4.0096,4.0096,4.0096,4.0096,4.0096,4.0096,4.0096,4.0096,4.0096,4.0096,4.0096,4.0096,4.0096,4.0096,4.0096,4.0096,4.0096,4.0096,4.0096,4.0096,4.0096,4.0096,4.0096,4.0096,4.0096,4.7327,4.7614,4.7851,4.7851,4.7851,4.7851,4.7851,4.7851,4.7716,4.7378,4.7327,4.7192,4.6836,4.6786,4.6498,4.5771,4.5348,4.4976,4.4632,4.4615,4.4615,4.4615,4.4615,4.4615,4.4615,4.4615,4.4615,4.4615,4.4615,4.4615,4.4615,4.4615,4.4615,4.4615,4.4615,4.4615,4.4615,4.4615,4.4615,4.4615,4.4615,4.4615,4.4615,4.4615,4.4615,4.4615,4.4615,4.4615,4.4615,4.4615,4.4615,4.4615,4.4615,4.4615,4.4615,4.4615,4.4615,4.4615,4.4615,4.4282,4.3978,4.3978,4.3673,4.3081,4.1982,4.1728,4.1508,4.0764,4.0612,4.051,4.0163,4.0096,4.0096,4.0096,4.0096,4.0096,4.0096,4.0096,4.0096,4.0096,4.0096,4.0096,4.0096,4.0096,4.0096,4.0096,4.0096,4.0096,4.0096,4.0096,4.0096,4.0096,4.0096,4.0096,4.0096,4.0096,4.0096,4.0096,4.0096,4.0096,4.0096,4.0096,4.0096,4.0096,4.0096,4.0096,4.0096,4.0096,4.0096,4.0096,4.0096,4.0096,4.0096,4.0096,4.0096,4.0096,4.8075,4.8595,4.9001,4.9001,4.9001,4.9001,4.9001,4.9001,4.8781,4.8159,4.8075,4.7868,4.7242,4.7056,4.6735,4.6143,4.5974,4.5568,4.4852,4.4801,4.4733,4.4615,4.4615,4.4615,4.4615,4.4615,4.4615,4.4615,4.4615,4.4615,4.4615,4.4615,4.4615,4.4615,4.4615,4.4615,4.4615,4.4615,4.4615,4.4615,4.4615,4.4615,4.4615,4.4615,4.4615,4.4615,4.4615,4.4615,4.4615,4.4615,4.4615,4.4615,4.4615,4.4615,4.4615,4.4615,4.4615,4.4615,4.4615,4.4615,4.4615,4.4615,4.4615,4.4276,4.2963,4.2574,4.2269,4.1542,4.139,4.1204,4.0603,4.0485,4.0434,4.0316,4.0299,4.0248,4.013,4.0096,4.0096,4.0096,4.0096,4.0096,4.0096,4.0096,4.0096,4.0096,4.0096,4.0096,4.0096,4.0096,4.0096,4.0096,4.0096,4.0096,4.0096,4.0096,4.0096,4.0096,4.0096,4.0096,4.0096,4.0096,4.0096,4.0096,4.0096,4.0096,4.0096,4.0096,4.0096,4.0096,4.0096,4.0096,4.0096,4.0096,4.0096,4.0096,4.8849,4.8934,4.9001,4.9001,4.9001,4.9001,4.9001,4.9001,4.8968,4.8866,4.8849,4.8815,4.8714,4.8139,4.7733,4.7601,4.7022,4.6329,4.5602,4.5551,4.5263,4.4632,4.4615,4.4615,4.4615,4.4615,4.4615,4.4615,4.4615,4.4615,4.4615,4.4615,4.4615,4.4615,4.4615,4.4615,4.4615,4.4615,4.4615,4.4615,4.4615,4.4615,4.4615,4.4615,4.4615,4.4615,4.4615,4.4615,4.4615,4.4615,4.4615,4.4615,4.4615,4.4615,4.4615,4.4615,4.4615,4.4615,4.4615,4.4615,4.4615,4.4615,4.4615,4.4564,4.4344,4.3758,4.3047,4.2286,4.2151,4.2117,4.2016,4.1982,4.1779,4.1153,4.1052,4.0832,4.0197,4.0096,4.0096,4.0096,4.0096,4.0096,4.0096,4.0096,4.0096,4.0096,4.0096,4.0096,4.0096,4.0096,4.0096,4.0096,4.0096,4.0096,4.0096,4.0096,4.0096,4.0096,4.0096,4.0096,4.0096,4.0096,4.0096,4.0096,4.0096,4.0096,4.0096,4.0096,4.0096,4.0096,4.0096,4.0096,4.0096,4.0096,4.0096,4.0096,4.9001,4.9001,4.9001,4.9001,4.9001,4.9001,4.9001,4.9001,4.9001,4.9001,4.9001,4.9001,4.9001,4.8714,4.8359,4.7922,4.7614,4.7107,4.6363,4.5923,4.5551,4.5229,4.4835,4.4615,4.4615,4.4615,4.4615,4.4615,4.4615,4.4615,4.4615,4.4615,4.4615,4.4615,4.4615,4.4615,4.4615,4.4615,4.4615,4.4615,4.4615,4.4615,4.4615,4.4615,4.4615,4.4615,4.4615,4.4615,4.4615,4.4615,4.4615,4.4615,4.4615,4.4615,4.4615,4.4615,4.4615,4.4615,4.4615,4.4615,4.4615,4.4615,4.4615,4.4615,4.4615,4.4344,4.3842,4.3081,4.2912,4.2794,4.2371,4.2286,4.2185,4.1863,4.1813,4.1694,4.1356,4.1348,4.1348,4.1348,4.1348,4.1348,4.1348,4.1348,4.1348,4.1348,4.1348,4.1348,4.1348,4.1348,4.1348,4.1348,4.1348,4.1348,4.1348,4.1348,4.1348,4.1348,4.1348,4.0908,4.0096,4.0096,4.0096,4.0096,4.0096,4.0096,4.0096,4.0096,4.0096,4.0096,4.0096,4.0096,4.0096,4.0096,4.0096,4.0096]}]]